     2              OBSERVATION DATA    GPS                 RINEX VERSION / TYPE
teqc 1997Jun30 19970702                                     PGM / RUN BY / DATE
                                                            COMMENT
BIT 2 OF LLI FLAGS DATA COLLECTED UNDER A-S CONDITION       COMMENT
BIT 2 OF LLI FLAGS DATA COLLECTED UNDER A-S CONDITION       COMMENT
Original Marker Name: HMCP                                  COMMENT
Campaign Name: HMC San Gabriel Valley 1993-1996             COMMENT
4-Character Station Name: HMCP                              COMMENT
6-Character Antenna Code: DMRCHT                            COMMENT
Vertical Measurement Point: BPA                             COMMENT
Vertical Offset to Rinex Ref. Point: 0.0000                 COMMENT
Radial Measurement Point: RRP                               COMMENT
Radial Offset to Rinex Ref. Point: 0.0000                   COMMENT
Antenna Height from Field Measurement: 0.0000 m             COMMENT
Additional Antenna Identification Info.:                    COMMENT
Turborogue and Ashtech Choke Ring                           COMMENT
Fixed antenna mounting on roof of Parsons                   COMMENT
building, HMC.                                              COMMENT
Original XYZ: -2458583.1793 -4680522.2175 3556492.6590      COMMENT
New XYZ position is based on association with SCEC monument COMMENT
E1D0R2C7+0011. Position of that monument is believed to be  COMMENT
valid to within 1 m horizontally; vertical accuracy         COMMENT
should be no worse than 3-times this value.                 COMMENT
                                                            COMMENT
Revised Rinex header created by UCSD GPS archive for        COMMENT
GSAC on 13-Apr-1999 (1999:103) 19:38:33 GMT                 COMMENT
For assistance contact dagnew@ucsd.edu or hjohnson@ucsd.edu COMMENT
                                                            COMMENT
HARVEY MUDD COLLEGE PHYSICS                                 MARKER NAME
MGB HARVEY MUDD COLLEGE                                     OBSERVER / AGENCY
T-262/263 TURBOROGUE SNR-8000 95.03.08                      REC # / TYPE / VERS
260/329 DORNE-MARGOL. TYPE T                                ANT # / TYPE
 -2458598.0000 -4680494.0000  3556451.0000                  APPROX POSITION XYZ
        0.0000        0.0000        0.0000                  ANTENNA: DELTA H/E/N
     1     1     0                                          WAVELENGTH FACT L1/2
     5    L1    L2    C1    P2    P1                        # / TYPES OF OBSERV
     0                                                      INTERVAL
  1996     2    29     0    35    0.000000                  TIME OF FIRST OBS
  1996     2    29    23    59   30.000000                  TIME OF LAST OBS
     0                                                      # OF SATELLITES
                                                            END OF HEADER
 96  2 29  0 35  0.0000000  0  5G 5G 9G12G 2G26
        -0.70254        -0.30254  23932132.0564   23932132.2544
        -0.69454        -0.60554  21259526.5774   21259525.9934
        -0.39714        -0.00114  21943306.538    21943305.250
        -0.34454         0.13154  22747646.6214   22747648.0164
        -0.33854         0.07054  24742228.6894   24742229.1014
 96  2 29  0 35 30.0000000  0  8G 5G24G 4G 9G 7G12G 2G26
    -83004.49744    -64678.52844  23916337.2924   23916337.8074
        -1.18154        -0.28654  22308325.9584   22308327.6664
        -1.21954        -0.41254  20772778.6034   20772777.5534
    -34925.11244    -27214.42644  21252881.0304   21252880.3914
        -1.19454        -0.95954  21411177.6484   21411177.3384
     67164.688 4     52336.414 4  21956087.583    21956086.192
     61934.28844     48260.85444  22759432.4094   22759433.3364
     72014.24044     56115.29844  24755932.9214   24755933.3124
 96  2 29  0 36  0.0000000  0  8G 5G24G 4G 9G 7G12G 2G26
   -165996.48444   -129347.58644  23900545.4884   23900544.5764
    -93567.39644    -72908.99744  22290520.9884   22290521.6134
    -33598.98744    -26180.47644  20766384.9104   20766384.3634
    -69334.07144    -54026.59644  21246333.0244   21246332.4984
     57149.13144     44531.76144  21422053.2664   21422052.8724
    134720.518 4    104977.300 4  21968942.876    21968941.729
    124166.24744     96753.25444  22771274.7214   22771275.8224
    144059.16144    112254.17744  24769641.9574   24769641.7194
 96  2 29  0 36 30.0000000  0  8G 5G24G 4G 9G 7G12G 2G26
   -248800.13244   -193869.86544  23884788.9004   23884789.6954
   -186619.41344   -145417.04544  22272813.8554   22272814.6804
    -66377.91944    -51722.48244  20760147.5894   20760146.9754
   -103030.03744    -80283.17944  21239921.0444   21239920.1194
    114689.54844     89368.44744  21433002.5404   21433002.2794
    202856.571 4    158070.313 4  21981908.702    21981907.553
    186879.65344    145620.82144  22783209.1124   22783209.6204
    216307.56944    168551.58744  24783388.5234   24783392.7054
 96  2 29  0 37  0.0000000  0  8G 5G24G 4G 9G 7G12G 2G26
   -331450.60744   -258272.76444  23869060.9314   23869062.3504
   -279187.69544   -217548.15144  22255198.8264   22255199.3554
    -98378.19244    -76657.74444  20754057.9834   20754056.8474
   -136022.15144   -105991.31444  21233642.7624   21233642.1614
    172565.21544    134466.37044  21444015.9714   21444015.4504
    271540.981 4    211590.618 4  21994979.085    21994977.846
    250041.01644    194837.43544  22795228.3214   22795228.8014
    288726.73044                  24797165.2744
 96  2 29  0 37 30.0000000  0  8G 5G24G 4G 9G 7G12G 2G26
   -414216.64744   -322765.72244  23853310.4664   23853311.9344
   -371558.56344   -289525.42644  22237621.2594   22237621.6654
   -129921.55144   -101236.96944  20748055.4894   20748054.6314
   -168589.34444   -131368.33344  21227445.7394   21227445.1914
    230473.27044    179589.52844  21455035.3504   21455035.2394
    340490.140 4    265317.217 4  22008099.733    22008098.559
    313361.29444    244177.89144  22807277.8124   22807278.0634
    361046.60044    281335.08344  24810929.5514
 96  2 29  0 38  0.0000000  0  8G 5G24G 4G 9G 7G12G 2G26
   -497007.29844   -387277.87044  23837556.5424   23837556.4544
   -463636.60544   -361274.53044  22220099.3704   22220100.3054
   -160927.60844   -125397.51644  20742155.2944   20742154.2724
   -200629.52744   -156334.70744  21221348.2974   21221347.6554
    288492.06144    224798.97444  21466075.9084   21466075.6024
    409795.631 4    319321.478 4  22021288.148    22021286.905
    376923.46244    293706.82144  22819373.3984   22819373.0764
    433363.01644    337685.52644  24824693.8404   24824694.2954
 96  2 29  0 38 30.0000000  0  8G 5G24G 4G 9G 7G12G 2G26
   -579816.27644   -451804.29744  23821798.4394   23821798.0744
   -555435.15444   -432805.84644  22202630.2634   22202630.7974
   -191404.66044   -149145.85444  20736355.6474   20736354.5064
   -232126.62744   -180877.89444  21215354.7094   21215354.2864
    346611.39444    270086.75544  21477135.5874   21477135.6624
    479456.583 4    373602.718 4  22034544.206    22034543.043
    440719.06244    343417.64844  22831513.1454   22831513.2334
    505676.70344    394033.81044  24838456.9034   24838455.9624
 96  2 29  0 39  0.0000000  0  8G 5G24G 4G 9G 7G12G 2G26
   -662643.59844   -516345.01044  23806036.9164   23806037.4834
   -646977.51744   -504137.52644  22185210.5634   22185211.0084
   -221375.17844   -172499.48944  20730652.3844   20730651.4944
   -263108.55444   -205019.64444  21209458.9784   21209458.5204
    404813.06744    315438.70844  21488211.1554   21488210.6774
    549459.779 4    428150.645 4  22047865.360    22047864.222
    504733.60544    393299.09644  22843694.6304   22843694.5794
    577980.69244    450374.58344  24852215.5934   24852216.1784
 96  2 29  0 39 30.0000000  0  8G 5G24G 4G 9G 7G12G 2G26
   -745487.36144   -580898.55944  23790271.8844   23790273.2824
   -738243.33544   -575253.72844  22167843.7304   22167844.5574
   -250828.95244   -195450.46744  20725047.5724   20725046.5754
   -293584.28444   -228766.96244  21203659.7654   21203658.7354
    463108.58744    360863.79244  21499304.5454   21499304.3324
    619807.245 4    482966.829 4  22061252.108    22061250.855
    568964.07544    443348.77644  22855917.3974   22855917.0804
    650265.33444    506700.25844  24865971.2084   24865972.2904
 96  2 29  0 40  0.0000000  0  8G 5G24G 4G 9G 7G12G 2G26
   -828327.40444   -645449.16044  23774507.1514   23774509.2034
   -829199.00644   -646128.23944  22150535.3674   22150535.7224
   -279715.32144   -217959.31244  20719550.7314   20719549.6534
   -323520.63244   -252093.97744  21197963.0874   21197962.1524
    521551.15144    406403.44544  21510425.7714   21510425.4764
    690526.211 4    538072.499 4  22074709.329    22074708.289
    633437.41144    493587.71544  22868186.4854   22868187.2634
    722540.43944    563018.47644  24879722.1574
 96  2 29  0 40 30.0000000  0  8G 5G24G 4G 9G 7G12G 2G26
   -911134.67444   -709974.24544  23758748.3714   23758749.3844
   -919829.82844   -716749.62944  22133288.2494   22133288.8914
   -308012.73744   -240009.23644  20714165.8774   20714164.9534
   -352910.11744   -274994.86744  21192370.3134   21192369.7064
    580178.37144    452086.98644  21521581.9994   21521581.5144
    761632.190 4    593479.738 4  22088240.405    22088239.414
    698171.07044    544029.49444  22880504.1464   22880505.1604
    794802.03044                  24893470.5884
 96  2 29  0 41  0.0000000  0  8G 5G24G 4G 9G 7G12G 2G26
   -993916.80744   -774479.77644  23742995.4534   23742997.2454
  -1010123.96844   -787108.66744  22116106.0404   22116106.5994
   -335706.38744   -261588.69244  20708895.7444   20708894.8984
   -381770.20344   -297483.23944  21186878.4004   21186877.7964
    638975.36544    497902.82744  21532770.3264   21532770.3924
    833117.655 4    649182.677 4  22101843.737    22101842.565
    763163.33344    594672.77944  22892872.0104   22892872.3424
    867032.34744                  24907215.9204
 96  2 29  0 41 30.0000000  0  8G 5G24G 4G 9G 7G12G 2G26
  -1076710.09444   -838994.00644  23727241.2104   23727242.9384
  -1100096.92244   -857217.43344  22098984.8024   22098985.6644
   -362817.34744   -282714.10244  20703736.5634   20703735.7834
   -410123.73544   -319576.89644  21181483.1284   21181482.3924
    697918.72844    543832.71244  21543987.1304   21543986.7384
    904951.643 4    705157.193 4  22115513.191    22115512.061
    828387.64044    645496.88744  22905284.6134   22905285.5194
    939196.05744    731842.00844  24920951.6194   24920953.3644
 96  2 29  0 42  0.0000000  0  8G 5G24G 4G 9G 7G12G 2G26
  -1159513.71544   -903516.28544  23711484.3594   23711485.5304
  -1189761.97244   -927086.27544  22081922.2614   22081922.6774
   -389350.15744   -303389.00544  20698687.7704   20698686.7464
   -437972.82644   -341277.48844  21176183.1984   21176182.4864
    757005.01644    589873.97344  21555231.2124   21555230.7744
    977129.754 4    761399.856 4  22129248.152    22129247.019
    893840.86944    696499.36544  22917739.1404   22917739.5474
   1011290.01844    788018.87844  24934671.9764   24934667.7994
 96  2 29  0 42 30.0000000  0  8G 5G24G 4G 9G 7G12G 2G26
  -1242344.06444   -968059.35244  23695722.5534   23695723.7554
  -1279137.70744   -996729.68244  22064913.8904   22064914.7484
   -415305.85044   -323614.20744  20693748.4924   20693747.5414
   -465320.85944   -362587.63844  21170979.3484   21170978.5454
    816204.47444    636003.41644  21566495.9304   21566496.0314
   1049642.382 4    817903.182 4  22143047.136    22143045.795
    959514.98644    747673.95644  22930236.8444   22930236.9344
   1083312.43344    844140.28444  24948376.8564   24948376.0474
 96  2 29  0 43  0.0000000  0  8G 5G24G 4G 9G 7G12G 2G26
  -1325213.35044  -1032632.77344  23679953.3474   23679953.2444
  -1368215.61044  -1066141.00844  22047963.6014   22047964.3364
   -440673.26344   -343381.01144  20688921.1554   20688920.0954
   -492146.94044   -383491.08044  21165874.7874   21165873.6904
    875512.73644    682217.62644  21577781.9314   21577782.0524
   1122499.266 4    874674.761 4  22156911.322    22156910.036
   1025428.48544    799035.08744  22942779.7404   22942780.5444
   1155289.97544    900226.68844  24962073.0224   24962073.6894
 96  2 29  0 43 30.0000000  0  8G 5G24G 4G 9G 7G12G 2G26
  -1408093.50544  -1097214.65744  23664181.8834   23664182.1134
  -1456970.31444  -1135300.49144  22031073.9014   22031075.3254
   -465443.23444   -362682.27544  20684207.3914   20684206.7464
   -518405.44144   -403952.24544  21160877.4964   21160876.8264
    934964.43844    728543.62844  21589095.4354   21589095.1174
   1195729.193 4    931737.023 4  22170846.508    22170845.245
   1091610.46844    850605.42044  22955374.2314   22955375.9094
   1227258.98544    956306.41944  24975766.4284   24975765.9434
 96  2 29  0 44  0.0000000  0  8G 5G24G 4G 9G 7G12G 2G26
  -1490984.66444  -1161805.12644  23648407.4474   23648406.3534
  -1545424.83044  -1204226.06144  22014241.3884   22014242.2814
   -489620.07344   -381521.35744  20679606.9074   20679605.9754
   -544095.91044   -423970.78744  21155988.7884   21155988.2344
    994528.66244    774957.30944  21600430.3584   21600430.1724
   1269318.856 4    989079.602 4  22184850.205    22184848.894
   1158051.18844    902377.38944  22968017.1174   22968017.1894
   1299204.82744   1012368.05344  24989454.9394
 96  2 29  0 44 30.0000000  0  8G 5G24G 4G 9G 7G12G 2G26
  -1573880.76244  -1226399.44944  23632632.9674   23632633.2494
  -1633575.75344  -1272915.06244  21997466.6234   21997467.5754
   -513212.20344   -399904.82244  20675117.4984   20675116.4064
   -569224.29644   -443551.35144  21151207.1694   21151206.1214
   1054191.24744    821447.63644  21611784.0684   21611783.8824
   1343263.494 4   1046698.781 4  22198921.390    22198920.191
   1224743.70044    954345.54644  22980708.1134   22980708.8204
   1371127.33844   1068411.54244  25003141.2424
 96  2 29  0 45  0.0000000  0  8G 5G24G 4G 9G 7G12G 2G26
  -1656737.18144  -1290962.81944  23616864.8954   23616866.2644
  -1721378.62544  -1341332.85344  21980758.2634   21980759.1264
   -536221.59144   -417834.20344  20670738.9794   20670737.9944
   -593776.39844   -462682.86044  21146535.0514   21146534.2094
   1113967.58044    868026.59744  21623158.5354   21623158.1854
   1417583.494 4   1104610.452 4  22213064.053    22213062.977
   1291701.47544   1006520.40044  22993450.2684   22993451.5174
   1443036.26144   1124444.39444  25016829.7004   25016828.6884
 96  2 29  0 45 30.0000000  0  8G 5G24G 4G 9G 7G12G 2G26
  -1739540.31844  -1355484.69944  23601108.7994   23601109.7844
  -1808828.38044  -1409475.49644  21964117.2304   21964117.9244
   -558650.68844   -435311.40844  20666471.1014   20666469.8874
   -617766.43944   -481376.40144  21141969.8614   21141969.2184
   1173855.99244    914692.89344  21634555.2074   21634554.8054
   1492272.256 4   1162809.468 4  22227276.795    22227275.621
   1358912.40144   1058892.51844  23006239.8454   23006240.7604
   1514909.16344   1180449.24444  25030506.6974   25030507.8064
 96  2 29  0 46  0.0000000  0  8G 5G24G 4G 9G 7G12G 2G26
  -1822301.52044  -1419973.88244  23585360.3084   23585360.0494
  -1895932.76044  -1477349.01044  21947541.9484   21947542.8844
   -580493.16344   -452331.50844  20662314.3894   20662313.3864
   -641212.07944   -499645.72544  21137508.1524   21137507.7654
   1233844.55744    961437.22744  21645970.8784   21645970.5204
   1567317.453 4   1221286.226 4  22241557.363    22241556.308
   1426368.38844   1111455.60644  23019076.1214   23019077.1504
   1586724.61944   1236409.32544  25044172.6744
 96  2 29  0 46 30.0000000  0  8G 5G24G 4G 9G 7G12G 2G26
  -1905023.32444  -1484432.36944  23569617.8784   23569616.5964
  -1982676.61844  -1544941.60144  21931035.4544   21931035.9284
   -601739.72444   -468887.25744  20658271.0614   20658270.3214
   -664111.98044   -517489.80344  21133150.7684   21133149.7914
   1293968.16744   1008286.78844  21657411.8504   21657411.4014
   1642732.170 4   1280050.925 4  22255908.322    22255907.253
   1494085.37944   1164222.06344  23031962.0644   23031963.9664
   1658504.15444   1292341.44544  25057829.4074
 96  2 29  0 47  0.0000000  0  8G 5G24G 4G 9G 7G12G 2G26
  -1987753.39344  -1548897.31544  23553876.3774   23553876.9084
  -2069079.70144  -1612268.65644  21914593.7414   21914594.1084
   -622397.59444   -484984.28544  20654340.1934   20654339.1974
   -686473.88544   -534914.65944  21128895.5124   21128894.8944
   1354217.07544   1055233.99044  21668876.6144   21668876.4744
   1718496.061 4   1339087.705 4  22270325.790    22270324.382
   1562058.17644   1217187.87944  23044896.7684   23044897.3354
   1730215.69044                  25071473.1844
 96  2 29  0 47 30.0000000  0  8G 5G24G 4G 9G 7G12G 2G26
  -2070520.60944  -1613391.21244  23538126.2544   23538125.4474
  -2155158.95344  -1679343.36744  21898212.8924   21898213.2964
   -642455.23244   -500613.60044  20650523.4904   20650522.7824
   -708305.84444   -551926.57844  21124740.6904   21124739.8734
   1414589.55244   1102277.48444  21680365.3104   21680365.1004
   1794596.391 4   1398386.642 4  22284807.289    22284805.863
   1630286.46044   1270352.73944  23057880.1254   23057879.9154
   1801845.41544   1404035.90144  25085106.6614
 96  2 29  0 48  0.0000000  0  8G 5G24G 4G 9G 7G12G 2G26
  -2153321.75544  -1677911.53544  23522369.8244   23522370.0254
  -2240908.44144  -1746161.12744  21881895.4534   21881895.9314
   -661913.43744   -515775.82344  20646820.3974   20646819.3594
   -729597.05544   -568517.13544  21120689.3504   21120688.4494
   1475085.56744   1149417.23044  21691877.2474   21691876.5324
   1871037.101 4   1457950.809 4  22299353.525    22299352.165
   1698769.21044   1323715.88144  23070912.4434   23070913.8434
   1873409.30444   1459799.93044  25098727.1214   25098731.3474
 96  2 29  0 48 30.0000000  0  8G 5G24G 4G 9G 7G12G 2G26
  -2236130.33344  -1742437.61944  23506611.8604   23506611.2124
  -2326299.97144  -1812699.94244  21865645.8894   21865646.9794
   -680762.24944   -530463.19844  20643233.8064   20643232.6914
   -750329.76844   -584672.48944  21116743.9134   21116742.9284
   1535729.37344   1196672.14144  21703417.6054   21703417.6794
   1947839.372 4   1517796.714 4  22313968.566    22313967.072
   1767535.05544   1377299.60044  23083998.0184   23083999.0134
   1944927.34844   1515528.21944  25112335.8084   25112337.6724
 96  2 29  0 49  0.0000000  0  8G 5G24G 4G 9G 7G12G 2G26
  -2318929.78144  -1806956.64244  23490856.4934   23490855.7324
  -2411305.44744  -1878937.94844  21849469.7074   21849470.5144
   -698999.45044   -544673.99044  20639763.1424   20639762.1074
   -770489.59344   -600381.44844  21112907.6214   21112906.4764
   1596510.11144   1244033.76144  21714983.5644   21714983.8574
   2025003.120 4   1577924.289 4  22328652.249    22328650.865
   1836582.52044   1431102.78244  23097137.6554   23097140.0854
   2016389.92544   1571213.34944  25125936.0924   25125935.5994
 96  2 29  0 49 30.0000000  0  8G 5G24G 4G 9G 7G12G 2G26
  -2401702.54444  -1871454.88244  23475103.9834   23475103.1224
  -2495935.94644  -1944883.75144  21833365.0394   21833365.9474
   -716644.64944   -558423.48144  20636405.6014   20636404.7974
   -790087.12244   -615652.24444  21109178.2334   21109177.4324
   1657413.97844   1291491.31644  21726572.9944   21726572.7504
   2102512.199 4   1638320.954 4  22343401.866    22343400.383
   1905881.92344   1485102.28744  23110324.6274   23110325.8424
   2087797.87444   1626855.91944  25139522.1894
 96  2 29  0 50  0.0000000  0  8G 5G24G 4G 9G 7G12G 2G26
  -2484456.22844  -1935938.25544  23459354.9274   23459355.3304
  -2580213.53644  -2010554.56544  21817327.4824   21817328.2974
   -733714.26144   -571724.46444  20633157.2214   20633156.3404
   -809131.87944   -630492.31144  21105554.2034   21105553.5334
   1718432.42244   1339038.16044  21738184.8844   21738184.4504
   2180350.805 4   1698974.394 4  22358213.957    22358212.640
   1975418.29144   1539286.43844  23123557.8274   23123558.8664
   2159151.17744                  25153097.2674
 96  2 29  0 50 30.0000000  0  8G 5G24G 4G 9G 7G12G 2G26
  -2567204.05744  -2000416.99344  23443608.5724   23443611.0024
  -2664157.43844  -2075965.36644  21801353.1314   21801353.9294
   -750207.83844   -584576.59044  20630018.7504   20630017.4464
   -827634.62144   -644910.02544  21102033.1794   21102032.7864
   1779553.13344   1386664.67944  21749815.2274   21749815.5614
   2258502.703 4   1759871.954 4  22373085.754    22373084.258
   2045180.69644   1593646.70844  23136832.4754   23136833.2554
   2230422.25444   1737991.67744  25166660.4154
 96  2 29  0 51  0.0000000  0  8G 5G24G 4G 9G 7G12G 2G26
  -2649933.36244  -2064881.32844  23427865.9824   23427866.1034
  -2747764.76144  -2141113.88944  21785443.7174   21785444.2754
   -766115.34644   -596972.04044  20626991.7404   20626990.8284
   -845585.55044   -658897.75844  21098617.1844   21098616.7224
   1840775.84744   1434370.68744  21761465.5424   21761466.3474
   2336976.630 4   1821020.446 4  22388018.814    22388017.409
   2115169.46744   1648183.37844  23150150.7944   23150151.2524
   2301618.94544   1793469.61144  25180213.2564   25180214.8454
 96  2 29  0 51 30.0000000  0  8G 5G24G 4G 9G 7G12G 2G26
  -2732628.51444  -2129319.09344  23412129.9294   23412129.5394
  -2831041.84744  -2206005.09644  21769596.4494   21769596.8244
   -781427.60944   -608903.65844  20624077.7114   20624076.6014
   -862982.22144   -672453.60644  21095307.1194   21095306.3544
   1902110.40144   1482163.83944  21773137.3964   21773137.4804
   2415786.056 4   1882430.368 4  22403015.961    22403014.514
   2185399.98544   1702908.42644  23163515.0334   23163514.6794
   2372749.35844   1848895.89944  25193750.4354   25193749.8314
 96  2 29  0 52  0.0000000  0  8G 5G24G 4G 9G 7G12G 2G26
  -2815294.72944  -2193734.22544  23396399.4124   23396399.0934
  -2913976.96144  -2270629.82944  21753814.5054   21753814.9534
   -796135.70944   -620364.50644  20621278.8584   20621278.0044
   -879830.52444   -685582.14644  21092100.6244   21092099.6404
   1963562.94844   1530048.93944  21784831.3344   21784830.9204
   2494942.466 4   1944110.662 4  22418078.974    22418077.443
   2255889.84944   1757835.56544  23176928.8644   23176929.7814
   2443808.33744   1904266.49844  25207271.6944   25207270.3164
 96  2 29  0 52 30.0000000  0  8G 5G24G 4G 9G 7G12G 2G26
  -2897940.66544  -2258133.74844  23380671.4494   23380673.6174
  -2996559.92844  -2334980.15844  21738099.3974   21738099.3554
   -810265.22844   -631374.50744  20618589.8114   20618588.7694
   -896143.78244   -698293.78144  21088996.3464   21088995.0994
   2025106.57844   1578005.01144  21796542.5284   21796542.4064
   2574436.685 4   2006054.184 4  22433206.038    22433204.731
   2326628.13544   1812956.29444  23190390.9134   23190391.0094
   2514770.36344   1959561.73344  25220771.9204   25220775.0354
 96  2 29  0 53  0.0000000  0  8G 5G24G 4G 9G 7G12G 2G26
  -2980560.83744  -2322512.99244  23364950.0334   23364951.3034
  -3078759.52444  -2399031.76244  21722457.2164   21722457.7894
   -823816.56844   -641933.98144  20616011.4084   20616010.2734
   -911902.50844   -710573.30144  21085997.6764   21085996.8544
   2086748.32544   1626037.53944  21808272.7584   21808272.3014
   2654281.565 4   2068270.951 4  22448400.091    22448398.873
   2397619.92644   1868274.53744  23203899.0284   23203900.7414
   2585652.48844   2014794.28544  25234255.7194
 96  2 29  0 53 30.0000000  0  8G 5G24G 4G 9G 7G12G 2G26
  -3063155.56244  -2386872.46644  23349232.8644   23349231.8724
  -3160561.33544  -2462773.39844  21706890.9894   21706891.4714
   -836776.10044   -652032.31144  20613544.7994   20613544.0894
   -927094.90444   -722411.53244  21083106.6204   21083105.8804
   2148498.44744   1674154.51244  21820023.3324   21820023.1104
   2734478.559 4   2130762.089 4  22463661.153    22463659.847
   2468860.60344   1923786.72744  23217456.8294   23217457.5384
   2656466.70844   2069974.12544  25247735.1874   25247738.3854
 96  2 29  0 54  0.0000000  0  8G 5G24G 4G 9G 7G12G 2G26
  -3145748.76144  -2451230.76444  23333516.7894   23333515.3504
  -3241971.72844  -2526210.04444  21691399.0484   21691399.8444
   -849151.58144   -661675.53044  20611190.2144   20611189.0804
   -941735.96944   -733820.15144  21080320.6254   21080320.0874
   2210335.58544   1722339.29444  21831790.6084   21831790.5194
   2815007.331 4   2193511.756 4  22478985.414    22478983.966
   2540335.29144   1979481.26144  23231057.4884   23231059.0804
   2727198.75444   2125089.97444  25261197.9694   25261198.6344
 96  2 29  0 54 30.0000000  0  8G 5G24G 4G 9G 7G12G 2G26
  -3228319.08544  -2515571.25644  23317803.2554   23317802.6224
  -3322969.13044  -2589324.86444  21675985.4064   21675986.5374
   -860923.17844   -670848.19544  20608950.1044   20608949.3204
   -955793.39444   -744773.98944  21077645.6804   21077644.9514
   2272265.84744   1770596.64144  21843575.4374   21843575.8094
   2895876.259 4   2256526.483 4  22494374.133    22494372.660
   2612053.83344   2035365.81144  23244704.2734   23244705.9814
   2797859.34144   2180150.14244  25274645.8724   25274639.6824
 96  2 29  0 55  0.0000000  0  8G 5G24G 4G 9G 7G12G 2G26
  -3310879.21944  -2579903.78344  23302092.6754   23302093.2664
  -3403589.76944  -2652146.11344  21660643.9794   21660644.6834
   -872089.89844   -679549.52444  20606825.4484   20606824.4144
   -969280.52544   -755283.44044  21075078.6424   21075077.8344
   2334280.68744   1818919.90044  21855376.6384   21855376.4674
   2977061.596 4   2319787.761 4  22509823.287    22509821.712
   2683994.64944   2091423.56444  23258395.0884   23258394.9154
   2868425.90244   2235137.11144  25288073.9774
 96  2 29  0 55 30.0000000  0  8G 5G24G 4G 9G 7G12G 2G26
  -3393414.43244  -2644216.89844  23286386.8634   23286387.3144
  -3483847.92944  -2714684.89644  21645371.1584   21645371.9634
   -882649.05344   -687777.42644  20604815.9104   20604814.6604
   -982204.81644   -765354.31244  21072619.4714   21072618.5584
   2396384.74944   1867312.67844  21867194.6894   21867194.2314
   3058563.206 4   2383295.489 4  22525332.581    22525331.204
   2756174.80544   2147667.80244  23272130.9824   23272131.4084
   2938883.75744                  25301480.6444
 96  2 29  0 56  0.0000000  0  8G 5G24G 4G 9G 7G12G 2G26
  -3475899.95344  -2708491.29444  23270690.4074   23270691.0384
  -3563719.59444  -2776922.53544  21630172.1534   21630172.6324
   -892589.61344   -695523.30744  20602924.3254   20602923.3214
   -994537.32244   -774964.05844  21070273.0494   21070272.1514
   2458600.62644   1915792.57644  21879033.8844   21879033.9804
   3140402.354 4   2447066.227 4  22540906.141    22540904.727
   2828616.74844   2204116.05544  23285915.2194   23285914.5954
   3009227.89144                  25314860.2414
 96  2 29  0 56 30.0000000  0  8G 5G24G 4G 9G 7G12G 2G26
  -3558332.34944  -2772724.28544  23255003.6684   23255005.2014
  -3643210.97944  -2838863.84244  21615045.6714   21615045.9784
   -901922.53144   -702795.70144  20601148.2934   20601147.0314
  -1006272.97444   -784108.72244  21068039.7854   21068038.8844
   2520938.64644   1964367.66244  21890896.4854   21890896.1844
   3222578.803 4   2511099.796 4  22556543.813    22556542.349
   2901304.64244   2260755.96744  23299747.8134   23299749.9684
   3079453.14344   2399573.71744  25328226.5234
 96  2 29  0 57  0.0000000  0  8G 5G24G 4G 9G 7G12G 2G26
  -3640701.49644  -2836908.00444  23239330.0654   23239329.9304
  -3722312.52944  -2900501.38744  21599992.9914   21599993.4444
   -910654.58344   -709599.88644  20599486.4434   20599485.3744
  -1017421.29744   -792795.72644  21065918.3664   21065917.6404
   2583407.22944   2013044.48144  21902784.1914   21902783.8774
   3305101.555 4   2575403.220 4  22572247.339    22572246.020
   2974249.13944   2317595.79944  23313629.0224   23313627.8974
   3149562.04944   2454204.02544  25341573.0564   25341573.3334
 96  2 29  0 57 30.0000000  0  8G 5G24G 4G 9G 7G12G 2G26
  -3723027.81844  -2901058.36444  23223663.8374   23223663.2964
  -3801014.67544  -2961827.70844  21585016.6884   21585016.9114
   -918805.80844   -715951.47744  20597935.4194   20597934.2014
  -1028010.70144   -801047.20844  21063903.1494   21063902.1754
   2645988.55244   2061809.14944  21914692.6684   21914692.3354
   3387956.957 4   2639965.847 4  22588014.305    22588012.791
   3047439.15944   2374626.97844  23327555.7124   23327556.5624
   3219545.42844   2508736.48944  25354891.8244
 96  2 29  0 58  0.0000000  0  8G 5G24G 4G 9G 7G12G 2G26
  -3805326.13744  -2965186.90744  23208002.2044   23208002.7824
  -3879320.64344  -3022845.31444  21570115.4544   21570116.0494
   -926374.17144   -721848.89044  20596495.3234   20596494.3154
  -1038050.73344   -808870.61144  21061992.3994   21061991.8254
   2708664.44944   2110647.51644  21926619.5344   21926619.4184
   3471133.855 4   2704778.992 4  22603842.206    22603840.851
   3120869.22844   2431845.18444  23341529.3494   23341528.4144
   3289418.62944                  25368188.1894
 96  2 29  0 58 30.0000000  0  8G 5G24G 4G 9G 7G12G 2G26
  -3887560.83044  -3029265.83844  23192353.5974   23192354.0864
  -3957190.37644  -3083523.00244  21555297.0064   21555297.5934
   -933316.57044   -727258.54044  20595174.1344   20595172.9534
  -1047519.41744   -816248.80644  21060190.4424   21060189.7834
   2771460.10944   2159579.19744  21938568.8034   21938568.6914
   3554665.175 4   2769868.307 4  22619737.672    22619736.421
   3194589.74644   2489289.71844  23355558.5004   23355558.3504
   3359230.73044                  25381471.7194
 96  2 29  0 59  0.0000000  0  7G 5G24G 4G 9G 7G12G 2
  -3969791.71544  -3093341.80944  23176705.9184   23176705.5524
  -4034674.51744  -3143900.22744  21540552.6124   21540553.1324
   -939679.36344   -732216.55044  20593963.3964   20593962.5164
  -1056475.68244   -823227.72144  21058486.1014   21058485.4894
   2834314.17644   2208556.39344  21950529.7014   21950530.3234
   3638492.929 4   2835188.615 4  22635689.606    22635688.385
   3268555.50244   2546925.34544  23369633.1404   23369632.6134
 96  2 29  0 59 30.0000000  0  7G 5G24G 4G 9G 7G12G 2
  -4052027.72444  -3157421.80644  23161056.5614   23161056.5344
  -4111779.05344  -3203981.66544  21525879.5144   21525879.9924
   -945446.10644   -736710.10144  20592865.9274   20592864.8684
  -1064889.43844   -829783.89644  21056885.2044   21056884.2394
   2897230.28644   2257581.92844  21962502.5974   21962502.0934
   3722620.707 4   2900742.702 4  22651698.615    22651697.310
   3342767.34844   2604752.72644  23383754.8194   23383756.0764
 96  2 29  1  0  0.0000000  0  8G 5G24G 4G 9G 7G12G 2G26
  -4134227.51244  -3221473.56444  23145414.5394   23145414.3704
  -4188485.34744  -3263752.78144  21511283.1764   21511284.0734
   -950589.93444   -740718.26544  20591887.3714   20591886.1074
  -1072704.30044   -835873.40044  21055398.2964   21055397.5714
   2960251.28344   2306689.19844  21974495.0454   21974494.7434
   3807086.131 4   2966559.891 4  22667771.796    22667770.550
   3417260.42644   2662799.24244  23397931.0244   23397931.3244
        -0.60154                  25421206.5194
 96  2 29  1  0 30.0000000  0  8G 5G24G 4G 9G 7G12G 2G26
  -4216429.76644  -3285527.22444  23129771.8894   23129771.8264
  -4264824.35144  -3323237.69944  21496756.3074   21496756.4314
   -955151.62144   -744272.81344  20591018.8934   20591018.1634
  -1079952.41144   -841521.28044  21054018.6304   21054018.1424
   3023357.29944   2355862.71944  21986503.8824   21986503.4444
   3891848.581 4   3032608.539 4  22683901.560    22683900.435
   3491979.79344   2721022.11444  23412149.8484   23412151.0664
     69353.77844                  25434403.3044
 96  2 29  1  1  0.0000000  0  8G 5G24G 4G 9G 7G12G 2G26
  -4298633.93744  -3349582.38144  23114129.0274   23114129.3964
  -4340801.50044  -3382440.64844  21482298.3284   21482298.6044
   -959126.99844   -747370.49744  20590262.6614   20590261.4314
  -1086619.07944   -846716.09144  21052750.1194   21052749.5684
   3086549.93744   2405103.73544  21998528.7024   21998528.3374
   3976906.957 4   3098887.772 4  22700087.709    22700086.281
   3566919.71344   2779416.83244  23426410.6914   23426411.4644
    138552.69944    107963.75744  25447570.3644
 96  2 29  1  1 30.0000000  0  7G 5G24G 4G 9G 7G12G 2
  -4380787.60644  -3413598.20944  23098495.3454   23098494.2034
  -4416369.01644  -3441324.40744  21467918.3074   21467918.7314
   -962484.61444   -749986.81044  20589623.4884   20589622.3594
  -1092673.07244   -851433.49044  21051597.8154   21051597.1684
   3149861.79944   2454437.64944  22010576.8834   22010576.8374
   4062292.981 4   3165422.312 4  22716336.250    22716334.680
   3642124.68344   2838018.09144  23440721.6494   23440722.8014
 96  2 29  1  2  0.0000000  0  7G 5G24G 4G 9G 7G12G 2
  -4462890.06444  -3477574.13044  23082871.3854   23082871.6964
  -4491521.59544  -3499884.83444  21453617.2554   21453617.6864
   -965242.39044   -752135.71444  20589098.6664   20589097.6524
  -1098164.51944   -855712.54744  21050553.2324   21050552.3654
   3213265.19444   2503842.88244  22022642.0524   22022641.8024
   4147980.581 4   3232191.849 4  22732642.014    22732640.749
   3717580.91944   2896815.12344  23455080.3754   23455082.2184
 96  2 29  1  2 30.0000000  0  7G 5G24G 4G 9G 7G12G 2
  -4544940.70644  -3541509.67444  23067257.7704   23067257.9094
  -4566241.14944  -3558107.84244  21439398.9504   21439399.4914
   -967399.87444   -753816.85644  20588688.2184   20588687.2334
  -1103109.81044   -859566.02544  21049612.0744   21049611.2664
   3276747.15944   2553309.35144  22034722.2424   22034721.7584
   4233966.579 4   3299193.900 4  22749004.625    22749003.267
   3793285.94544   2955806.03444  23469486.0974   23469487.3674
 96  2 29  1  3  0.0000000  0  7G 5G24G 4G 9G 7G12G 2
  -4626881.44044  -3605359.56444  23051665.6974   23051665.9974
  -4640478.29144  -3615954.94344  21425271.8564   21425272.3604
   -968930.85044   -755009.81144  20588396.6174   20588395.5394
  -1107474.21044   -862966.86144  21048781.6664   21048780.9974
   3340337.39044   2602860.17444  22046822.9634   22046822.3644
   4320300.692 4   3366467.207 4  22765433.531    22765431.956
   3869303.65744   3015040.56344  23483951.8304   23483952.1104
 96  2 29  1  3 30.0000000  0  7G 5G24G 4G 9G 7G12G 2
  -4708735.63044  -3669142.01044  23036089.3354   23036089.0324
  -4714260.81944  -3673447.80144  21411231.6054   21411231.8484
   -969873.37944   -755744.24344  20588217.5354   20588216.5564
  -1111301.23744   -865948.95844  21048053.2514   21048052.7474
   3404016.34844   2652480.14344  22058941.0024   22058940.4794
   4406956.187 4   3433990.944 4  22781923.543    22781922.055
   3945600.27744   3074492.45044  23498471.0694   23498471.4274
 96  2 29  1  4  0.0000000  0  7G 5G24G 4G 9G 7G12G 2
  -4790575.58144  -3732913.35944  23020515.6054   23020514.9774
  -4787668.59644  -3730648.64544  21397262.4134   21397262.9574
   -970280.46044   -756061.43744  20588140.1124   20588139.1704
  -1114642.44044   -868552.49744  21047417.2604   21047416.5944
   3467729.08144   2702126.43144  22071065.0594   22071064.5144
   4493878.616 4   3501722.684 4  22798464.417    22798462.909
   4022103.44444   3134105.29744  23513029.8074   23513030.8184
 96  2 29  1  4 30.0000000  0  7G 5G24G 4G 9G 7G12G 2
  -4872388.47444  -3796663.63244  23004947.6684   23004946.4634
  -4860702.47844  -3787558.14744  21383364.2974   21383364.7474
   -970136.58644   -755949.32244  20588167.4444   20588166.2604
  -1117460.46244   -870748.36144  21046881.3804   21046880.8734
   3531509.05044   2751825.11244  22083201.8924   22083201.2884
   4581090.018 4   3569679.597 4  22815060.110    22815058.625
   4098824.00444   3193887.53644  23527628.9494   23527630.1294
 96  2 29  1  5  0.0000000  0  7G 5G24G 4G 9G 7G12G 2
  -4954161.54444  -3860382.89144  22989385.7244   22989385.2664
  -4933358.96844  -3844173.57544  21369538.6454   21369539.0814
   -969418.73644   -755389.95044  20588303.8794   20588302.4954
  -1119728.99144   -872516.04844  21046449.5844   21046448.9234
   3595369.48244   2801586.49544  22095354.2274   22095353.5094
   4668599.203 4   3637868.554 4  22831712.466    22831711.146
   4175768.95044   3253844.59644  23542271.1304   23542271.6884
 96  2 29  1  5 30.0000000  0  7G 5G24G 4G 9G 7G12G 2
  -5035900.82344  -3924075.80944  22973831.1274   22973831.6644
  -5005645.53644  -3900500.75444  21355782.9794   21355783.4474
   -968104.35644   -754365.74944  20588553.9474   20588552.8304
  -1121436.48944   -873846.57044  21046124.7764   21046124.1584
   3659303.75944   2851405.41144  22107519.9054   22107520.3004
   4756398.346 4   3706283.450 4  22848419.953    22848419.013
   4252915.62444   3313958.86544  23556951.7284   23556950.8334
 96  2 29  1  6  0.0000000  0  7G 5G24G 4G 9G 7G12G 2
  -5117598.04144  -3987735.93644  22958284.6144   22958285.4144
  -5077539.39144  -3956521.91544  21342101.6934   21342102.2224
   -966183.99844   -752869.35744  20588919.4914   20588918.1924
  -1122564.13644   -874725.26444  21045910.0174   21045908.9724
   3723311.82344   2901281.82544  22119699.8044   22119700.7974
   4844490.678 4   3774926.813 4  22865183.579    22865182.454
   4330271.12544   3374235.86444  23571672.4634   23571673.9284
 96  2 29  1  6 30.0000000  0  7G 5G24G 4G 9G 7G12G 2
  -5199246.92744  -4051358.41444  22942747.3044   22942746.9124
  -5149012.82444  -4012215.48744  21328500.8404   21328501.3554
   -963665.93244   -750907.21944  20589398.7534   20589397.3524
  -1123097.88544   -875141.17744  21045808.1994   21045807.6274
   3787393.74744   2951215.77744  22131895.1714   22131894.8154
   4932879.330 4   3843801.065 4  22882003.441    22882002.097
   4407844.82344   3434682.87544  23586433.3904   23586436.2424
 96  2 29  1  7  0.0000000  0  7G 5G24G 4G 9G 7G12G 2
  -5280832.90244  -4114931.86444  22927222.1514   22927222.1494
  -5220034.14344  -4067556.75044  21314986.1154   21314986.4164
   -960544.03644   -748474.56044  20589992.8844   20589991.7924
  -1123019.37744   -875080.00544  21045823.4044   21045822.2194
   3851551.33244   3001208.70344  22144104.0454   22144103.5474
   5021576.324 4   3912915.593 4  22898881.943    22898880.672
   4485657.55544   3495316.14544  23601239.6274   23601238.4404
 96  2 29  1  7 30.0000000  0  7G 5G24G 4G 9G 7G12G 2
  -5362365.32544  -4178463.59344  22911707.2264   22911707.2124
  -5290599.27244  -4122542.54644  21301557.9584   21301558.3614
   -956834.75244   -745584.19844  20590698.6974   20590697.3134
  -1122339.90144   -874550.55044  21045953.0694   21045952.1734
   3915777.41944   3051255.00444  22156325.4894   22156325.0404
   5110572.531 4   3982263.260 4  22915817.273    22915816.092
   4563711.45244   3556137.33244  23616092.7924   23616094.3544
 96  2 29  1  8  0.0000000  0  7G 5G24G 4G 9G 7G12G 2
  -5443842.27044  -4241952.08544  22896203.2604   22896202.9844
  -5360691.63744  -4177159.94944  21288219.8354   21288220.1424
   -952554.89544   -742249.23144  20591513.2324   20591512.3204
  -1121052.96844   -873547.74944  21046197.5614   21046196.7034
   3980086.63544   3101366.08844  22168563.1884   22168562.7904
   5199871.253 4   4051846.659 4  22932810.198    22932809.060
   4642027.06244   3617162.48544  23630996.7084   23630997.9574
 96  2 29  1  8 30.0000000  0  7G 5G24G 4G 9G 7G12G 2
  -5525264.74444  -4305398.12544  22880708.6484   22880708.8814
  -5430320.31244  -4231416.04444  21274969.8954   21274970.2234
   -947715.71444   -738478.42944  20592433.9414   20592432.8284
  -1119162.14544   -872074.38244  21046557.8264   21046557.2034
   4044470.46644   3151535.30644  22180815.2334   22180814.7474
   5289464.598 4   4121659.639 4  22949859.252    22949858.112
   4720602.99644   3678390.46044  23645949.6184   23645949.6864
 96  2 29  1  9  0.0000000  0  7G 5G24G 4G 9G 7G12G 2
  -5606622.02344  -4368793.36844  22865227.5454   22865226.6074
  -5499484.38044  -4285310.10444  21261808.3804   21261808.5464
   -942302.89344   -734260.63444  20593463.8644   20593462.7404
  -1116681.24244   -870141.21744  21047029.6174   21047028.7714
   4108933.19144   3201766.00944  22193082.0324   22193082.3614
   5379348.468 4   4191698.999 4  22966963.632    22966962.417
   4799436.37044   3739819.02344  23660952.2454   23660951.1534
 96  2 29  1  9 30.0000000  0  7G 5G24G 4G 9G 7G12G 2
  -5687923.95844  -4432145.50844  22849755.5834   22849755.5764
  -5568204.51344  -4338858.23644  21248731.1764   21248731.4144
   -936304.55744   -729586.59544  20594605.2854   20594603.9934
  -1113637.94944   -867769.82744  21047608.8834   21047608.0154
   4173476.01144   3252059.11544  22205363.5044   22205364.0894
   5469511.900 4   4261956.187 4  22984121.442    22984120.118
   4878506.43144   3801431.98644  23675998.2184   23675997.4164
 96  2 29  1 10  0.0000000  0  7G 5G24G 4G 9G 7G12G 2
  -5769181.78044  -4495463.27044  22834292.2624   22834292.2944
  -5636498.97944  -4392074.68644  21235734.9514   21235735.1264
   -929727.50944   -724461.60944  20595857.0534   20595855.8444
  -1110052.81744   -864976.22144  21048290.8744   21048289.7674
   4238088.62644   3302406.59544  22217658.9914   22217658.4264
   5559941.933 4   4332421.121 4  23001329.694    23001328.279
   4957787.95944   3863209.81144  23691084.2634   23691086.2964
 96  2 29  1 10 30.0000000  0  7G 5G24G 4G 9G 7G12G 2
  -5850428.94444  -4558772.70844  22818831.6474   22818831.8064
  -5704406.88244  -4444989.92044  21222812.5944   21222813.1204
   -922575.27144   -718888.42244  20597217.8074   20597216.7004
  -1105970.19644   -861794.96044  21049067.9814   21049067.2124
   4302729.59044   3352776.17844  22229959.8524   22229959.5364
   5650607.414 4   4403069.518 4  23018582.898    23018581.288
   5037243.94644   3925123.53344  23706204.3594   23706204.7614
 96  2 29  1 11  0.0000000  0  7G 5G24G 4G 9G 7G12G 2
  -5931600.02944  -4622022.86044  22803385.1404   22803385.5824
  -5771860.36144  -4497551.05244  21209976.8854   21209977.2664
   -914763.99444   -712801.70544  20598704.5614   20598703.5614
  -1101333.20844   -858181.72944  21049950.6124   21049949.7724
   4367473.03944   3403225.62044  22242280.8374   22242281.1744
   5741577.496 4   4473955.259 4  23035893.763    23035892.056
   5116946.26244   3987229.21244  23721370.2104
 96  2 29  1 11 30.0000000  0  7G 5G24G 4G 9G 7G12G 2
  -6012725.97444  -4685237.84944  22787947.4914   22787947.3024
  -5838907.96044  -4549795.91644  21197217.9994   21197218.1894
   -906341.19144   -706238.47044  20600307.0894   20600305.9184
  -1096167.53244   -854156.52744  21050933.5424   21050932.6254
   4432275.98244   3453721.42344  22254611.8984   22254611.1974
   5832814.702 4   4545049.149 4  23053255.639    23053254.120
   5196857.03744                  23736576.8084
 96  2 29  1 12  0.0000000  0  7G 5G24G 4G 9G 7G12G 2
  -6093833.36144  -4748438.37444  22772513.2864   22772512.1254
  -5905576.69744  -4601745.56344  21184531.3824   21184531.8074
   -897359.11944   -699239.43844  20602016.3804   20602015.5224
  -1090489.39344   -849732.01244  21052014.1534   21052013.3674
   4497084.44544   3504221.51744  22266944.6714   22266944.7474
   5924283.614 4   4616323.592 4  23070661.672    23070660.065
   5276949.64344                  23751819.2394
 96  2 29  1 12 30.0000000  0  7G 5G24G 4G 9G 7G12G 2
  -6174838.44344  -4811559.18344  22757099.7594   22757099.0844
  -5971789.07544  -4653339.60344  21171931.5964   21171931.7384
   -887740.93244   -691744.73544  20603846.6104   20603845.5654
  -1084223.35444   -844849.38244  21053206.3424   21053205.8184
   4561976.67844   3554786.88944  22279293.5744   22279292.4134
   6016060.741 4   4687838.204 4  23088126.358    23088124.799
   5357307.55444   4174523.65944  23767109.7334
 96  2 29  1 13  0.0000000  0  7G 5G24G 4G 9G 7G12G 2
  -6255711.41344  -4874577.05844  22741709.6644   22741708.4504
  -6037516.27444  -4704555.58744  21159424.1524   21159424.4094
   -877493.53044   -683759.73744  20605796.8964   20605795.7324
  -1077337.84144   -839484.05144  21054516.5784   21054515.8914
   4626986.66644   3605444.02344  22291664.4414   22291663.3214
   6108167.058 4   4759609.334 4  23105653.639    23105652.201
   5437944.16244                  23782455.8414
 96  2 29  1 13 30.0000000  0  7G 5G24G 4G 9G 7G12G 2
  -6336434.88044  -4937478.42044  22726348.2674   22726347.6284
  -6102740.61144  -4755379.72144  21147012.5504   21147012.7234
   -866609.90444   -675278.97944  20607867.8264   20607866.6064
  -1069815.24144   -833622.28944  21055948.0934   21055947.4734
   4692120.60544   3656197.74744  22304058.7774   22304058.2614
   6200618.387 4   4831649.293 4  23123246.552    23123245.058
   5518869.81244                  23797854.6604
 96  2 29  1 14  0.0000000  0  7G 5G24G 4G 9G 7G12G 2
  -6417030.95244  -5000280.52544  22711010.8164   22711010.3104
  -6167459.48744  -4805810.00044  21134697.0434   21134697.0954
   -855106.52644   -666315.29844  20610057.1214   20610055.9014
  -1061680.65544   -827283.65244  21057496.2964   21057495.2444
   4757374.60544   3707045.01744  22316476.2184   22316476.5224
   6293402.427 4   4903948.518 4  23140902.896    23140901.409
   5600075.48244                  23813306.2164
 96  2 29  1 14 30.0000000  0  7G 5G24G 4G 9G 7G12G 2
  -6497500.94744  -5062984.39044  22695697.8914   22695697.5844
  -6231673.10444  -4855846.56744  21122477.2224   21122477.5324
   -843000.76744   -656882.22644  20612360.3594   20612359.1824
  -1052946.26444   -820477.63544  21059158.0164   21059156.9974
   4822752.56144   3757988.88444  22328917.3784   22328917.7854
   6386506.560 4   4976497.168 4  23158620.038    23158618.482
   5681557.26444                  23828811.2074
 96  2 29  1 15  0.0000000  0  7G 5G24G 4G 9G 7G12G 2
  -6577858.78544  -5125600.86144  22680406.3544   22680406.0084
  -6295392.03344  -4905497.65944  21110352.0444   21110352.4144
   -830322.29644   -647002.89144  20614773.1004   20614771.9524
  -1043614.07844   -813205.80744  21060934.0584   21060933.3314
   4888226.72644   3809007.70744  22341376.6094   22341376.5614
   6479912.986 4   5049281.377 4  23176394.790    23176393.265
   5763294.91244                  23844368.0224
 96  2 29  1 15 30.0000000  0  8G 5G24G 4G 9G 7G12G 2G20
  -6658112.05144  -5188135.83544  22665134.9254   22665134.4664
  -6358621.45144  -4954767.31844  21098319.6674   21098320.0194
   -817067.43744   -636674.42044  20617295.5944   20617294.4184
  -1033686.15244   -805469.76144  21062823.0694   21062822.5994
   4953773.87844   3860083.41444  22353849.8314   22353849.3804
   6573605.037 4   5122288.145 4  23194224.006    23194221.948
   5845282.69644                  23859970.4274
        -0.61754                  25205523.0604
 96  2 29  1 16  0.0000000  0  8G 5G24G 4G 9G 7G12G 2G20
  -6738320.71044  -5250636.06444  22649871.4504   22649871.0974
  -6421406.66544  -5003690.84644  21086372.1444   21086372.4184
   -803293.42244   -625941.41544  20619916.4924   20619915.1714
  -1023214.15444   -797309.76744  21064815.9154   21064815.3454
   5019343.68644   3911176.76744  22366326.7324   22366327.1184
   6667518.753 4   5195467.640 4  23212095.030    23212093.221
   5927473.20744                  23875610.1044
    -95366.51144                  25187375.4014
 96  2 29  1 16 30.0000000  0  8G 5G24G 4G 9G 7G12G 2G20
  -6818506.83444  -5313118.73244  22634612.4674   22634611.9434
  -6483764.82144  -5052281.59544  21074505.5644   21074506.0144
   -789011.11544   -614812.33644  20622634.5304   20622633.2224
  -1012216.67644   -788740.30844  21066908.6614   21066908.0944
   5084913.39344   3962270.04144  22378804.0994   22378803.9784
   6761631.471 4   5268802.206 4  23230003.930    23230002.496
   6009856.96144                  23891285.8874
   -190820.97844                  25169212.4014
 96  2 29  1 17  0.0000000  0  8G 5G24G 4G 9G 7G12G 2G20
  -6898681.62944  -5375592.56944  22619355.1844   22619354.6894
  -6545694.64444  -5100538.58344  21062720.7304   21062721.2154
   -774193.58344   -603266.20244  20625454.1004   20625452.9164
  -1000694.92344   -779762.31844  21069101.0024   21069100.5554
   5150487.56844   4013366.79744  22391283.6584   22391283.5534
   6855945.247 4   5342293.442 4  23247951.319    23247949.951
   6092433.67944                  23907000.7874
   -286364.98044                  25151029.8294
 96  2 29  1 17 30.0000000  0  7G 5G24G 4G 9G 7G12G20
  -6978838.24844  -5438052.23744  22604101.8914   22604102.1764
  -6607186.48644  -5148454.28144  21051019.4974   21051019.5634
   -758815.88144   -591283.56844  20628380.2414   20628379.0084
   -988656.06944   -770381.40144  21071392.1844   21071391.5534
   5216085.14044   4064481.79944  22403766.2284   22403765.8444
   6950467.669 4   5415947.251 4  23265938.366    23265936.911
   -382002.61244                  25132829.8124
 96  2 29  1 18  0.0000000  0  7G 5G24G 4G 9G 7G12G20
  -7058997.91644  -5500514.29044  22588848.3644   22588847.9254
  -6668273.71644  -5196054.70044  21039394.6314   21039394.7054
   -742908.29944   -578888.04044  20631406.9924   20631405.8584
   -976140.87944   -760629.30944  21073773.5634   21073772.9714
   5281687.93744   4115600.84844  22416250.0064   22416249.5944
   7045182.398 4   5489750.906 4  23283961.852    23283960.413
   -477760.55244                  25114607.0464
 96  2 29  1 18 30.0000000  0  7G 5G24G 4G 9G 7G12G20
  -7139114.01144  -5562942.38644  22573602.9424   22573602.1624
  -6728936.82344  -5243324.63144  21027851.1414   21027851.4214
   -726436.18244   -566052.61544  20634541.6524   20634540.5274
   -963109.71144   -750475.15644  21076253.4584   21076252.7694
   5347322.22044   4166744.45044  22428739.6654   22428739.5154
   7140122.865 4   5563730.468 4  23302028.548    23302026.994
   -573626.26244                  25096367.2504
 96  2 29  1 19  0.0000000  0  7G 5G24G 4G 9G 7G12G20
  -7219122.05944  -5625286.29444  22558377.8944   22558377.4074
  -6789132.72944  -5290230.50944  21016395.9294   21016396.1354
   -709353.13744   -552741.14344  20637792.8224   20637791.5594
   -949495.63044   -739866.78344  21078843.9804   21078843.3674
   5413030.54244   4217945.73844  22441243.2004   22441243.3824
   7235340.223 4   5637925.789 4  23320147.926    23320146.346
   -669548.00744                  25078121.7724
 96  2 29  1 19 30.0000000  0  7G 5G24G 4G 9G 7G12G20
  -7299013.05644  -5687539.00344  22543175.1404   22543174.5294
  -6848861.51744  -5336772.39944  21005030.1544   21005030.2714
   -691685.81344   -538974.38544  20641154.7404   20641153.6364
   -935297.13544   -728803.03144  21081545.9554   21081545.3534
   5478815.97844   4269207.11344  22453761.7144   22453761.4424
   7330836.193 4   5712338.200 4  23338320.083    23338318.768
   -765504.95344   -596497.03244  25059859.1734
 96  2 29  1 20  0.0000000  0  7G 5G24G 4G 9G 7G12G20
  -7378766.69044  -5749684.64444  22527998.7364   22527997.3074
  -6908098.83244  -5382931.32944  20993757.8224   20993757.9104
   -673424.62744   -524744.88144  20644629.7844   20644628.5444
   -920486.19344   -717262.04344  21084364.4104   21084363.5734
   5544692.88644   4320539.77144  22466298.0444   22466297.3994
   7426622.299 4   5786976.702 4  23356547.567    23356546.049
   -861464.14944   -671270.39144  25041594.1194   25041595.6184
 96  2 29  1 20 30.0000000  0  7G 9G 5G 7G12G24G 4G20
   -905040.06044   -705226.10344  21087303.9574   21087303.3414
  -7458369.56444  -5811712.83444  22512850.8954   22512849.7114
   5610675.96044   4371955.14944  22478853.8844   22478853.4934
   7522707.258 4   5861848.074 4  23374831.974    23374830.567
  -6966815.60544  -5428684.64344  20982584.3764   20982584.4694
   -654549.54044   -510037.00844  20648221.5014   20648220.1834
   -957410.16744   -746033.48844  25023336.2304
 96  2 29  1 21  0.0000000  0  7G 9G 5G 7G12G20G24G 4
   -888978.03144   -692710.24444  21090360.3384   21090359.5534
  -7537835.93144  -5873634.65144  22497728.8294   22497727.6024
   5676760.46344   4423449.56944  22491429.6734   22491428.9354
   7619081.100 4   5936944.540 4  23393171.588    23393169.965
  -1053343.27544                  25005083.8814
  -7025009.13744  -5474030.23544  20971510.3594   20971510.1754
   -635073.90744   -494861.18144  20651927.7454   20651926.4564
 96  2 29  1 21 30.0000000  0  7G 9G 5G 7G12G24G 4G20
   -872395.26144   -679788.61244  21093515.5284   21093514.9524
  -7617257.05444  -5935521.21344  22482615.4094   22482614.7934
   5742865.98144   4474960.35744  22504008.6514   22504008.4534
   7715655.127 4   6012196.986 4  23411548.914    23411547.446
  -7082750.74644  -5519023.67844  20960522.3914   20960522.3964
   -615070.88444   -479274.40044  20655733.8984   20655732.6224
  -1149363.59344                  24986812.0394
 96  2 29  1 22  0.0000000  0  7G 9G 5G 7G12G20G24G 4
   -855247.35344   -666426.61344  21096778.9484   21096778.2694
  -7696579.02944  -5997330.51844  22467521.0674   22467521.1334
   5809026.45744   4526513.97044  22516598.8934   22516599.1844
   7812470.378 4   6087637.408 4  23429972.255    23429970.759
  -1245454.92844   -970483.61644  24968525.3744   24968522.6034
  -7139994.23044  -5563628.96844  20949629.5194   20949629.4764
   -594474.88844   -463225.56144  20659653.6524   20659652.1644
 96  2 29  1 22 30.0000000  0  7G 9G 5G 7G12G24G 4G20
   -837544.17944   -652631.94044  21100147.9214   21100147.1314
  -7775810.22144  -6059069.09644  22452443.5514   22452443.0994
   5875226.57944   4578098.47444  22529196.8834   22529195.9084
   7909521.432 4   6163261.584 4  23448440.454    23448438.774
  -7196752.11444  -5607855.87344  20938828.7264   20938828.9014
   -573292.47144   -446719.77144  20663684.2544   20663682.8484
  -1341632.12844                  24950226.0414
 96  2 29  1 23  0.0000000  0  7G 9G 5G 7G12G20G24G 4
   -819268.40544   -638391.08644  21103625.9714   21103624.9394
  -7854931.68244  -6120722.15044  22437387.1794   22437386.5754
   5941481.77244   4629725.89044  22541804.6484   22541804.9314
   8006818.156 4   6239077.169 4  23466955.477    23466953.750
  -1437888.86544                  24931907.1144
  -7253021.50144  -5651702.12944  20928120.8754   20928121.1094
   -551512.69044   -429748.49844  20667828.9824   20667827.5884
 96  2 29  1 23 30.0000000  0  7G 9G 5G 7G12G24G 4G20
   -800428.45244   -623710.60644  21107210.7934   21107209.8374
  -7933940.54744  -6182287.48344  22422352.5464   22422352.3154
   6007787.64044   4681392.80444  22554422.2514   22554421.9734
   8104357.345 4   6315081.697 4  23485516.544    23485514.935
  -7308809.86744  -5695173.56544  20917504.8334   20917504.8744
   -529137.00744   -412312.88944  20672086.8864   20672085.6814
  -1534227.20744                  24913574.4714
 96  2 29  1 24  0.0000000  0  7G 9G 5G 7G12G24G 4G20
   -780993.49944   -608566.49444  21110908.9764   21110908.2934
  -8012786.14244  -6243725.57944  22407348.6264   22407347.9084
   6074173.80444   4733122.28044  22567054.9324   22567054.9434
   8202171.017 4   6391300.114 4  23504130.083    23504128.290
  -7364089.94144  -5738248.92644  20906985.4504   20906985.5864
   -506146.07444   -394397.86444  20676461.6954   20676460.4934
  -1630593.29344  -1270591.17444  24895235.0514   24895230.4604
 96  2 29  1 24 30.0000000  0  7G 9G 5G 7G12G24G 4G20
   -760971.08944   -592964.62144  21114719.4384   21114718.6774
  -8091475.94744  -6305042.28544  22392374.8684   22392374.3534
   6140637.89544   4784912.48044  22579702.4734   22579702.1164
   8300249.276 4   6467724.691 4  23522793.874    23522791.824
  -7418858.93244  -5780926.04144  20896563.1224   20896563.4044
   -482559.75744   -376018.90744  20680950.0524   20680948.7934
  -1726965.31944  -1345686.18644  24876895.7484   24876892.8594
 96  2 29  1 25  0.0000000  0  7G 9G 5G 7G12G20G24G 4
   -740373.44344   -576914.51644  21118638.9454   21118638.1624
  -8170013.40144  -6366240.27644  22377428.8664   22377428.6224
   6207184.59644   4836767.06744  22592366.2154   22592365.9284
   8398582.833 4   6544348.209 4  23541505.963    23541504.337
  -1823344.27444  -1420786.65244  24858554.8124   24858552.4344
  -7473119.67544  -5823207.11644  20886237.7804   20886237.6414
   -458395.96644   -357189.96744  20685548.3554   20685547.0014
 96  2 29  1 25 30.0000000  0  7G 9G 5G 7G12G24G 4G20
   -719201.07644   -560416.57144  21122668.0564   21122667.1604
  -8248384.70844  -6427308.80944  22362515.2694   22362514.6614
   6273817.36544   4888688.71644  22605046.0554   22605045.8424
   8497183.483 4   6621179.850 4  23560268.993    23560267.460
  -7526843.81344  -5865070.05444  20876014.2964   20876014.7914
   -433654.50444   -337910.90044  20690256.6824   20690255.4434
  -1919699.85344  -1495868.80344  24840220.0384
 96  2 29  1 26  0.0000000  0  7G 9G 5G 7G12G20G24G 4
   -697430.67444   -543452.62844  21126810.3934   21126809.8824
  -8326576.48844  -6488237.44444  22347635.9164   22347635.1414
   6340556.55444   4940693.27844  22617745.3294   22617745.8374
   8596068.038 4   6698232.707 4  23579086.118    23579084.731
  -2016012.01844  -1570917.19844  24821892.8594
  -7579999.32044  -5906489.91044  20865899.0364   20865899.3524
   -408324.20744   -318172.99644  20695076.8054   20695075.3774
 96  2 29  1 26 30.0000000  0  7G 9G 5G 7G12G20G24G 4
   -675088.07044   -526042.81644  21131062.2744   21131061.6124
  -8404632.70344  -6549060.43344  22332782.4554   22332782.1444
   6407397.62944   4992777.22144  22630464.5104   22630465.0184
   8695218.075 4   6775492.442 4  23597953.923    23597952.302
  -2112306.69644  -1645952.05844  24803567.2814   24803563.8374
  -7632605.38244  -5947481.62144  20855888.7104   20855889.1004
   -382428.63744   -297994.62344  20700004.3084   20700003.2894
 96  2 29  1 27  0.0000000  0  7G 9G 5G 7G12G20G24G 4
   -652240.98644   -508239.90344  21135410.2844   21135409.6484
  -8482626.52744  -6609834.81844  22317941.1754   22317940.0594
   6474275.69044   5044889.99044  22643192.0874   22643192.0704
   8794570.209 4   6852909.659 4  23616859.969    23616858.199
  -2208655.32844  -1721028.82744  24785232.2554   24785231.7694
  -7684734.03944  -5988101.33844  20845968.7114   20845968.8324
   -356031.98844   -277425.80044  20705027.5254   20705026.2034
 96  2 29  1 27 30.0000000  0  7G 9G 5G 7G12G20G24G 4
   -628948.32544   -490089.78744  21139842.3464   21139841.9054
  -8560615.34944  -6670605.30544  22303099.6984   22303098.7434
   6541116.29644   5096973.57544  22655911.4834   22655910.7634
   8894063.009 4   6930436.491 4  23635792.828    23635791.357
  -2305112.45944  -1796190.07644  24766876.9914   24766880.1844
  -7736438.92344  -6028390.83944  20836129.5724   20836129.5944
   -329182.91844   -256504.44244  20710136.5894   20710135.5544
 96  2 29  1 28  0.0000000  0  7G 9G 5G 7G12G20G24G 4
   -605147.83544   -471543.95844  21144371.7154   21144370.9974
  -8638558.21244  -6731339.98644  22288267.4604   22288266.6534
   6607979.46744   5149074.76344  22668634.6314   22668634.1464
   8993744.524 4   7008110.367 4  23654761.887    23654760.063
  -2401630.53744  -1871398.97344  24748508.5094   24748508.1864
  -7787685.30744  -6068323.06644  20826377.8424   20826378.0244
   -301819.57744   -235182.35044  20715343.8514   20715342.3134
 96  2 29  1 28 30.0000000  0  7G 9G 5G 7G12G20G24G 4
   -580837.87644   -452601.13744  21148997.2654   21148996.4814
  -8716443.42544  -6792029.73344  22273446.6524   22273446.1344
   6674848.45744   5201180.48244  22681359.4654   22681359.3714
   9093608.432 4   7085926.373 4  23673765.305    23673763.499
  -2498209.19044  -1946655.04044  24730127.3104
  -7838485.18144  -6107907.36644  20816711.0414   20816711.0254
   -273944.15444   -213461.23444  20720648.1224   20720646.7084
 96  2 29  1 29  0.0000000  0  7G 9G 5G 7G12G20G24G 4
   -556001.94144   -433248.46344  21153724.1374   21153723.4924
  -8794238.68444  -6852649.39144  22258643.1304   22258642.3244
   6741708.50144   5253279.20644  22694082.8804   22694082.2064
   9193654.654 4   7163884.434 4  23692803.526    23692801.672
  -2594841.06944  -2021952.58044  24711738.4634
  -7888821.19344  -6147130.21644  20807132.2064   20807132.2684
   -245553.06444   -191338.30344  20726050.9234   20726049.8734
 96  2 29  1 29 30.0000000  0  7G 9G 5G 7G12G20G24G 4
   -530618.85444   -413469.44044  21158554.0824   21158553.4734
  -8871923.19444  -6913182.74644  22243860.1404   22243858.8404
   6808571.99744   5305380.62544  22706806.8114   22706806.2674
   9293892.518 4   7241991.834 4  23711878.142    23711876.231
  -2691514.39044                  24693341.3304
  -7938674.85444  -6185977.20544  20797645.4134   20797645.6104
   -216638.71444   -168807.63344  20731552.8424   20731551.7044
 96  2 29  1 30  0.0000000  0  7G 9G 5G 7G12G20G24G 4
   -504685.23244   -393261.42744  21163488.6764   21163487.7634
  -8949481.75944  -6973617.96144  22229101.2794   22229100.3914
   6875453.22844   5357495.87044  22719533.5314   22719532.6334
   9394324.699 4   7320250.641 4  23730989.748    23730987.944
  -2788231.58344                  24674935.6814
  -7988040.60844  -6224444.01044  20788251.1424   20788251.4314
   -187198.36444   -145867.09544  20737155.2694   20737154.0174
 96  2 29  1 30 30.0000000  0  7G 5G 9G 7G12G20G24G 4
  -9026894.88144  -7033939.84844  22214370.0654   22214369.4424
   -478207.71344   -372629.59444  21168527.4804   21168527.0384
   6942351.92744   5409624.72744  22732263.8024   22732264.0624
   9494953.570 4   7398662.723 4  23750138.841    23750137.205
  -2884998.65944  -2248049.32344  24656523.4484
  -8036900.32344  -6262516.49844  20778953.3924   20778953.7314
   -157224.08244   -122510.50144  20742859.2884   20742858.1104
 96  2 29  1 31  0.0000000  0  7G 5G 9G 7G12G20G24G 4
  -9104190.35344  -7094170.06944  22199661.0324   22199660.4874
   -451196.98944   -351582.27744  21173667.6104   21173666.7154
   7009272.58044   5461770.69644  22744998.2904   22744997.4154
   9595765.201 4   7477217.211 4  23769322.786    23769321.095
  -2981834.42544  -2323505.67644  24638097.2554   24638096.2914
  -8085269.70944  -6300206.90944  20769748.9954   20769749.4494
   -126714.42844    -98736.73844  20748665.2154   20748663.8634
 96  2 29  1 31 30.0000000  0  7G 5G 9G 7G12G20G24G 4
  -9181391.57844  -7154326.84944  22184969.6304   22184969.2404
   -423665.39644   -330129.09244  21178906.5344   21178906.0194
   7076212.60844   5513931.76444  22757737.1384   22757736.8914
   9696747.052 4   7555904.331 4  23788539.075    23788537.170
  -3078756.75144  -2399029.52544  24619653.5184   24619652.2174
  -8133172.59844  -6337533.81644  20760633.5454   20760633.8894
    -95670.14344    -74546.37544  20754572.8804   20754571.4074
 96  2 29  1 32  0.0000000  0  7G 5G 9G 7G12G20G24G 4
  -9258518.24244  -7214425.52544  22170292.9284   22170293.0094
   -395652.59444   -308300.93644  21184236.9904   21184236.4244
   7143148.41144   5566089.52344  22770474.5814   22770473.7814
   9797875.793 4   7634705.912 4  23807783.112    23807781.072
  -3175793.00844  -2474642.19944  24601188.6824   24601185.8084
  -8180636.32444  -6374518.52044  20751601.5114   20751601.4394
    -64108.74644    -49953.06944  20760578.3484   20760577.1174
 96  2 29  1 32 30.0000000  0  7G 5G 9G 7G12G20G24G 4
  -9335512.84044  -7274421.28444  22155642.1024   22155641.3504
   -367091.22744   -286045.33244  21189672.2314   21189671.4124
   7210154.55644   5618302.11844  22783224.9444   22783225.4124
   9899220.446 4   7713675.735 4  23827068.549    23827066.270
  -3272867.47044  -2550284.49044  24582715.3284   24582715.5764
  -8227595.93244  -6411110.40244  20742665.2694   20742665.4094
    -31982.07344    -24919.28944  20766692.0834   20766690.7004
 96  2 29  1 33  0.0000000  0  7G 5G 9G 7G12G20G24G 4
  -9412374.12844  -7334313.17244  22141015.0214   22141014.3894
   -337976.10144   -263358.22444  21195212.8754   21195212.2844
   7277232.30444   5670570.50144  22795989.5524   22795989.2424
  10000788.016 4   7792819.271 4  23846396.093    23846394.289
  -3369961.16644  -2625941.87244  24564239.7054   24564236.6134
  -8274048.40544  -6447307.11544  20733825.8374   20733825.9024
       686.95444       537.10444  20772908.7524   20772907.8564
 96  2 29  1 33 30.0000000  0  7G 5G 9G 7G12G20G24G 4
  -9489044.60744  -7394056.39344  22126425.1244   22126424.6754
   -308284.47944   -240221.90344  21200862.7464   21200862.1114
   7344402.42544   5722910.85744  22808771.5774   22808771.2744
  10102611.381 4   7872162.123 4  23865772.523    23865770.589
  -3467036.40044  -2701584.81144  24545765.3844   24545763.6414
  -8319944.03044  -6483069.92144  20725092.1214   20725092.1234
     33910.11344     26425.28844  20779230.8884   20779229.5764
 96  2 29  1 34  0.0000000  0  7G 5G 9G 7G12G20G24G 4
  -9565539.00944  -7453662.39844  22111869.2224   22111868.7544
   -278055.92544   -216667.18944  21206615.1204   21206614.6454
   7411635.51444   5775300.27244  22821565.1754   22821566.5914
  10204663.083 4   7951682.893 4  23885192.085    23885190.420
  -3564111.57444  -2777227.71044  24527292.2224   24527293.2144
  -8365308.42044  -6518418.77744  20716459.6374   20716459.7534
     67646.44044     52713.34544  20785650.7804   20785649.8034
 96  2 29  1 34 30.0000000  0  7G 5G 9G 7G12G24G 4G20
  -9641844.28344  -7513121.03744  22097348.6464   22097347.9244
   -247259.02844   -192669.61044  21212475.6494   21212474.6924
   7478946.00144   5827749.99744  22834374.5744   22834374.0234
  10306953.758 4   8031389.876 4  23904657.751    23904655.884
  -8410125.56044  -6553341.20644  20707931.1644   20707931.0264
    101913.32644     79414.82044  20792171.4584   20792170.4504
  -3661170.16644  -2852857.77844  24508823.8224
 96  2 29  1 35  0.0000000  0  7G 5G 9G 7G12G20G24G 4
  -9717948.61244  -7572423.09644  22082866.4124   22082866.1804
   -215882.25044   -168220.17544  21218446.1794   21218445.5984
   7546316.98844   5880246.87144  22847194.7404   22847194.5744
  10409475.045 4   8111276.556 4  23924166.762    23924164.888
  -3758218.75644  -2928480.03044  24490356.4774
  -8454394.27944  -6587836.29044  20699507.1014   20699507.2644
    136735.74844    106549.18544  20798797.9454   20798796.6074
 96  2 29  1 35 30.0000000  0  7G 5G 9G 7G12G24G 4G20
  -9793868.15344  -7631581.16744  22068419.3454   22068418.9064
   -183929.01244   -143321.55444  21224527.0534   21224526.5244
   7613748.51244   5932790.91744  22860026.4024   22860025.8484
  10512209.890 4   8191329.655 4  23943716.658    23943714.893
  -8498133.67744  -6621918.91844  20691183.9424   20691183.7554
    172124.15144    134124.57244  20805531.8164   20805530.6034
  -3855265.37844  -3004100.72444  24471886.3934
 96  2 29  1 36  0.0000000  0  7G 5G 9G 7G12G20G24G 4
  -9869688.55944  -7690661.98544  22053991.6164   22053991.1294
   -151464.60644   -118024.61944  21230704.7024   21230704.2204
   7681195.04944   5985346.66544  22872860.9864   22872860.0334
  10615086.548 4   8271493.253 4  23963293.054    23963291.850
  -3952370.78844  -3079767.14444  24453409.4174   24453408.1894
  -8541418.94244  -6655647.67744  20682946.8814   20682946.8464
    208028.21444    162101.77144  20812364.4484   20812363.1624
 96  2 29  1 36 30.0000000  0  7G 5G 9G 7G24G 4G12G20
  -9945385.32644  -7749646.45944  22039586.9664   22039586.3284
   -118452.40344    -92300.83244  21236986.7294   21236986.1484
   7748689.38344   6037939.67144  22885704.4904   22885704.1574
  -8584210.95344  -6688992.07944  20674803.6824   20674803.7394
    244486.25144    190510.63844  20819302.2834   20819301.0374
  10718130.702 4   8351787.379 4  23982902.103    23982900.297
  -4049498.52244  -3155451.08644  24434925.5954
 96  2 29  1 37  0.0000000  0  7G 5G 9G 7G12G20G24G 4
 -10020965.50544  -7808540.08744  22025204.3784   22025203.8014
    -84917.91044    -66170.06044  21243368.0384   21243367.4114
   7816223.59544   6090563.72044  22898556.0664   22898555.5544
  10821329.460 4   8432201.968 4  24002539.981    24002538.465
  -4146644.99144  -3231149.61844  24416437.9744
  -8626520.51644  -6721960.54844  20666752.5034   20666752.3334
    281475.94444    219333.78244  20826341.2074   20826339.9214
 96  2 29  1 37 30.0000000  0  7G 5G 9G 7G12G24G 4G20
 -10096500.17744  -7867398.25244  22010830.3844   22010829.9414
    -50955.06344    -39705.50544  21249831.1184   21249830.2864
   7883742.85444   6143176.15044  22911404.5524   22911404.2904
  10924613.157 4   8512682.738 4  24022194.325    24022192.607
  -8668405.63544  -6754598.28244  20658782.0144   20658781.9404
    318911.75344    248504.54844  20833465.2784   20833464.0604
  -4243864.71444  -3306905.15844  24397939.2394   24397947.4304
 96  2 29  1 38  0.0000000  0  7G 5G 9G 7G12G20G24G 4
 -10171866.09644  -7926124.93744  21996488.7224   21996487.9384
    -16472.43944    -12835.93444  21256392.8734   21256392.0964
   7951336.20944   6195846.29644  22924266.9934   22924267.3234
  11028089.660 4   8593313.750 4  24041885.127    24041883.408
  -4341063.15844  -3382644.23244  24379442.3284   24379448.9664
  -8709741.67444  -6786808.16044  20650915.9394   20650915.8584
    356897.63044    278103.94044  20840693.3554   20840691.9234
 96  2 29  1 38 30.0000000  0  7G 5G 9G 7G12G24G 4G20
 -10246971.06644  -7984648.27544  21982196.6044   21982196.0524
     18609.72844     14500.81844  21263068.9574   21263068.2894
   8019059.54244   6248617.73144  22937154.4734   22937153.8434
  11131846.890 4   8674163.506 4  24061629.400    24061627.684
  -8750439.37944  -6818520.63544  20643171.4744   20643171.3164
    395507.08444    308189.23844  20848040.6014   20848039.2994
  -4438154.79244  -3458299.95444  24360965.9794   24360967.9124
 96  2 29  1 39  0.0000000  0  7G 5G 9G 7G12G20G24G 4
 -10321920.12144  -8043050.11444  21967934.3114   21967933.8434
     54173.95844     42213.20244  21269836.5764   21269835.8724
   8086799.82944   6301402.39044  22950045.2294   22950044.0394
  11235780.605 4   8755150.793 4  24081407.538    24081405.619
  -4535251.87444  -3533959.97344  24342490.6834   24342491.3834
  -8790597.27644  -6849812.48244  20635529.5434   20635529.5444
    434630.65744    338675.14044  20855485.4894   20855484.0954
 96  2 29  1 39 30.0000000  0  7G 5G 9G 7G12G24G 4G20
 -10396728.15944  -8101342.07144  21953699.5894   21953698.6444
     90207.89244     70291.58744  21276693.4054   21276692.8074
   8154532.86644   6354181.39244  22962934.6614   22962935.0124
  11339878.674 4   8836266.148 4  24101216.792    24101215.020
  -8830220.83944  -6880687.96744  20627989.6084   20627989.4834
    474263.71344    369558.05244  20863027.2914   20863025.9304
  -4632371.72244  -3609637.77844  24324009.4454   24324010.0004
 96  2 29  1 40  0.0000000  0  7G 5G 9G 7G12G20G24G 4
 -10471402.79144  -8159530.07144  21939489.0844   21939488.5974
    126717.78744     98740.85544  21283641.1674   21283640.5934
   8222238.34844   6406938.87544  22975818.3054   22975819.0764
  11444133.961 4   8917504.012 4  24121056.105    24121054.206
  -4729524.78344  -3685341.38944  24305522.7204   24305522.6914
  -8869323.98344  -6911157.92944  20620548.6204   20620548.7254
    514403.87344    400836.10544  20870665.7814   20870664.6904
 96  2 29  1 40 30.0000000  0  7G 5G 9G 7G24G 4G12G20
 -10545904.74544  -8217583.53144  21925311.7934   21925311.2014
    163751.63644    127598.39444  21290688.3094   21290687.8624
   8289961.05844   6459709.81844  22988705.1124   22988705.8904
  -8907882.12944  -6941203.22044  20613211.0614   20613211.2154
    555081.00144    432532.57344  20878406.5874   20878405.2004
  11548575.939 4   8998887.339 4  24140930.493    24140928.891
  -4826661.93844  -3761032.68344  24287038.5764   24287035.4514
 96  2 29  1 41  0.0000000  0  7G 5G 9G 7G12G20G24G 4
 -10620195.66444  -8275472.54544  21911174.0424   21911173.5714
    201345.29244    156892.14944  21297842.2314   21297841.5044
   8357742.40544   6512526.48444  23001602.9554   23001603.4114
  11653220.260 4   9080428.329 4  24160843.775    24160841.923
  -4923757.39044  -3836691.40844  24268562.0144   24268561.9974
  -8945876.38244  -6970809.11544  20605981.0584   20605981.3044
    596309.81944    464658.93244  20886252.2084   20886250.6554
 96  2 29  1 41 30.0000000  0  7G 5G 9G 7G24G 4G12G20
 -10694280.29044  -8333200.79944  21897076.1464   21897075.9194
    239507.85844    186629.20744  21305104.4114   21305103.6564
   8425582.73144   6565389.07844  23014513.3734   23014513.1114
  -8983323.99244  -6999989.05044  20598855.0494   20598855.0184
    638070.31144    497199.58344  20894198.7484   20894197.5014
  11758055.994 4   9162118.472 4  24180793.532    24180791.535
  -5020818.25044  -3912323.20744  24250091.8334   24250089.8304
 96  2 29  1 42  0.0000000  0  7G 5G 9G 7G12G20G24G 4
 -10768169.73344  -8390776.97144  21883016.1324   21883015.4284
    278230.02244    216802.31544  21312473.0264   21312472.2784
   8493474.05244   6618291.40644  23027432.1714   23027432.5934
  11863060.628 4   9243940.227 4  24200775.071    24200773.317
  -5117877.26344  -3987953.56944  24231622.2814   24231621.0144
  -9020252.46444  -7028764.46544  20591827.8894   20591827.6914
    680333.42544    530131.88744  20902241.1264   20902239.8294
 96  2 29  1 42 30.0000000  0  7G 5G 9G 7G24G 4G12G20
 -10841873.46044  -8448208.42144  21868990.6244   21868989.6994
    317500.62144    247402.77844  21319945.7754   21319945.2184
   8561419.15644   6671235.63844  23040360.8974   23040361.2334
  -9056680.15544  -7057149.65944  20584895.6664   20584895.6294
    723072.14144    563434.78744  20910373.7704   20910372.6624
  11968221.883 4   9325884.023 4  24220786.933    24220784.868
  -5214951.64844  -4063595.91144  24213148.7614   24213149.2494
 96  2 29  1 43  0.0000000  0  7G 5G 9G 7G12G24G 4G20
 -10915397.10344  -8505499.54644  21854999.9874   21854999.3904
    357326.88244    278436.22544  21327524.4204   21327524.0314
   8629427.26644   6724228.99044  23053303.1414   23053304.2004
  12073555.679 4   9407962.270 4  24240831.483    24240829.346
  -9092582.53244  -7085125.51944  20578063.7464   20578063.6214
    766292.29844    597112.83644  20918598.5164   20918597.4174
  -5312028.61644  -4139240.21444  24194675.4544   24194677.5094
 96  2 29  1 43 30.0000000  0  7G 5G 9G 7G24G 4G12G20
 -10988774.31344  -8562676.57844  21841036.0914   21841035.5734
    397670.90644    309873.12144  21335201.5534   21335201.2314
   8697463.01244   6777243.86444  23066250.2184   23066250.4064
  -9127982.27544  -7112709.71644  20571327.4114   20571327.3214
    809986.47944    631160.25844  20926913.1874   20926911.9514
  12179038.710 4   9490156.804 4  24260904.198    24260902.193
  -5409134.93644  -4214907.45444  24176196.2694   24176193.3004
 96  2 29  1 44  0.0000000  0  7G 5G 9G 7G12G24G 4G20
 -11062002.90544  -8619737.80144  21827101.1684   21827100.6474
    438510.71344    341696.34544  21342973.3134   21342972.9044
   8765512.56944   6830269.51044  23079199.8744   23079199.5274
  12284661.975 4   9572460.615 4  24281003.217    24281001.640
  -9162881.87144  -7139904.19144  20564686.0604   20564686.0584
    854157.14844    665578.97044  20935318.6484   20935317.4574
  -5506265.46444  -4290593.54744  24157712.1194   24157712.1324
 96  2 29  1 44 30.0000000  0  7G 5G 9G24G 4G 7G12G20
 -11135079.28344  -8676680.41444  21813195.0714   21813195.1024
    479837.48144    373899.01944  21350837.3674   21350836.7704
  -9197268.40544  -7166698.87544  20558142.5924   20558142.6614
    898813.52744    700376.15044  20943816.5204   20943815.3814
   8833575.54244   6883305.59444  23092152.0264   23092152.2384
  12390429.816 4   9654877.093 4  24301130.488    24301128.329
  -5603398.61644  -4366281.62844  24139228.2084   24139227.5664
 96  2 29  1 45  0.0000000  0  7G 5G 9G 7G24G 4G12G20
 -11207992.37344  -8733495.78744  21799320.2834   21799319.6634
    521653.38744    406482.83844  21358794.8104   21358794.2204
   8901659.35044   6936357.89044  23105107.4134   23105106.3324
  -9231128.86344  -7193083.62944  20551699.2254   20551699.1294
    943979.56444    735570.47144  20952411.5674   20952410.1204
  12496346.178 4   9737409.305 4  24321285.856    24321283.582
  -5700514.23344  -4441956.05144  24120746.1874   24120746.8804
 96  2 29  1 45 30.0000000  0  7G 5G 9G 7G12G24G 4G20
 -11280724.84544  -8790170.42144  21785479.6464   21785478.5584
    563943.49044    439436.16244  21366842.5734   21366841.7764
   8969771.10944   6989432.00244  23118068.9234   23118069.3244
  12602396.855 4   9820046.175 4  24341466.169    24341464.180
  -9264486.90644  -7219076.88944  20545351.2844   20545351.0944
    989652.62344    771159.87544  20961102.7684   20961101.4574
  -5797617.85144  -4517621.18244  24102269.3604   24102267.7294
 96  2 29  1 46  0.0000000  0  7G 5G 9G24G 4G 7G12G20
 -11353258.20444  -8846689.90744  21771677.2574   21771676.3654
    606725.19644    472772.55444  21374983.3324   21374982.7134
  -9297323.77744  -7244664.04344  20539102.4964   20539102.5364
   1035830.65444    807142.76144  20969889.6794   20969888.2164
   9037938.78244   7042549.67044  23131040.4534   23131042.4814
  12708596.123 4   9902798.827 4  24361675.605    24361673.413
  -5894688.37944  -4593260.48144  24083797.5824   24083801.8714
 96  2 29  1 46 30.0000000  0  7G 5G 9G 7G12G24G 4G20
 -11425620.49044  -8903076.08444  21757906.8484   21757906.3174
    649975.68544    506474.23044  21383213.8074   21383213.0034
   9106145.03044   7095697.39144  23144020.2324   23144021.1784
  12814918.121 4   9985647.096 4  24381908.001    24381905.938
  -9329660.22344  -7269861.25344  20532949.2624   20532949.2254
   1082479.16244    843492.25944  20978766.7194   20978765.2254
  -5991755.12844  -4668896.86844  24065327.1334   24065328.0464
 96  2 29  1 47  0.0000000  0  7G 5G24G 4G 9G 7G12G20
 -11497788.64844  -8959310.99644  21744173.9814   21744172.9674
  -9361472.66144  -7294650.14644  20526895.3724   20526895.2344
   1129604.39044    880213.22244  20987734.5624   20987733.1294
    693714.04544    540556.06044  21391536.4104   21391536.0934
   9174406.26444   7148887.97644  23157008.4884   23157008.4834
  12921379.001 4  10068603.583 4  24402167.188    24402165.054
  -6088795.10844  -4744512.37544  24046860.4544   24046863.0484
 96  2 29  1 47 30.0000000  0  7G 5G24G 4G 9G 7G12G20
 -11569769.93844  -9015400.30344  21730476.4104   21730475.0804
  -9392761.10344  -7319030.73644  20520941.7144   20520941.4044
   1177181.47044    917286.28444  20996788.3064   20996786.8624
    737929.17144    575009.40244  21399950.7894   21399950.3804
   9242696.95144   7202101.51344  23170005.1294   23170004.1784
  13027968.917 4  10151660.606 4  24422450.146    24422448.588
  -6185823.78244  -4820119.07044  24028396.2764   24028395.6554
 96  2 29  1 48  0.0000000  0  7G 5G24G 4G 9G 7G12G20
 -11641592.35844  -9071365.81744  21716809.1364   21716808.3674
  -9423508.24744  -7342989.52844  20515090.5074   20515090.4064
   1225201.32844    954704.36344  21005926.0544   21005924.6294
    782620.62244    609833.90644  21408455.3194   21408454.6854
   9310984.92744   7255312.91544  23182999.9724   23182997.9394
  13134682.958 4  10234814.361 4  24442757.772    24442755.538
  -6282861.87444  -4895733.09944  24009930.1114   24009928.4804
 96  2 29  1 48 30.0000000  0  7G 5G24G 4G 9G 7G12G20
 -11713234.69544  -9127190.99344  21703175.7164   21703175.2464
  -9453701.16444  -7366516.46044  20509345.0374   20509344.8794
   1273680.58844    992480.41644  21015151.3344   21015150.3514
    827809.52544    645046.03344  21417054.3404   21417053.6474
   9379282.42344   7308531.74344  23195995.6144   23195996.1294
  13241532.762 4  10318073.900 4  24463090.572    24463088.175
  -6379891.89344  -4971340.85944  23991466.3994   23991469.4454
 96  2 29  1 49  0.0000000  0  7G 5G24G 4G 9G 7G12G20
 -11784681.00344  -9182863.41444  21689580.2354   21689579.6414
  -9483348.59744  -7389618.33744  20503703.2654   20503703.2864
   1322623.03744   1030617.40044  21024464.6714   21024463.4994
    873499.43444    680648.56344  21425748.8554   21425748.2624
   9447583.08444   7361753.05644  23208993.5584   23208994.6684
  13348514.167 4  10401436.003 4  24483448.471    24483446.004
  -6476909.54844  -5046938.98844  23973003.7274   23973005.3994
 96  2 29  1 49 30.0000000  0  7G 5G24G 4G 9G 7G12G20
 -11855924.14144  -9238377.53244  21676023.2604   21676022.5504
  -9512458.06544  -7412301.02544  20498163.9004   20498163.6494
   1372042.89744   1069126.39344  21033869.2064   21033867.6434
    919691.74744    716642.57044  21434538.8044   21434538.4354
   9515889.76744   7414979.02544  23221991.0684   23221991.6394
  13455624.147 4  10484898.273 4  24503830.651    24503828.602
  -6573920.64444  -5122531.96944  23954543.7204   23954545.0564
 96  2 29  1 50  0.0000000  0  7G 5G24G 4G 9G 7G12G20
 -11926950.80644  -9293722.97944  21662507.3974   21662506.6584
  -9541043.08944  -7434575.05344  20492724.3124   20492724.0374
   1421943.09944   1108009.67744  21043364.5724   21043363.5084
    966376.89444    753020.60144  21443422.8244   21443422.3164
   9584221.18844   7468224.27244  23234995.0224   23234994.7814
  13562856.031 4  10568455.545 4  24524236.318    24524234.334
  -6670922.24244  -5198117.57144  23936085.6134   23936083.6404
 96  2 29  1 50 30.0000000  0  7G 5G24G 4G 9G 7G12G20
 -11997739.89344  -9348883.29044  21649036.3744   21649035.9484
  -9569119.09344  -7456452.44344  20487381.5644   20487381.5034
   1472319.62044   1147264.11444  21052951.0944   21052949.5194
   1013553.28644    789781.42444  21452400.1444   21452399.5724
   9652598.56044   7521505.33644  23248006.6864   23248005.0154
  13670209.934 4  10652107.897 4  24544665.012    24544663.094
  -6767888.56244  -5273675.65844  23917632.8954   23917633.6624
 96  2 29  1 51  0.0000000  0  7G 5G24G 4G 9G 7G12G20
 -12068315.06444  -9403876.90844  21635606.0174   21635605.2494
  -9596687.69044  -7477934.45044  20482135.4234   20482135.2174
   1523165.09844   1186883.98144  21062626.4984   21062625.3044
   1061198.90844    826907.87844  21461466.8604   21461466.2164
   9721006.11344   7574809.94544  23261024.0104   23261024.0064
  13777676.558 4  10735848.093 4  24565115.180    24565113.165
  -6864824.48044  -5349210.08944  23899187.3764   23899188.7454
 96  2 29  1 51 30.0000000  0  7G 5G24G 4G 9G 7G12G20
 -12138686.30144  -9458711.62244  21622214.8724   21622213.7574
  -9623721.34544  -7498999.61844  20476991.2384   20476991.0184
   1574490.60044   1226877.88044  21072393.3664   21072392.4184
   1109318.17444    864403.41044  21470623.7514   21470623.1024
   9789457.50544   7628148.71644  23274049.4544   23274050.2764
  13885269.227 4  10819686.506 4  24585589.248    24585587.558
  -6961718.48144  -5424711.84044  23880748.3204   23880746.3124
 96  2 29  1 52  0.0000000  0  7G 5G24G 4G 9G 7G12G20
 -12208867.80644  -9513398.50044  21608860.1414   21608858.9534
  -9650211.89244  -7519641.58844  20471950.2424   20471950.1034
   1626282.59344   1267235.28144  21082249.3714   21082247.8874
   1157909.42144    902266.71444  21479870.2654   21479869.7274
   9857957.88944   7681525.61644  23287084.5414   23287084.6864
  13992988.234 4  10903623.364 4  24606087.395    24606085.572
  -7058563.84644  -5500175.71244  23862319.2204   23862322.4214
 96  2 29  1 52 30.0000000  0  7G 5G24G 4G 9G 7G12G20
 -12278868.84844  -9567944.74644  21595539.3444   21595538.7174
  -9676145.89044  -7539849.88144  20467015.2434   20467014.9254
   1678537.19544   1307953.16344  21092192.8604   21092191.2704
   1206984.25944    940506.84844  21489208.9334   21489208.1174
   9926494.87744   7734931.04544  23300127.3894   23300127.5404
  14100837.801 4  10987661.967 4  24626610.875    24626608.450
  -7155354.06644  -5575596.62544  23843899.8064   23843901.0084
 96  2 29  1 53  0.0000000  0  7G 5G24G 4G 9G 7G12G20
 -12348687.62644  -9622348.97744  21582253.0314   21582252.2884
  -9701524.78544  -7559625.62544  20462185.8514   20462185.6064
   1731260.39344   1349036.17944  21102225.9214   21102224.6724
   1256535.53644    979118.23144  21498638.0374   21498637.4904
   9995054.86744   7788354.45144  23313174.2804   23313172.6624
  14208811.787 4  11071797.525 4  24647157.698    24647155.063
  -7252100.41344  -5650983.34644  23825490.1804   23825494.3484
 96  2 29  1 53 30.0000000  0  7G 5G24G 4G 9G 7G12G20
 -12418305.98044  -9676597.02744  21569005.0964   21569004.2564
  -9726372.23444  -7578987.25644  20457457.4474   20457457.1014
   1784439.13644   1390474.16544  21112345.4564   21112344.2324
   1306557.68744   1018096.52944  21508157.4014   21508156.7834
  10063635.75944   7841794.12144  23326224.8474   23326224.0954
  14316893.813 4  11156017.258 4  24667725.099    24667722.958
  -7348822.19744  -5726350.94144  23807083.6834   23807086.3734
 96  2 29  1 54  0.0000000  0  7G 5G24G 4G 9G 7G12G20
 -12487700.88044  -9730670.95944  21555799.6784   21555799.0844
  -9750709.90644  -7597951.65844  20452826.0504   20452826.0254
   1838066.94544   1432262.07844  21122550.3174   21122549.0004
   1357050.73044   1057441.75844  21517765.7164   21517764.8944
  10132234.10044   7895247.40244  23339278.3704   23339277.5194
  14425076.741 4  11240315.611 4  24688311.545    24688309.082
  -7445516.73844  -5801697.30844  23788685.4574   23788686.9504
 96  2 29  1 54 30.0000000  0  7G 5G24G 4G 9G 7G12G20
 -12556874.04744  -9784572.11244  21542636.5304   21542635.9494
  -9774560.13444  -7616536.23244  20448287.3784   20448287.3754
   1892137.54744   1474395.01744  21132839.4804   21132838.3694
   1408006.02544   1097147.17844  21527462.2394   21527461.7074
  10200831.88344   7948700.20644  23352332.1934   23352332.7614
  14533347.480 4  11324682.388 4  24708914.936    24708912.327
  -7542188.01244  -5877025.56444  23770287.5184   23770289.8304
 96  2 29  1 55  0.0000000  0  7G 5G24G 4G 9G 7G12G20
 -12625817.16244  -9838294.00744  21529516.9664   21529516.5574
  -9797917.14144  -7634736.48044  20443842.6334   20443842.2884
   1946667.60944   1516885.97844  21143216.3724   21143214.9724
   1459418.54144   1137208.87944  21537245.6714   21537245.1824
  10269449.26644   8002168.30244  23365389.5174   23365390.1894
  14641710.758 4  11409121.254 4  24729536.051    24729533.284
  -7638818.29444  -5952321.83744  23751900.6784   23751898.7314
 96  2 29  1 55 30.0000000  0  6G 5G24G 4G 9G 7G20
 -12694538.14144  -9891842.80544  21516439.9364   21516439.0714
  -9820758.07544  -7652534.59244  20439496.1424   20439496.1664
   2001653.30644   1559731.98244  21153679.8724   21153678.7854
   1511291.04544   1177629.01044  21547116.4004   21547115.9674
  10338100.97544   8055663.12544  23378453.1604   23378454.1684
  -7735387.86744  -6027570.82344  23733523.9914   23733523.3074
 96  2 29  1 56  0.0000000  0  7G 5G24G 4G 9G 7G 6G20
 -12763075.97044  -9945248.89844  21503397.2274   21503396.6724
  -9843080.02644  -7669928.30244  20435248.2934   20435247.9894
   2057081.98544   1602923.16944  21164227.3644   21164226.1094
   1563601.88044   1218390.69244  21557070.8034   21557070.0674
  10406766.01144   8109168.31744  23391519.7624   23391519.6794
        -0.50954                  25497048.2374
  -7831904.31044  -6102778.40144  23715157.8684   23715158.0794
 96  2 29  1 56 30.0000000  0  7G 5G24G 4G 9G 7G 6G20
 -12831414.69244  -9998499.82544  21490392.9634   21490392.5174
  -9864842.03544  -7686885.69644  20431107.0684   20431106.7674
   2112972.87244   1646474.51444  21174863.3904   21174862.0124
   1616369.28544   1259508.14944  21567112.4924   21567111.9294
  10475468.69144   8162702.86644  23404593.9874   23404594.1574
    -73763.96044                  25483010.2584
  -7928348.61644  -6177929.76944  23696804.6504   23696804.2164
 96  2 29  1 57  0.0000000  0  6G 5G24G 4G 9G 7G20
 -12899555.44844 -10051596.50644  21477426.5474   21477425.5094
  -9886047.47444  -7703409.39544  20427071.8554   20427071.6384
   2169310.82944   1690374.22944  21185583.7884   21185582.7224
   1669571.15344   1300964.14644  21577236.5064   21577235.9524
  10544197.77644   8216257.99544  23417673.6274   23417673.2904
  -8024736.82344  -6253037.42944  23678462.0404   23678462.4144
 96  2 29  1 57 30.0000000  0  6G 5G 4G 9G 7G24G20
 -12967487.03844 -10104530.20244  21464499.3124   21464498.2674
   2226070.67544   1734602.68844  21196384.9414   21196383.7724
   1723209.02744   1342759.88944  21587443.3224   21587442.5654
  10612936.63044   8269820.76344  23430752.9294   23430751.7874
  -9906710.05744  -7719510.09244  20423139.9014   20423139.9054
  -8121099.55644  -6328125.25944  23660124.5814   23660123.5634
 96  2 29  1 58  0.0000000  0  6G 5G24G 4G 9G 7G20
 -13035172.97144 -10157272.47244  21451619.1054   21451617.9334
  -9926837.97844  -7735194.16844  20419309.8074   20419309.6674
   2283250.25844   1779158.21344  21207265.9904   21207265.0484
   1777296.17344   1384905.71244  21597735.9274   21597735.0044
  10681690.38144   8323395.12944  23443836.4064   23443835.3894
  -8217441.42944  -6403196.81444  23641792.2954   23641792.5954
 96  2 29  1 58 30.0000000  0  6G 5G 4G 9G24G 7G20
 -13102570.25044 -10209789.81644  21438793.9064   21438793.3824
   2340858.63344   1824047.86144  21218228.6384   21218227.3464
   1831854.02644   1427418.31844  21608118.1464   21608117.0824
  -9946419.81644  -7750452.72944  20415583.5094   20415583.2014
  10750482.80044   8376999.62844  23456926.8144   23456927.6524
  -8313737.14044  -6478232.42344  23623467.2924   23623467.9164
 96  2 29  1 59  0.0000000  0  6G 5G24G 4G 9G 7G20
 -13169680.87144 -10262083.78944  21426023.0594   21426022.3044
  -9965462.16144  -7765290.90244  20411959.9494   20411959.6964
   2398901.77444   1869276.29044  21229273.7054   21229272.5684
   1886888.47944   1470302.30744  21618590.7034   21618590.1684
  10819317.70644   8430637.18844  23470025.2744   23470025.8044
  -8409984.59244  -6553230.42744  23605152.1604   23605151.5214
 96  2 29  1 59 30.0000000  0  6G 5G 4G 9G24G 7G20
 -13236529.02144 -10314173.24644  21413302.6154   21413301.7934
   2457358.05244   1914826.64244  21240397.2534   21240395.7434
   1942382.78544   1513544.61744  21629150.3264   21629149.9574
  -9983981.73444  -7779721.72544  20408435.7304   20408435.4274
  10888175.16344   8484292.35844  23483128.3214   23483128.9024
  -8506207.11444  -6628208.98644  23586842.1934   23586842.9664
 96  2 29  2  0  0.0000000  0  6G 5G24G 4G 9G 7G20
 -13303115.41344 -10366058.73444  21400631.5184   21400630.6154
 -10001959.83544  -7793730.61644  20405014.5564   20405014.3864
   2516263.43244   1960726.94744  21251606.8074   21251605.3814
   1998349.66044   1557155.16544  21639800.8054   21639800.3244
  10957072.68644   8537978.72844  23496239.8874   23496239.6624
  -8602372.55844  -6703143.08044  23568541.8254   23568541.6614
 96  2 29  2  0 30.0000000  0  6G 5G 4G 9G24G 7G20
 -13369442.86444 -10417742.44644  21388009.4084   21388008.5854
   2575650.12344   2007002.30244  21262907.8594   21262906.6484
   2054804.75844   1601146.14444  21650544.0134   21650543.6744
 -10019373.46244  -7807299.66244  20401701.1994   20401700.7034
  11026027.69444   8591709.89444  23509360.9804   23509361.3924
  -8698451.13344  -6778009.47844  23550258.2584   23550257.8534
 96  2 29  2  1  0.0000000  0  6G 5G24G 4G 9G 7G20
 -13435546.81144 -10469252.00044  21375430.4594   21375429.4424
 -10036257.70544  -7820456.20144  20398487.8464   20398487.4924
   2635482.68544   2053625.08844  21274293.5604   21274292.3654
   2111694.40944   1645475.73744  21661369.7224   21661369.3644
  11095003.43744   8645457.23244  23522487.3034   23522486.8414
  -8794482.40444  -6852839.01244  23531985.1034   23531984.9644
 96  2 29  2  1 30.0000000  0  6G 5G 4G 9G24G 7G20
 -13501409.05744 -10520573.21544  21362897.2504   21362896.5534
   2695747.78944   2100584.91344  21285761.5344   21285760.3904
   2169005.93944   1690134.06944  21672275.8984   21672275.3944
 -10052605.74344  -7833194.91844  20395376.9354   20395376.6704
  11163996.19044   8699217.83544  23535616.1384   23535616.1764
  -8890447.58844  -6927617.03944  23513723.0744   23513723.5674
 96  2 29  2  2  0.0000000  0  6G 5G24G 4G 9G 7G20
 -13566996.35244 -10571680.17744  21350416.4634   21350415.4254
 -10068387.45544  -7845492.34044  20392373.8034   20392373.5794
   2756458.86144   2147892.25044  21297314.4384   21297313.0364
   2226760.54044   1735137.64044  21683266.3584   21683265.9814
  11233035.24344   8753014.50244  23548753.3384   23548752.7084
  -8986304.13744  -7002310.41944  23495482.8414   23495481.4804
 96  2 29  2  2 30.0000000  0  6G 5G 4G 9G24G 7G20
 -13632315.60844 -10622578.28944  21337986.4564   21337985.4064
   2817565.95644   2195508.18244  21308942.5354   21308941.3674
   2284926.86344   1780462.04244  21694335.0404   21694334.4784
 -10083620.37644  -7857362.13444  20389475.1214   20389474.6884
  11302103.61444   8806833.99944  23561896.3254   23561897.2204
  -9082071.81844  -7076934.54944  23477257.9724   23477257.7684
 96  2 29  2  3  0.0000000  0  6G 5G24G 4G 9G 7G20
 -13697361.71944 -10673263.55944  21325608.5914   21325607.8404
 -10098311.41544  -7868809.68144  20386679.4264   20386679.2864
   2879061.89544   2243427.09844  21320645.1904   21320643.9214
   2343504.42444   1826106.88644  21705481.5414   21705480.5794
  11371199.94244   8860675.28644  23575045.5514   23575045.7804
  -9177755.48044  -7151493.19744  23459050.2384   23459050.2704
 96  2 29  2  3 30.0000000  0  7G 5G24G 4G 9G 7G 6G20
 -13762127.64344 -10723730.49344  21313283.9704   21313283.1464
 -10112442.98744  -7879821.27944  20383990.4444   20383990.0594
   2940961.62744   2291660.66644  21332424.3764   21332422.8894
   2402539.55344   1872108.27944  21716715.8224   21716715.2764
  11440342.24144   8914552.43244  23588202.3884   23588201.7054
        -0.75854                  25287788.7554
  -9273327.44344  -7225964.83244  23440863.2394   23440861.8284
 96  2 29  2  4  0.0000000  0  7G 5G24G 4G 9G 7G16G20
 -13826650.76044 -10774008.23144  21301006.2404   21301005.0574
 -10126055.89544  -7890428.72544  20381399.6964   20381399.4094
   3003246.99044   2340194.72644  21344276.5664   21344275.4754
   2462017.73444   1918454.90744  21728034.1324   21728033.5764
  11509517.04144   8968454.85444  23601366.9454   23601365.4134
        -0.59654                  24640166.5944
  -9368831.82744  -7300383.79744  23422688.7634   23422688.5684
 96  2 29  2  4 30.0000000  0  7G 5G24G 4G 9G 7G16G20
 -13890935.34644 -10824100.10544  21288773.2154   21288772.0494
 -10139174.43844  -7900650.94844  20378903.3794   20378903.0244
   3065926.73144   2389036.09244  21356204.4694   21356202.6534
   2521936.05544   1965144.50044  21739435.9454   21739435.0614
  11578713.58744   9022374.24144  23614534.4064   23614531.7604
    -92573.32144                  24622549.8834
  -9464270.49144  -7374751.55044  23404526.8084   23404527.9184
 96  2 29  2  5  0.0000000  0  7G 5G24G 4G 9G 7G16G20
 -13954973.68144 -10874000.09044  21276586.4904   21276585.7704
 -10151786.60844  -7910478.60044  20376503.2754   20376502.8704
   3129026.55844   2438204.79244  21368211.7304   21368210.2784
   2582303.86144   2012184.34144  21750923.7184   21750922.5304
  11647936.21444   9076313.99744  23627706.8564   23627706.6364
   -185207.11744                  24604924.6744
  -9559618.93544  -7449048.99744  23386383.5344   23386382.1284
 96  2 29  2  5 30.0000000  0  6G 5G24G 4G 9G 7G20
 -14018788.19444 -10923725.67144  21264443.3324   21264442.4764
 -10163907.65944  -7919923.55944  20374196.7334   20374196.3744
   3192514.40444   2487675.85444  21380292.9484   21380291.8254
   2643087.44844   2059548.17544  21762490.6934   21762490.0514
  11717162.96944   9130256.87744  23640879.5044   23640879.6794
  -9654901.64144  -7523295.20744  23368251.8594   23368253.7934
 96  2 29  2  6  0.0000000  0  6G 5G24G 4G 9G 7G20
 -14082373.19444 -10973272.41144  21252343.7854   21252343.0714
 -10175541.29644  -7928988.71744  20371983.2004   20371982.7614
   3256395.51644   2537453.35044  21392449.1494   21392448.0134
   2704259.11844   2107214.40844  21774131.0544   21774130.5314
  11786387.32044   9184197.92944  23654052.2084   23654053.3304
  -9750123.77544  -7597494.25344  23350132.0044   23350131.9224
 96  2 29  2  6 30.0000000  0  7G 5G24G 4G 9G 7G 6G20
 -14145690.27444 -11022610.37544  21240294.5584   21240293.9384
 -10186636.67944  -7937634.45444  20369871.5744   20369871.2674
   3320706.51444   2587565.81744  21404687.2504   21404685.9714
   2765832.14544   2155193.39044  21785847.9864   21785847.6434
  11855629.98144   9238153.22444  23667228.6154   23667230.4994
        -0.86354                  25204828.5324
  -9845243.83944  -7671613.73444  23332030.5524   23332030.2844
 96  2 29  2  7  0.0000000  0  7G 5G24G 4G 9G 7G 6G20
 -14208778.95944 -11071770.37744  21228288.8714   21228288.1334
 -10197215.65344  -7945877.79644  20367858.6454   20367858.1664
   3385398.14444   2637974.88844  21416997.6084   21416995.9924
   2827767.71744   2203454.86544  21797633.9894   21797633.0084
  11924871.97844   9292108.03544  23680405.8134   23680405.4374
    -72614.05844                  25191010.2144
  -9940319.24044  -7745698.43544  23313939.4914   23313939.9034
 96  2 29  2  7 30.0000000  0  7G 5G24G 4G 9G 7G 6G20
 -14271614.73944 -11120733.31344  21216331.8654   21216330.8734
 -10207261.26444  -7953705.53244  20365946.9854   20365946.6064
   3450482.70944   2688690.14244  21429382.5454   21429381.5144
   2890083.03644   2252012.25544  21809491.8124   21809491.6574
  11994142.77844   9346085.31344  23693587.7714   23693587.2854
   -145198.52344                  25177195.5774
 -10035338.22344  -7819739.16544  23295856.9084   23295857.0844
 96  2 29  2  8  0.0000000  0  6G 5G 4G 9G 7G24G20
 -14334188.91344 -11169492.40244  21204424.4104   21204423.3674
   3515960.97144   2739712.16744  21441842.7124   21441841.6164
   2952774.26244   2300862.55744  21821422.0154   21821421.6134
  12063430.26744   9400075.53944  23706772.0464   23706771.0054
 -10216783.79844  -7961125.67444  20364134.9274   20364134.5364
 -10130288.81044  -7893726.55544  23277788.8184   23277789.4314
 96  2 29  2  8 30.0000000  0  6G 5G24G 4G 9G 7G20
 -14396482.95644 -11218033.20544  21192570.3714   21192569.7364
 -10225773.23344  -7968130.41944  20362424.1544   20362423.9234
   3581819.21644   2791030.28444  21454375.3214   21454373.4034
   3015857.99544   2350018.71244  21833426.2864   21833425.7644
  12132752.34244   9454092.74844  23719963.8404   23719963.5694
 -10225158.58544  -7967651.04044  23259735.3434   23259735.6474
 96  2 29  2  9  0.0000000  0  7G 5G24G 4G 9G 7G 6G20
 -14458477.89244 -11266340.93444  21180772.8224   21180772.1104
 -10234218.21544  -7974710.90744  20360817.0754   20360816.6014
   3648057.00744   2842644.15944  21466980.0274   21466978.4774
   3079368.35744   2399507.30044  21845511.8664   21845511.4654
  12202134.97044   9508157.13944  23733167.5474   23733166.9304
        -0.73854                  25135829.1484
 -10319921.56144  -8041492.30344  23241702.6164   23241702.3524
 96  2 29  2  9 30.0000000  0  7G 5G24G 4G 9G 7G 6G20
 -14520159.20944 -11314404.28844  21169035.4224   21169034.4944
 -10242120.72544  -7980868.69844  20359313.3074   20359313.0034
   3714673.69244   2894553.26544  21479656.6254   21479655.4084
   3143301.99344   2449325.71544  21857678.0444   21857677.6724
  12271557.46544   9562252.58744  23746377.7684   23746376.9704
    -72293.30244                  25122071.9304
 -10414557.99544  -8115234.92844  23223693.4964   23223694.9494
 96  2 29  2 10  0.0000000  0  7G 5G24G 4G 9G 7G 6G20
 -14581539.66944 -11362233.21644  21157355.2504   21157353.6954
 -10249498.83444  -7986617.85644  20357909.2204   20357909.0714
   3781642.43244   2946736.70144  21492400.4754   21492399.1654
   3207646.79044   2499464.51644  21869922.6704   21869922.0504
  12340997.54844   9616361.72944  23759591.0144   23759590.4154
   -144523.60444                  25108324.7584
 -10509090.62944  -8188896.64944  23205704.5304   23205704.6634
 96  2 29  2 10 30.0000000  0  7G 5G24G 4G 9G 7G 6G20
 -14642619.59544 -11409827.95444  21145732.0814   21145731.0554
 -10256346.76744  -7991953.89644  20356606.1984   20356605.7574
   3848952.42444   2999186.04844  21505209.3274   21505207.5264
   3272399.19644   2549920.94144  21882244.8294   21882243.4984
  12410465.92744   9670492.90844  23772811.2744   23772812.1054
   -216697.93344                  25094590.5394
 -10603530.87644  -8262486.43744  23187733.7574   23187732.8154
 96  2 29  2 11  0.0000000  0  7G 5G24G 4G 9G 7G 6G20
 -14703409.83244 -11457196.95244  21134164.0434   21134163.1344
 -10262664.82444  -7996877.04344  20355404.0534   20355403.5374
   3916623.59944   3051916.83944  21518086.1864   21518085.2274
   3337549.49044   2600687.41044  21894642.2644   21894641.5024
  12479945.86944   9724633.10244  23786032.9664   23786034.3334
   -288833.46944                  25080864.8984
 -10697884.32444  -8336008.58944  23169778.0594   23169777.7024
 96  2 29  2 11 30.0000000  0  7G 5G24G 4G 9G 7G16G20
 -14763904.17244 -11504335.38944  21122652.5014   21122651.2754
 -10268463.42344  -8001395.41944  20354300.3974   20354300.0464
   3984672.87044   3104942.25044  21531035.4504   21531034.1614
   3403080.39144   2651750.44544  21907112.0414   21907111.5154
  12549427.60844   9778774.77944  23799254.2134
        -0.47254                  24374350.5394
 -10792150.89844  -8409462.99244  23151840.2414   23151839.7964
 96  2 29  2 12  0.0000000  0  6G 5G24G 4G 9G 7G20
 -14824115.78544 -11551253.52244  21111194.5584   21111193.5124
 -10273765.12044  -8005526.59744  20353291.4834   20353291.1454
   4053092.59644   3158256.33244  21544055.4944   21544054.0274
   3468987.29344   2703106.48044  21919653.5334   21919653.0474
  12618912.42644   9832918.81244  23812477.2064   23812478.2444
 -10886331.74344  -8482850.62844  23133918.5504   23133917.9584
 96  2 29  2 12 30.0000000  0  7G 5G24G 4G 9G 7G16G20
 -14884010.45644 -11597924.68944  21099796.8404   21099796.0574
 -10278529.18844  -8009238.84344  20352385.0554   20352384.5014
   4121939.66644   3211903.40444  21557156.6534   21557155.6404
   3535306.55344   2754783.82744  21932274.0334   21932273.4074
  12688441.08644   9887097.04844  23825707.7904   23825712.2944
        -0.49954                  24338691.4294
 -10980365.85844  -8556123.92944  23116024.7104   23116023.3284
 96  2 29  2 13  0.0000000  0  7G 5G24G 4G 9G 7G16G20
 -14943617.56444 -11644371.77644  21088453.9434   21088452.9864
 -10282790.97744  -8012559.70444  20351573.7174   20351573.4764
   4191190.02244   3265864.72544  21570334.6474   21570333.4184
   3602020.87744   2806769.01444  21944969.4834   21944968.7884
  12757988.42344   9941290.83644  23838941.5354   23838940.8644
    -93796.52444    -73087.99544  24320843.1604   24320841.0084
 -11074269.19344  -8629295.31644  23098154.7894   23098152.9994
 96  2 29  2 13 30.0000000  0  8G 5G24G 4G 9G 7G 6G16G20
 -15002919.78044 -11690581.28344  21077168.9844   21077168.2444
 -10286551.91544  -8015490.28944  20350858.3024   20350857.9434
   4260819.36244   3320121.36044  21583584.6224   21583583.0114
   3669135.09044   2859065.79044  21957740.9704   21957740.6404
  12827565.75244   9995505.89844  23852182.8814   23852180.7034
        -0.02854         0.41554  25012316.2154
   -187660.39844                  24302980.2084
 -11168022.62844  -8702349.91444  23080314.7374   23080313.6994
 96  2 29  2 14  0.0000000  0  8G 5G24G 4G 9G 7G 6G16G20
 -15061964.90244 -11736590.46244  21065933.3464   21065932.1654
 -10289831.65544  -8018045.91744  20350234.2734   20350234.0144
   4330765.46644   3374624.82244  21596894.7344   21596893.5134
   3736611.39244   2911644.72044  21970581.2704   21970580.8284
  12897138.62044                  23865420.9874
    -71940.42444                  24998627.0964
   -281605.10044                  24285103.6194
 -11261673.36644  -8775324.48344  23062492.7954   23062493.6464
 96  2 29  2 14 30.0000000  0  8G 5G24G 4G 9G 7G 6G16G20
 -15120752.17144 -11782398.71444  21054746.3174   21054745.2204
 -10292600.16844  -8020203.18544  20349707.1654   20349706.8714
   4401026.32944   3429373.55044  21610265.0544   21610263.8414
   3804432.51244   2964492.34144  21983487.0644   21983486.6324
  12966710.36444  10103930.08344  23878660.8184   23878659.6424
   -143878.00444                  24984940.4464
   -375623.42144   -292694.19444  24267213.3394
 -11355241.84944  -8848234.95544  23044687.3564   23044685.5364
 96  2 29  2 15  0.0000000  0  8G 5G24G 4G 9G 7G 6G16G20
 -15179243.74044 -11827976.54844  21043615.9654   21043614.8204
 -10294835.42744  -8021944.93144  20349281.7234   20349281.3864
   4471605.97644   3484370.68544  21623695.6734   21623694.6274
   3872615.24744   3017621.72544  21996460.9544   21996461.2704
  13036298.55444  10158154.64644  23891902.5624   23891899.7754
   -215783.47244   -168142.39844  24971258.1454   24971257.0084
   -469670.48944   -365977.53344  24249316.2734   24249317.5524
 -11448718.16244  -8921073.60644  23026899.6054   23026898.4484
 96  2 29  2 15 30.0000000  0  8G 5G24G 4G 9G 7G 6G16G20
 -15237399.01344 -11873292.33944  21032549.1754   21032548.1264
 -10296501.12144  -8023242.85944  20348964.8464   20348964.6464
   4542537.29344   3539641.84944  21637193.4844   21637192.4544
   3941178.17144   3071047.37644  22009508.7704   22009508.4044
  13105932.99344  10212415.27844  23905154.0184   23905156.5394
   -287609.53744                  24957590.2504
   -563681.27744   -439232.59944  24231426.4824   24231427.0374
 -11542076.00144  -8993819.95644  23009134.7044   23009134.9384
 96  2 29  2 16  0.0000000  0  8G 5G24G 4G 9G 7G 6G16G20
 -15295204.31144 -11918335.41444  21021549.4904   21021548.6344
 -10297581.86144  -8024084.98244  20348759.1934   20348758.8354
   4613852.49344   3595212.14244  21650764.2944   21650763.0114
   4010129.65844   3124775.80944  22022630.1054   22022629.0464
  13175635.08844                  23918417.6894
   -359335.85044                  24943937.9244
   -657643.90244   -512450.19344  24213545.8764   24213547.4414
 -11635304.60644  -9066465.57944  22991392.6954   22991393.1724
 96  2 29  2 16 30.0000000  0  7G 5G24G 4G 9G 7G16G20
 -15352680.08144 -11963121.71544  21010612.1004   21010610.9774
 -10298134.33144  -8024515.46344  20348654.1744   20348653.8784
   4685525.81244   3651061.48344  21664403.6594   21664402.3724
   4079431.89544   3178777.55144  22035817.9804   22035817.3804
  13245371.20244  10321068.92444  23931688.1844
   -751601.64244   -585663.96144  24195665.0324   24195663.9344
 -11728421.46644  -9139024.15344  22973673.3454   22973672.7994
 96  2 29  2 17  0.0000000  0  7G 5G24G 4G 9G 7G16G20
 -15409814.74044 -12007642.22244  20999739.4484   20999738.5784
 -10298181.35944  -8024552.09644  20348645.2654   20348644.8204
   4757562.48344   3707193.96544  21678111.8994   21678110.3984
   4149100.24344   3233064.56444  22049074.8824   22049074.4964
  13315149.58744  10375442.04044  23944966.5154   23944966.8904
   -845549.87944   -658870.31944  24177787.5604   24177789.6704
 -11821398.09644  -9211473.46144  22955980.9554   22955979.9704
 96  2 29  2 17 30.0000000  0  7G 5G24G 4G 9G 7G16G20
 -15466627.16444 -12051911.63344  20988928.5504   20988927.9394
 -10297718.19744  -8024191.17644  20348733.3914   20348733.1154
   4829967.41944   3763613.40344  21691889.6224   21691888.4684
   4219124.05044   3287628.56544  22062400.0044   22062399.4794
  13384975.63644                  23958253.4804
   -939516.22044   -732090.79544  24159907.3334   24159908.2904
 -11914224.02844  -9283805.32644  22938316.1694   22938316.3524
 96  2 29  2 18  0.0000000  0  8G 5G24G 4G 9G 7G 6G16G20
 -15523131.83344 -12095941.23744  20978176.0604   20978174.7664
 -10296744.40944  -8023432.36744  20348918.4444   20348918.0764
   4902730.04444   3820311.56344  21705736.2214   21705734.9054
   4289488.06644   3342457.66444  22075790.6514   22075789.6114
  13454838.14544  10484287.38044  23971549.0354
  23971547.3894         -0.75454  24889474.9394
  -1033519.12044   -805339.73244  24142018.7244   24142020.2414
 -12006900.07144  -9356020.40344  22920681.5844   22920682.1024
 96  2 29  2 18 30.0000000  0  8G 5G24G 4G 9G 7G 6G16G20
 -15579342.09144 -12139741.43444  20967479.3054   20967478.3534
 -10295265.06844  -8022279.62344  20349200.1844   20349199.8154
   4975831.35044   3877273.62444  21719647.0974   21719645.7744
   4360186.56644   3397547.40344  22089243.5524   22089242.8564
  13524717.83944  10538739.10544  23984846.6384
  23984847.2624     -71445.56944  24875877.9174
  -1127551.91144   -878612.00244  24124125.4694   24124125.5604
 -12099432.73244  -9428123.75144  22903072.4534   22903073.0974
 96  2 29  2 19  0.0000000  0  8G 5G24G 4G 9G 7G 6G16G20
 -15635279.99044 -12183329.39144  20956834.8914   20956834.1344
 -10293293.78344  -8020743.54244  20349575.0044   20349574.7244
   5049239.86744   3934475.07344  21733616.1164   21733614.9574
   4431207.63544   3452888.48444  22102758.4154   22102757.9734
  13594575.23944  10593173.47144  23998140.2564
  23998139.6094    -142878.25244  24862286.5074
  -1221626.46144   -951916.73544  24106222.9614   24106224.0024
 -12191844.45544  -9500132.87344  22885486.9044   22885486.7484
 96  2 29  2 19 30.0000000  0  8G 5G24G 4G 9G 7G 6G16G20
 -15690909.73944 -12226677.23744  20946248.7264   20946247.7574
 -10290800.01944  -8018800.33744  20350049.7484   20350049.4334
   5122969.72144   3991926.91644  21747646.3104   21747645.0154
   4502574.10544   3508498.71244  22116338.8444   22116338.5414
  13664425.31044  10647602.06644  24011431.8924   24011432.2564
   -214294.38544   -166982.73344  24848700.2624
  -1315714.28644  -1025231.83744  24088318.8754   24088319.3694
 -12284118.68944  -9572034.87544  22867927.0124   22867927.6214
 96  2 29  2 20  0.0000000  0  8G 5G24G 4G 9G 7G 6G16G20
 -15746216.32644 -12269773.26844  20935724.4934   20935723.5984
 -10287807.65644  -8016468.61344  20350618.9744   20350618.5904
   5197009.30444   4049620.11044  21761735.0734   21761733.7884
   4574287.19744   3564379.03444  22129985.1984   22129984.8844
  13734256.73944  10702016.14744  24024719.6694   24024719.6964
   -285691.82344   -222617.03944  24835112.5614   24835115.0254
  -1409813.88244  -1098556.13644  24070412.7974   24070413.4164
 -12376269.11144  -9643840.37444  22850391.8024   22850392.2544
 96  2 29  2 20 30.0000000  0  8G 5G24G 4G 9G 7G 6G16G20
 -15801153.80444 -12312581.68644  20925269.9504   20925269.0504
 -10284304.75844  -8013739.06644  20351285.5104   20351285.1574
   5271381.36644   4107572.37744  21775887.9954   21775886.4764
   4646386.54044   3620560.33244  22143705.9794   22143705.3624
  13804096.96544  10756437.06644  24038010.0384   24038009.5934
   -357006.18244   -278186.70744  24821539.6844
  -1503903.79044  -1171872.86944  24052506.8584   24052507.9324
 -12468260.55644  -9715521.99644  22832886.3394   22832886.5174
 96  2 29  2 21  0.0000000  0  8G 5G24G 4G 9G 7G 6G16G20
 -15855713.24744 -12355095.52944  20914888.0004   20914886.9274
 -10280298.23744  -8010617.09044  20352048.0474   20352047.7034
   5346083.78444   4165782.05944  21790103.4294   21790102.0524
   4718860.20744   3677033.31544  22157497.4074   22157496.9554
  13873958.19844  10810874.41944  24051303.8284   24051303.1384
   -428237.89544   -333691.90044  24807985.1294
  -1597986.85244  -1245184.29944  24034603.6144   24034604.9194
 -12560099.28544  -9787084.62144  22815410.3244   22815410.8644
 96  2 29  2 21 30.0000000  0  8G 5G24G 4G 9G 7G 6G16G20
 -15909926.16044 -12397339.34044  20904571.4314   20904570.6644
 -10275817.87744  -8007125.88944  20352900.5794   20352900.1364
   5421099.24644   4224235.66744  21804378.7544   21804376.7664
   4791659.62344   3733760.12544  22171350.6664   22171349.5954
  13943838.43844  10865326.56944  24064601.9104   24064604.4704
   -499424.41244   -389161.84244  24794437.4794
  -1692081.60844  -1318504.81144  24016697.8184   24016697.9164
 -12651814.27344  -9858550.82944  22797958.3524   22797958.5044
 96  2 29  2 22  0.0000000  0  8G 5G24G 4G 9G 7G 6G16G20
 -15963796.20744 -12439315.99844  20894320.2984   20894319.1074
 -10270838.86044  -8003246.12144  20353848.2214   20353847.8324
   5496449.97944   4282950.53344  21818717.2934   21818715.4944
   4864793.24344   3790747.36244  22185267.3694   22185266.6764
  14013760.28644  10919811.10244  24077908.8944   24077908.3184
   -570531.18444   -444569.67044  24780907.3224   24780907.2914
  -1786162.45044  -1391814.51844  23998794.5174   23998797.0284
 -12743380.89144  -9929901.42544  22780533.5594   22780532.9744
 96  2 29  2 22 30.0000000  0  8G 5G24G 4G 9G 7G 6G16G20
 -16017319.22544 -12481022.24044  20884135.1824   20884134.5424
 -10265339.32444  -7998960.75744  20354894.6744   20354894.2204
   5572139.88544   4341929.68344  21833120.5824   21833119.4864
   4938265.36244   3847998.35444  22199248.1574   22199248.1044
  14083741.43544  10974341.85644  24091225.1034   24091224.6664
   -641562.34744   -499918.64644  24767390.9424   24767390.1644
  -1880202.30644  -1465092.23544  23980899.6424   23980899.9524
 -12834788.23144 -10001127.91344  22763138.6484   22763137.2264
 96  2 29  2 23  0.0000000  0  8G 5G24G 4G 9G 7G 6G16G20
 -16070505.41644 -12522466.01444  20874014.2784   20874013.2864
 -10259311.19044  -7994263.49844  20356041.7254   20356041.2494
   5648167.56244   4401172.03544  21847588.3114   21847586.6734
   5012066.19544   3905505.48144  22213291.9204   22213291.8234
  14153794.77744  11028928.83044  24104555.1024   24104556.6254
   -712539.16644   -555225.25744  24753883.4434   24753884.5764
  -1974194.92344  -1538333.25244  23963012.8764   23963017.0734
 -12926039.62744 -10072232.86944  22745775.1994   22745774.2134
 96  2 29  2 23 30.0000000  0  8G 5G24G 4G 9G 7G 6G16G20
 -16123393.88244 -12563677.79944  20863949.7224   20863948.5264
 -10252782.31044  -7989176.04444  20357284.1794   20357283.6594
   5724501.37244   4460652.93844  21862114.1474   21862112.7104
   5086169.71444   3963248.47244  22227393.2954   22227393.1324
  14223884.60144  11083544.21544  24117893.7504   24117892.7714
   -783493.26444                  24740380.0604
  -2068183.80944  -1611571.30544  23945127.9004   23945128.8914
 -13017159.30344 -10143235.20044  22728434.9344   22728434.0814
 96  2 29  2 24  0.0000000  0  8G 5G24G 4G 9G 7G 6G16G20
 -16175981.99644 -12604655.54144  20853942.6634   20853941.5234
 -10245745.35044  -7983692.68744  20358623.1144   20358622.6704
   5801127.13644   4520361.32344  21876695.7724   21876694.2894
   5160579.63044   4021230.21844  22241553.4184   22241552.9884
  14294006.73444  11138184.83944  24131237.0934   24131238.6794
   -854434.71844                  24726880.3544
  -2162184.57944  -1684818.64944  23927240.2874   23927239.9814
 -13108149.83144 -10214136.89444  22711119.5844   22711118.7844
 96  2 29  2 24 30.0000000  0  8G 5G24G 4G 9G 7G 6G16G20
 -16228243.99044 -12645379.16644  20843997.6454   20843996.7914
 -10238207.42244  -7977818.96644  20360057.5164   20360057.0774
   5878041.62744   4580294.69544  21891331.6434   21891329.9504
   5235302.45044   4079455.78544  22255772.8284   22255772.3264
  14364168.29044  11192856.15844  24144588.5574   24144587.5924
   -925365.36344   -721063.72844  24713382.8024
  -2256192.52444  -1758071.55844  23909351.4194   23909350.9024
 -13198998.25644 -10284927.85844  22693831.9964   22693832.4544
 96  2 29  2 25  0.0000000  0  8G 5G24G 4G 9G 7G 6G16G20
 -16280177.23344 -12685846.62244  20834114.8434   20834113.9454
 -10230165.99244  -7971552.90444  20361588.0224   20361587.4844
   5955247.65344   4640455.23844  21906023.6954   21906022.1244
   5310340.13344   4137926.70344  22270052.2794   22270051.1524
  14434366.67944  11247556.25944  24157947.8264   24157946.0924
   -996265.36544   -776310.46744  24699892.2594   24699889.9984
  -2350202.08644  -1831325.74944  23891461.6754   23891463.5034
 -13289689.76744 -10355596.53144  22676573.9644   22676573.6334
 96  2 29  2 25 30.0000000  0  8G 5G24G 4G 9G 7G 6G16G20
 -16331762.90744 -12726043.24544  20824298.8444   20824297.4464
 -10221614.53244  -7964889.41844  20363215.1064   20363214.7204
   6032754.37244   4700850.09144  21920772.5664   21920770.6584
   5385699.29044   4196648.12044  22284392.3574   22284391.6794
  14504595.16244  11302279.78844  24171310.7504   24171309.0994
  -1067115.44044   -831518.29444  24686409.8304   24686410.3304
  -2444190.69044  -1904563.54844  23873576.4184   23873578.1314
 -13380211.23644 -10426132.73944  22659348.0004   22659347.9534
 96  2 29  2 26  0.0000000  0  8G 5G24G 4G 9G 7G 6G16G20
 -16382986.74544 -12765957.92044  20814550.9444   20814549.8364
 -10212573.54244  -7957844.47644  20364935.7924   20364935.2804
   6110548.14944   4761468.62144  21935576.1674   21935574.7804
   5461364.55244   4255608.06444  22298791.3714   22298790.0394
  14574839.60144  11357015.72144  24184678.0924   24184678.2094
  -1137912.89044   -886685.11344  24672937.8504   24672935.6134
  -2538150.63844  -1977779.04944  23855696.4324   23855696.8484
 -13470569.76744 -10496541.95644  22642153.3654   22642153.6684
 96  2 29  2 26 30.0000000  0  8G 5G24G 4G 9G 7G 6G16G20
 -16433833.56044 -12805578.80444  20804875.1074   20804873.9664
 -10203065.84744  -7950435.87144  20366744.9004   20366744.4754
   6188615.04544   4822299.97544  21950431.7924   21950430.2524
   5537336.87844   4314807.28244  22313247.9514   22313246.6164
  14645087.15644  11411754.08244  24198045.7344   24198045.4404
  -1208650.67644   -941805.41644  24659476.0944
  -2632064.88944  -2050958.92344  23837825.4904   23837827.3074
 -13560747.82744 -10566810.53444  22624992.4034   22624992.6114
 96  2 29  2 27  0.0000000  0  8G 5G24G 4G 9G 7G 6G16G20
 -16484299.33844 -12844902.78144  20795271.8594   20795270.6994
 -10193089.99144  -7942662.46544  20368643.0474   20368642.7394
   6266963.60844   4883350.81144  21965341.1914   21965339.5534
   5613615.41744   4374245.10044  22327762.9844   22327763.0534
  14715335.42144  11466492.97844  24211419.2054
  -1279331.16944                  24646027.4054
  -2725921.64044  -2124093.99144  23819964.9314   23819964.1744
 -13650747.18744 -10636939.88044  22607867.0964   22607866.5834
 96  2 29  2 27 30.0000000  0  7G 5G24G 4G 9G 6G16G20
 -16534350.99744 -12883904.06844  20785747.4154   20785746.1844
 -10182625.66444  -7934508.43144  20370634.4024   20370634.0474
   6345623.66644   4944644.37244  21980309.8104   21980308.6424
   5690229.46244   4433944.33144  22342341.3844   22342342.0294
  -1349940.64244                  24632589.5054
  -2819694.42444  -2197163.64144  23802120.7824   23802122.3684
 -13740531.14644 -10706901.38644  22590782.1014   22590781.1784
 96  2 29  2 28  0.0000000  0  7G 5G24G 4G 9G 6G16G20
 -16584034.69444 -12922618.63444  20776292.7184   20776291.8654
 -10171706.09644  -7925999.66744  20372712.2634   20372711.9234
   6424550.78944   5006146.02644  21995329.0274   21995327.9114
   5767140.00244   4493874.60544  22356977.8574   22356977.8854
  -1420524.26744  -1106902.58744  24619156.0244
  -2913424.90244  -2270200.34044  23784283.7364   23784285.5964
 -13830130.12044 -10776718.75644  22573732.0384   22573731.4924
 96  2 29  2 28 30.0000000  0  8G 5G24G 4G 9G 7G 6G16G20
 -16633358.19744 -12961052.52344  20766906.8024   20766905.9794
 -10160295.69544  -7917108.43544  20374883.6864   20374883.3214
   6503761.46044   5067868.62944  22010402.8664   22010401.3244
   5844363.35344   4554048.63244  22371673.7474   22371672.9074
        -0.75754        -0.28254  24251545.3274   24251545.7914
  -1491085.71344  -1161885.44244  24605730.4954   24605727.2794
  -3007099.22644  -2343193.27144  23766458.1854   23766458.5324
 -13919532.61844 -10846383.01644  22556719.1094   22556718.5814
 96  2 29  2 29  0.0000000  0  8G 5G24G 4G 9G 7G 6G16G20
 -16682369.74744 -12999243.33944  20757580.1544   20757579.0814
 -10148402.20544  -7907840.76844  20377146.9484   20377146.6334
   6583243.21844   5129802.46744  22025527.5374   22025525.9374
   5921865.07444   4614439.57644  22386421.6044   22386421.0224
     70315.54744     54791.63944  24264926.0094   24264926.0184
  -1561656.31144                  24592300.6414
  -3100755.93044  -2416172.48744  23748636.3144   23748636.5604
 -14008788.25044 -10915932.83144  22539733.8204   22539734.1064
 96  2 29  2 29 30.0000000  0  8G 5G24G 4G 9G 7G 6G16G20
 -16731081.20444 -13037200.31344  20748310.9584   20748309.8434
 -10136016.52344  -7898189.57944  20379503.8864   20379503.4714
   6662984.03144   5191938.17344  22040701.3584   22040700.0504
   5999638.05044   4675041.88844  22401221.1764   22401220.5054
    140634.32844    109585.51344  24278306.4774
  -1632229.04344  -1271867.11644  24578871.6294   24578873.1754
  -3194399.27444  -2489141.27944  23730816.5144   23730818.2454
 -14097905.56144 -10985374.87944  22522774.5384   22522774.6064
 96  2 29  2 30  0.0000000  0  8G 5G24G 4G 9G 7G 6G16G20
 -16779437.39144 -13074880.44944  20739108.8894   20739107.9134
 -10123092.26544  -7888118.71944  20381963.2164   20381962.9374
   6743015.10944   5254300.05644  22055930.8884   22055929.0454
   6077722.63044   4735887.00644  22416079.8094   22416079.0414
    210994.17344    164411.41244  24291696.2594
  -1702757.07544  -1326823.98144  24565451.0234   24565449.8414
  -3287982.61844  -2562063.31244  23713007.7444   23713009.2374
 -14186855.50144 -11054686.49144  22505848.9574   22505848.4314
 96  2 29  2 30 30.0000000  0  8G 5G24G 4G 9G 7G 6G16G20
 -16827435.41944 -13112281.50244  20729975.1084   20729974.2294
 -10109642.96944  -7877638.73744  20384522.4514   20384522.0824
   6823322.48044   5316877.23544  22071212.3984   22071211.1634
   6156104.76744   4796963.98344  22430995.4394   22430994.7614
    281385.18744                  24305090.0734
  -1773243.61844  -1381748.47244  24552038.6324   24552037.3814
  -3381514.82744  -2634945.50944  23695209.4654   23695211.1204
 -14275647.52744 -11123875.05544  22488952.3204   22488952.0284
 96  2 29  2 31  0.0000000  0  8G 5G24G 4G 9G 7G 6G16G20
 -16875056.52144 -13149388.84844  20720913.2974   20720912.3514
 -10095685.50844  -7866762.78444  20387178.5464   20387178.2164
   6903907.35044   5379670.63544  22086547.2364   22086546.1754
   6234779.83744   4858269.22044  22445967.0934   22445966.8134
    351804.31644                  24318490.7134
  -1843669.95044  -1436626.02744  24538636.8834   24538635.9564
  -3474981.99444  -2707777.02044  23677422.4454   23677423.9364
 -14364268.86944 -11192930.61944  22472088.3394   22472088.0594
 96  2 29  2 31 30.0000000  0  8G 5G24G 4G 9G 7G 6G16G20
 -16922277.06744 -13186184.06844  20711927.3984   20711926.3594
 -10081223.05244  -7855493.32844  20389930.4584   20389930.0814
   6984771.96044   5442682.02944  22101935.2774   22101933.9344
   6313746.43544   4919801.62644  22460993.2054   22460993.5304
    422254.82844    329030.00444  24331897.8424
  -1914025.06944  -1491448.17144  24525248.3714   24525247.1784
  -3568368.27144  -2780545.51044  23659651.6194   23659651.9604
 -14452691.49044 -11261831.33444  22455262.1284   22455261.4994
 96  2 29  2 32  0.0000000  0  8G 5G24G 4G 9G 7G 6G16G20
 -16969104.66944 -13222673.10244  20703016.4944   20703015.1604
 -10066281.64744  -7843850.66644  20392773.9484   20392773.5994
   7065898.60044   5505897.59844  22117372.7744   22117371.8794
   6392976.02244   4981538.94844  22476070.5394   22476070.7634
    492707.16544    383927.93344  24345303.8684
  -1984326.06844  -1546228.10544  24511869.7324   24511871.8424
  -3661694.39944  -2853267.13244  23641892.8034   23641893.1964
 -14540920.95744 -11330581.55044  22438472.9884   22438473.2764
 96  2 29  2 32 30.0000000  0  8G 5G24G 4G 9G 7G 6G16G20
 -17015526.95144 -13258846.30344  20694182.3914   20694181.7114
 -10050832.05244  -7831812.01044  20395713.8864   20395713.4074
   7147333.49344   5569353.37144  22132869.6444   22132868.7794
   6472483.51744   5043492.81744  22491200.8474   22491200.3254
    563193.88944    438852.65744  24358718.4094   24358722.1394
  -2054542.50244  -1600942.07644  24498507.5494   24498506.6694
  -3754923.05144  -2925912.80844  23624151.8214   23624150.0074
 -14628910.84944 -11399145.08844  22421727.9244   22421727.4534
 96  2 29  2 33  0.0000000  0  8G 5G24G 4G 9G 7G 6G16G20
 -17061556.87644 -13294713.76544  20685423.1474   20685422.0834
 -10034893.13144  -7819392.05944  20398746.9194   20398746.5904
   7229067.29444   5633042.05144  22148423.5144   22148422.2354
   6552256.00744   5105653.18544  22506381.2474   22506380.4224
    633714.14844                  24372136.7454
  -2124685.98944  -1655599.29644  24485160.0894   24485158.7224
  -3848064.18044  -2998490.28144  23606427.3544   23606428.9014
 -14716662.96544 -11467523.34044  22405029.4504   22405028.7644
 96  2 29  2 33 30.0000000  0  8G 5G24G 4G 9G 7G 6G16G20
 -17107230.35744 -13330303.48844  20676732.0554   20676730.9874
 -10018498.14244  -7806616.73344  20401866.7074   20401866.3394
   7311045.10344   5696920.87644  22164023.3664   22164021.7944
   6632262.12144   5167995.60444  22521605.7984   22521604.3344
    704247.70844                  24385558.5084
  -2194804.87644  -1710237.32944  24471816.6064   24471816.9814
  -3941157.70344  -3071030.67144  23588711.9584   23588712.9464
 -14804199.96144 -11535733.97444  22388371.6454   22388370.4924
 96  2 29  2 34  0.0000000  0  8G 5G24G 4G 9G 7G 6G16G20
 -17152536.11844 -13365606.67044  20668110.4634   20668109.5754
 -10001645.65244  -7793484.91244  20405073.5734   20405073.1484
   7393263.48344   5760987.14344  22179669.0934   22179667.9744
   6712522.23544   5230535.94844  22536878.4234   22536877.7724
    774817.47044                  24398988.5864
  -2264908.20944  -1764863.24244  24458476.3424   24458475.6684
  -4034193.11444  -3143525.76044  23571009.5494   23571010.7064
 -14891524.53944 -11603779.09244  22371754.6404   22371753.4494
 96  2 29  2 34 30.0000000  0  8G 5G24G 4G 9G 7G 6G16G20
 -17197466.77944 -13400617.56544  20659560.3884   20659559.3554
  -9984343.46244  -7780002.67044  20408366.2204   20408365.6614
   7475723.03544   5825241.35344  22195360.5234   22195359.1114
   6793051.67844   5293286.14544  22552202.1864   22552201.5814
    845446.00944                  24412427.0944
  -2334995.68144  -1819476.78644  24445138.7994   24445138.4304
  -4127150.22744  -3215959.86144  23553319.4924   23553320.3144
 -14978627.94344 -11671651.86144  22355179.1634   22355178.7834
 96  2 29  2 35  0.0000000  0  8G 5G24G 4G 9G 7G 6G16G20
 -17242002.91944 -13435321.04744  20651085.5994   20651084.5574
  -9966595.52444  -7766173.09344  20411743.4594   20411742.9804
   7558405.25944   5889669.05844  22211093.7794   22211092.7744
   6873866.30844   5356258.56944  22567581.1644   22567581.4254
    916127.19844                  24425877.1924
  -2405061.15144  -1874073.19244  24431805.7504   24431805.0074
  -4220017.24244  -3288323.73044  23535646.6424   23535646.1294
 -15065517.31544 -11739357.84644  22338645.0074   22338644.5964
 96  2 29  2 35 30.0000000  0  8G 5G24G 4G 9G 7G 6G16G20
 -17286125.70144 -13469702.42644  20642689.1474   20642688.1264
  -9948395.91144  -7751991.56844  20415206.8164   20415206.3584
   7641324.24044   5954281.25444  22226872.7564   22226871.8514
   6954974.11244   5419459.43744  22583015.1204   22583014.6434
    986851.40244                  24439338.1894
  -2475107.10744  -1928654.40344  24418476.3414   24418474.0134
  -4312774.19644  -3360601.85044  23517995.6994   23517996.0244
 -15152203.38944 -11806905.41044  22322148.9804   22322148.7174
 96  2 29  2 36  0.0000000  0  8G 5G24G 4G 9G 7G 6G16G20
 -17329840.83344 -13503766.15744  20634370.4384   20634369.4424
  -9929761.57344  -7737471.28844  20418753.0044   20418752.3664
   7724491.42244   6019086.85844  22242698.7484   22242698.0384
   7036343.06344   5482863.79444  22598499.3834   22598498.7594
   1057595.96844                  24452798.0494
  -2545128.03844  -1983216.15744  24405153.3084   24405151.3124
  -4405430.32444  -3432801.39044  23500364.9394   23500365.2344
 -15238712.18544 -11874314.85644  22305686.7134   22305686.1554
 96  2 29  2 36 30.0000000  0  8G 5G24G 4G 9G 7G 6G16G20
 -17373146.17844 -13537510.57244  20626129.9024   20626128.8374
  -9910677.28644  -7722600.40544  20422384.3964   20422383.9844
   7807920.09644   6084096.22044  22258575.0264   22258573.8084
   7117963.12444   5546463.82944  22614031.7384   22614031.4334
   1128347.01044                  24466263.6264
  -2615096.11544  -2037736.66944  24391836.9854   24391838.3954
  -4497973.87744  -3504913.22244  23482754.1604   23482755.8564
 -15325021.31644 -11941568.71744  22289262.9464   22289262.7954
 96  2 29  2 37  0.0000000  0  8G 5G24G 4G 9G 7G 6G16G20
 -17416033.31044 -13570929.10944  20617968.7094   20617967.5244
  -9891110.05244  -7707353.19844  20426108.0624   20426107.6074
   7891618.81744   6149316.00744  22274502.2414   22274501.4594
   7199838.71644   5610262.97344  22629612.2014   22629611.8284
   1199101.84744                  24479727.8434
  -2685010.21044  -2092215.16644  24378533.7134   24378533.3574
  -4590409.11144  -3576940.62944  23465163.5334   23465165.4014
 -15411127.18844 -12008664.19144  22272877.5594   22272877.3414
 96  2 29  2 37 30.0000000  0  8G 5G24G 4G 9G 7G 6G16G20
 -17458514.19144 -13604031.09244  20609884.8554   20609883.5884
  -9871053.33344  -7691724.57844  20429924.5534   20429924.1994
   7975589.69744   6214747.86244  22290481.5964   22290481.2644
   7281944.40044   5674241.41044  22645235.9934   22645235.3564
   1269873.58944                  24493192.9514
  -2754872.63144  -2146653.39444  24365239.8174   24365237.9814
  -4682753.48144  -3648897.23744  23447591.6044   23447592.6724
 -15497019.23144 -12075593.04544  22256532.9214   22256532.4994
 96  2 29  2 38  0.0000000  0  8G 5G24G 4G 9G 7G 6G16G20
 -17500605.23444 -13636829.30344  20601875.1284   20601874.2374
  -9850499.93344  -7675708.93244  20433835.6984   20433835.2294
   8059816.06244   6280378.80544  22306509.5174   22306508.7614
   7364268.13044   5738389.76044  22660901.4474   22660900.9444
   1340673.85144                  24506667.7734
  -2824673.00344  -2201043.22844  24351957.7014   24351956.3714
  -4775011.58644  -3720786.61244  23430035.3254   23430035.0694
 -15582685.00844 -12142345.59044  22240230.6634   22240230.0484
 96  2 29  2 38 30.0000000  0  8G 5G24G 4G 9G 7G 6G16G20
 -17542317.54644 -13669332.40044  20593937.4614   20593936.6124
  -9829441.45344  -7659299.71644  20437843.0544   20437842.6214
   8144273.39844   6346189.71944  22322580.6694   22322579.8684
   7446815.24244   5802712.17044  22676608.9534   22676608.6554
   1411508.74444                  24520146.5674
  -2894427.04844  -2255396.96744  24338683.5964   24338684.4304
  -4867175.43544  -3792602.55744  23412496.9994   23412496.5854
 -15668119.39244 -12208917.82144  22223973.4834   22223973.4384
 96  2 29  2 39  0.0000000  0  8G 5G24G 4G 9G 7G 6G16G20
 -17583671.67544 -13701556.39344  20586067.8904   20586066.9524
  -9807909.24944  -7642521.36644  20441940.3104   20441939.9234
   8228936.20544   6412160.73744  22338691.5774   22338690.8584
   7529562.80644   5867190.77044  22692355.5234   22692355.1974
   1482379.32344                  24533631.7434
  -2964165.26944  -2309738.40444  24325411.1464   24325412.9144
  -4959262.93044  -3864359.01044  23394973.0594   23394973.5124
 -15753348.37144 -12275330.00444  22207754.7704   22207754.2254
 96  2 29  2 39 30.0000000  0  8G 5G24G 4G 9G 7G 6G16G20
 -17624642.07744 -13733481.38144  20578271.9704   20578270.5734
  -9785909.45344  -7625378.65844  20446126.7794   20446126.2504
   8313817.86044   6478302.30044  22354844.2654   22354842.8554
   7612525.18944   5931836.76244  22708143.2164   22708142.9064
   1553306.41044                  24547130.3224
  -3033855.82144  -2364042.66044  24312149.6924   24312150.1094
  -5051236.83644  -3936026.95244  23377471.3034   23377472.2644
 -15838355.10644 -12341569.00344  22191578.6254   22191578.6594
 96  2 29  2 40  0.0000000  0  8G 5G24G 4G 9G 7G 6G16G20
 -17665218.65044 -13765099.48244  20570550.3534   20570549.4064
  -9763464.40544  -7607888.99944  20450397.8904   20450397.4504
   8398910.48244   6544608.24444  22371037.0714   22371035.7974
   7695720.08344   5996663.94344  22723975.4584   22723974.0604
   1624281.51844                  24560637.3624
  -3103514.09344  -2418321.77444  24298894.5374   24298895.9144
  -5143077.68844  -4007591.20544  23359994.7924   23359996.1074
 -15923144.49144 -12407638.64744  22175443.4744   22175443.1414
 96  2 29  2 40 30.0000000  0  8G 5G24G 4G 9G 7G 6G16G20
 -17705398.87444 -13796408.74044  20562904.2384   20562903.0984
  -9740583.52744  -7590059.73544  20454751.8864   20454751.6524
   8484210.29244   6611075.62844  22387269.5444   22387268.1064
   7779155.63544   6061678.65244  22739852.8404   22739851.5434
   1695295.07644                  24574149.2724
  -3173142.27544  -2472577.44044  24285644.8924   24285645.3504
  -5234783.70944  -4079050.40044  23342543.3804   23342542.8724
 -16007712.40844 -12473535.71444  22159350.6574   22159350.0334
 96  2 29  2 41  0.0000000  0  8G 5G24G 4G 9G 7G 6G16G20
 -17745170.12844 -13827399.32644  20555335.8744   20555334.8704
  -9717277.97644  -7571899.56044  20459186.9024   20459186.4824
   8569726.79144   6677711.85844  22403542.1534   22403541.2294
   7862834.09744   6126882.63544  22755775.5864   22755775.3584
   1766335.91444                  24587667.5154
  -3242740.17344  -2526809.52744  24272400.2124   24272399.4974
  -5326356.97944  -4150406.14544  23325116.8354   23325118.2824
 -16092054.37744 -12539256.71844  22143301.2194   22143300.4204
 96  2 29  2 41 30.0000000  0  8G 5G24G 4G 9G 7G 6G16G20
 -17784518.24044 -13858060.18244  20547848.3914   20547847.4554
  -9693543.14544  -7553404.87744  20463703.4744   20463703.1054
   8655454.87244   6744512.96344  22419855.9574   22419854.8774
   7946754.00744   6192274.75644  22771745.1004   22771745.4424
   1837392.01544                  24601191.8934
  -3312304.11444  -2581015.14444  24259163.0144   24259164.1054
  -5417799.18544  -4221659.77544  23307716.4694   23307716.8164
 -16176158.36944 -12604792.27244  22127296.6834   22127296.5794
 96  2 29  2 42  0.0000000  0  8G 5G24G 4G 9G 7G 6G16G20
 -17823463.67344 -13888407.26944  20540437.1554   20540436.1874
  -9669377.90144  -7534574.80744  20468302.0004   20468301.5854
   8741382.57344   6811469.60644  22436206.9244   22436205.8154
   8030890.60744   6257835.72344  22787755.5464   22787755.3914
   1908455.96744                  24614713.3294
  -3381854.44644  -2635210.16944  24245928.2304   24245928.8784
  -5509137.47944  -4292832.40744  23290335.5394   23290335.7424
 -16260024.56344 -12670142.53344  22111337.4204   22111336.6484
 96  2 29  2 42 30.0000000  0  8G 5G24G 4G 9G 7G 6G16G20
 -17861994.87144 -13918431.57144  20533104.8794   20533103.8084
  -9644755.04444  -7515388.15644  20472987.7164   20472987.2694
   8827531.23244   6878598.44244  22452600.8034   22452599.4794
   8115231.30544   6323555.73444  22803804.8304   22803804.2084
   1979527.96144                  24628235.3644
  -3451369.40744  -2689377.65144  24232700.2114   24232698.9224
  -5600378.59844  -4363929.35844  23272972.0134   23272971.7844
 -16343642.09944 -12735299.04244  22095426.0634   22095425.2214
 96  2 29  2 43  0.0000000  0  8G 5G24G 4G 9G 7G 6G16G20
 -17900076.18244 -13948105.31144  20525858.4544   20525857.4434
  -9619663.04944  -7495835.94344  20477762.4004   20477761.9704
   8913911.20444   6945907.51444  22469038.2654   22469037.2244
   8199768.09644   6389428.54644  22819892.1684   22819890.7794
   2050617.45544                  24641765.1894
  -3520844.83644  -2743514.25744  24219478.6854   24219477.9434
  -5691506.58644  -4434938.14244  23255631.0314   23255632.3874
 -16427001.00644 -12800254.02244  22079563.4414   22079562.4174
 96  2 29  2 43 30.0000000  0  8G 5G24G 4G 9G 7G 6G16G20
 -17937708.45944 -13977429.15844  20518697.4514   20518696.4994
  -9594093.84544  -7475911.87844  20482627.9404   20482627.4454
   9000511.52444   7013388.28644  22485517.7234   22485516.4014
   8284497.74644   6455451.64644  22836015.4544   22836014.9564
   2121733.37944                  24655299.8884
  -3590267.86244  -2797610.05744  24206268.1874   24206267.6024
  -5782511.41744  -4505850.94444  23238313.5944   23238315.2604
 -16510103.31744 -12865009.05144  22063749.2574   22063748.8964
 96  2 29  2 44  0.0000000  0  8G 5G24G 4G 9G 7G 6G16G20
 -17974897.91044 -14006407.94744  20511620.3414   20511619.1944
  -9568043.23844  -7455612.69344  20487585.3344   20487584.9354
   9087338.84944   7081045.94444  22502040.6924   22502039.3914
   8369433.73944   6521635.52144  22852178.3044   22852177.9934
   2192873.67244                  24668834.2334
  -3659637.22444  -2851664.05344  24193068.7654   24193069.3694
  -5873372.66544  -4576651.86544  23221023.3904   23221023.5994
 -16592945.53544 -12929561.41044  22047984.5584   22047984.6184
 96  2 29  2 44 30.0000000  0  8G 5G24G 4G 9G 7G 6G16G20
 -18011635.82644 -14035034.88844  20504629.2324   20504628.3304
  -9541530.06244  -7434953.06744  20492630.5294   20492630.1354
   9174372.18344   7148864.13044  22518602.1274   22518600.6074
   8454575.97544   6587980.09744  22868380.3664   22868379.7764
   2264019.91944                  24682374.4214
  -3728954.92944  -2905677.81944  24179876.5544   24179875.7564
  -5964071.61844  -4647326.32644  23203763.8044   23203764.5274
 -16675524.75144 -12993908.83944  22032270.4624   22032270.2744
 96  2 29  2 45  0.0000000  0  8G 5G24G 4G 9G 7G 6G16G20
 -18047944.11744 -14063327.05544  20497719.9564   20497719.0104
  -9514576.65444  -7413950.40244  20497759.7714   20497759.3044
   9261568.08044   7216809.00044  22535195.5494   22535193.8284
   8539921.29144   6654482.92544  22884621.9124   22884621.5024
   2335174.50844                  24695913.5554
  -3798247.41444  -2959671.91644  24166691.2234   24166690.8204
  -6054602.98944  -4717870.21644  23186535.9484   23186536.4984
 -16757856.12244 -13058063.15444  22016603.6644   22016603.4654
 96  2 29  2 45 30.0000000  0  8G 5G24G 4G 9G 7G 6G16G20
 -18083834.72944 -14091293.76344  20490890.1514   20490889.1644
  -9487177.41344  -7392600.33144  20502973.5304   20502972.9974
   9348944.93244   7284894.85544  22551822.2854   22551821.3664
   8625500.04444   6721167.65244  22900906.0604   22900906.3214
   2406366.03744                  24709462.0494
  -3867504.12144  -3013638.12344  24153510.9064   24153511.3044
  -6144952.74644  -4788272.58044  23169344.3704   23169344.8404
 -16839920.26544 -13122009.23144  22000986.8464   22000985.6114
 96  2 29  2 46  0.0000000  0  8G 5G24G 4G 9G 7G 6G16G20
 -18119294.66044 -14118924.87144  20484142.4124   20484141.3554
  -9459342.62944  -7370910.87744  20508270.3864   20508269.9874
   9436515.42644   7353131.60644  22568486.2684   22568484.9314
   8711310.24744   6788032.72544  22917234.9684   22917234.6134
   2477596.93944                  24723017.0754
  -3936736.40544  -3067585.32444  24140336.5754   24140336.7604
  -6235125.05044  -4858536.67244  23152184.2764   23152183.7864
 -16921717.66044 -13185747.43544  21985421.2634   21985421.0234
 96  2 29  2 46 30.0000000  0  8G 5G24G 4G 9G 7G 6G16G20
 -18154301.57544 -14146202.98444  20477480.7244   20477479.4914
  -9431073.85544  -7348883.24944  20513649.8474   20513649.3604
   9524288.87844   7421526.50944  22585189.2814   22585188.0594
   8797342.12644   6855070.53244  22933605.9774   22933605.7564
   2548891.97944                  24736584.7494
  -4005941.10844  -3121511.02444  24127168.2624   24127166.3164
  -6325116.78944  -4928660.05744  23135059.5604   23135060.0594
 -17003252.29544 -13249280.90044  21969905.7984   21969904.7404
 96  2 29  2 47  0.0000000  0  8G 5G24G 4G 9G 7G 6G16G20
 -18188865.39644 -14173135.83044  20470903.5154   20470902.5974
  -9402373.02844  -7326518.95744  20519111.2414   20519110.8474
   9612280.37544   7490091.31044  22601933.6884   22601932.3474
   8883584.99144   6922272.75444  22950018.8224   22950017.8554
   2620257.79544                  24750164.1134
  -4075132.73244  -3175426.51944  24114001.4524   24114002.1964
  -6414945.76444  -4998656.63644  23117965.5944   23117965.7814
 -17084539.34044 -13312621.45244  21954437.5684   21954436.9254
 96  2 29  2 47 30.0000000  0  8G 5G24G 4G 9G 7G 6G16G20
 -18222959.01644 -14199702.28144  20464415.6114   20464414.4154
  -9373229.54244  -7303809.73744  20524657.0114   20524656.6794
   9700525.95944   7558854.09844  22618726.5624   22618724.9044
   8970040.08244   6989640.35644  22966470.2544   22966469.7374
   2691689.44644                  24763756.6394
  -4144286.63644  -3229312.63744  24100842.2824   24100841.5414
  -6504605.01544  -5068520.94244  23100903.9124   23100904.7724
 -17165555.97744 -13375751.29244  21939020.6104   21939019.6364
 96  2 29  2 48  0.0000000  0  8G 5G24G 4G 9G 7G 6G16G20
 -18256589.92744 -14225908.18844  20458015.9514   20458014.8564
  -9343655.47244  -7280764.99944  20530284.7774   20530284.4184
   9789001.36944   7627795.98644  22635562.3024   22635560.7674
   9056679.43644   7057151.52744  22982957.1254   22982956.8324
   2763168.94244                  24777359.4874
  -4213413.29344  -3283177.51444  24087687.1214   24087686.7164
  -6594109.69744  -5138264.81944  23083870.9224   23083871.1714
 -17246312.71944 -13438678.61344  21923653.3764   21923653.1914
 96  2 29  2 48 30.0000000  0  8G 5G24G 4G 9G 7G 6G16G20
 -18289789.35844 -14251777.86744  20451698.2354   20451697.4094
  -9313665.86044  -7257396.46244  20535991.7464   20535991.2384
   9877675.33344   7696892.57544  22652436.0804   22652435.2784
   9143474.53844   7124784.05544  22999473.8714   22999473.8224
   2834680.18644                  24790967.8254
  -4282525.79844  -3337031.35344  24074535.2994   24074534.4134
  -6683466.71544  -5207893.63144  23066867.8544   23066868.3624
 -17326799.60244 -13501395.65644  21908336.8604   21908336.6474
 96  2 29  2 49  0.0000000  0  8G 5G24G 4G 9G 7G 6G16G20
 -18322557.32644 -14277311.34544  20445462.8134   20445461.6644
  -9283240.17744  -7233688.12944  20541781.6094   20541780.9914
   9966543.55144   7766140.54144  22669347.3094   22669345.6374
   9230443.91844   7192552.37944  23016022.9754   23016023.9734
   2906233.65544                  24804584.1104
  -4351603.78844  -3390858.34044  24061391.4354   24061389.3024
  -6772658.50744  -5277393.70244  23049894.8584   23049895.8624
 -17406976.77344 -13563871.36444  21893079.7854   21893079.3314
 96  2 29  2 49 30.0000000  0  8G 5G24G 4G 9G 7G 6G16G20
 -18354905.48344 -14302517.69944  20439307.4514   20439306.5404
  -9252396.26344  -7209653.90244  20547650.8054   20547650.4044
  10055578.04144   7835518.08344  22686290.3744   22686288.3334
   9317571.66144   7260444.10544  23032602.6214   23032603.0184
   2977822.44844                  24818205.7694
  -4420643.71744  -3444655.65644  24048253.5264   24048252.4294
  -6861688.72744  -5346767.85044  23032953.3664   23032954.4174
 -17486843.11744 -13626104.86844  21877881.5754   21877880.7984
 96  2 29  2 50  0.0000000  0  8G 5G24G 4G 9G 7G 6G16G20
 -18386838.12644 -14327400.26944  20433230.5794   20433229.6684
  -9221139.57844  -7185298.03644  20553598.7684   20553598.2354
  10144760.04544   7905010.56244  22703260.5354   22703259.8554
   9404843.00344   7328447.72544  23049210.5964   23049210.2574
   3049455.02044                  24831838.2874
  -4489651.37744  -3498427.78744  24035121.2034   24035120.9914
  -6950551.25144  -5416011.34844  23016042.5684   23016043.6704
 -17566397.88444 -13688095.59044  21862742.9044   21862742.7044
 96  2 29  2 50 30.0000000  0  8G 5G24G 4G 9G 7G 6G16G20
 -18418328.40544 -14351938.14444  20427238.1974   20427236.9504
  -9189457.42944  -7160610.63844  20559627.4534   20559627.1744
  10234109.99944   7974633.90144  22720264.2664   22720263.0634
   9492260.89444   7396565.54744  23065845.4244   23065844.9394
   3121130.24944                  24845477.5894
  -4558612.65844  -3552163.77844  24021997.2164   24022000.2364
  -7039218.08044  -5485102.33844  22999170.5644   22999171.7524
 -17645641.98244 -13749844.22844  21847663.3404   21847663.1664
 96  2 29  2 51  0.0000000  0  8G 5G24G 4G 9G 7G 6G16G20
 -18449373.30144 -14376128.96944  20421330.5634   20421329.5794
  -9157361.37244  -7135600.71844  20565735.4594   20565734.9954
  10323622.13344   8044383.62944  22737298.2134   22737296.5694
   9579824.42544   7464796.86544  23082508.6014   23082506.8674
   3192832.59144                  24859122.4884
  -4627522.37744  -3605859.59344  24008883.8774   24008884.4434
  -7127697.27544  -5554047.13144  22982333.0444   22982333.7304
 -17724604.35544 -13811373.34344  21832637.4384   21832636.8974
 96  2 29  2 51 30.0000000  0  8G 5G24G 4G 9G 7G 6G16G20
 -18479958.06444 -14399961.24644  20415510.5414   20415509.2524
  -9124855.17044  -7110271.19644  20571921.1854   20571920.6994
  10413300.10344   8114262.57144  22754362.4074   22754360.7324
   9667528.92444   7533138.01844  23099197.4764   23099196.7334
   3264555.50944   2543809.07044  24872770.8884
  -4696377.53544  -3659512.95144  23995781.6194   23995781.1584
  -7215986.78444  -5622844.12044  22965532.6984   22965533.0074
 -17803302.28944 -13872696.41044  21817661.4324   21817660.9514
 96  2 29  2 52  0.0000000  0  8G 5G24G 4G 9G 7G 6G16G20
 -18510076.25644 -14423429.96844  20409779.0934   20409778.0044
  -9091932.10544  -7084616.85344  20578185.9994   20578185.6074
  10503140.93044   8184268.40044  22771458.9374   22771457.4344
   9755390.86744   7601601.85644  23115918.1354   23115916.4684
   3336298.01144                  24886422.1964
  -4765175.14244  -3713121.47544  23982689.8014   23982689.6364
  -7304072.22244  -5691482.09844  22948770.0364   22948770.6074
 -17881744.45744 -13933820.16044  21802734.2994   21802734.0644
 96  2 29  2 52 30.0000000  0  8G 5G24G 4G 9G 7G 6G16G20
 -18539733.35644 -14446539.39344  20404135.6404   20404134.5614
  -9058593.04344  -7058638.35844  20584530.2234   20584529.6494
  10593137.73944   8254395.78644  22788584.8954   22788583.7024
   9843423.84144   7670198.96244  23132670.0924   23132668.7284
   3408052.82544                  24900077.1724
  -4833912.59144  -3766683.08244  23969608.5694   23969610.6044
  -7391964.17844  -5759969.28544  22932044.1534   22932045.5864
 -17959930.50244 -13994744.34244  21787856.1644   21787855.2104
 96  2 29  2 53  0.0000000  0  8G20G 5G24G 4G 9G 7G 6G16
 -18037847.25644 -14055458.68644  21773029.1934   21773028.1464
 -18568945.61844 -14469302.19344  20398576.6634   20398575.5664
  -9024843.19544  -7032339.76544  20590952.8964   20590952.6274
  10683261.75444   8324622.28244  22805734.5194   22805732.9494
   9931629.96244   7738930.97244  23149454.4394   23149454.4684
   3479825.88344                  24913734.5094
  -4902606.45944  -3820210.68844  23956536.2684   23956538.4484
  -7479681.51244  -5828320.41044  22915352.1754   22915352.5074
 96  2 29  2 53 30.0000000  0  8G 5G24G 4G 9G 7G 6G16G20
 -18597712.43144 -14491717.88544  20393102.4634   20393101.5874
  -8990680.48844  -7005719.47144  20597453.6234   20597453.3754
  10773516.96044   8394951.02744  22822909.7354   22822908.6034
  10020000.93244   7807791.45544  23166271.4924   23166269.7924
   3551626.24044                  24927397.3304
  -4971282.32544  -3873724.28144  23943469.0654   23943471.8574
  -7567213.89644  -5896527.42344  22898695.6324   22898696.0704
 -18115487.60444 -14115957.64544  21758254.2104   21758253.9674
 96  2 29  2 54  0.0000000  0  8G 5G24G 4G 9G 7G 6G16G20
 -18626021.28144 -14513776.72344  20387715.6394   20387714.3374
  -8956087.39044  -6978763.80644  20604036.3714   20604036.0724
  10863924.72144   8465398.63044  22840113.4254   22840111.8994
  10108544.03244   7876786.07344  23183120.4614   23183119.5394
   3623469.33944                  24941069.4504
  -5039938.48044  -3927222.57244  23930403.9954   23930404.6324
  -7654546.26744  -5964578.57244  22882076.8594   22882077.4324
 -18192823.72344 -14176219.54844  21743537.9214   21743537.4864
 96  2 29  2 54 30.0000000  0  8G20G 5G24G 4G 9G 7G 6G16
 -18269834.17444 -14236227.67744  21728883.0724   21728882.8724
 -18653865.02044 -14535473.14244  20382417.1764   20382415.9474
  -8921059.42844  -6951469.28444  20610702.1084   20610701.7214
  10954494.29844   8535972.33244  22857347.9454   22857346.3584
  10197245.29244   7945903.92544  23199999.4474   23199999.5984
   3695351.58044                  24954748.3564
  -5108584.09544  -3980712.61144  23917340.8904   23917343.0694
  -7741683.79644  -6032477.91844  22865494.7004   22865494.6574
 96  2 29  2 55  0.0000000  0  8G20G 5G24G 4G 9G 7G 6G16
 -18346524.11044 -14295986.06044  21714289.6044   21714289.2594
 -18681231.83044 -14556797.92244  20377209.2004   20377208.3854
  -8885606.83344  -6923843.88344  20617448.6284   20617448.0604
  11045225.51044   8606671.97144  22874613.9954   22874612.1644
  10286085.65844   8015130.18244  23216905.0914   23216904.2764
   3767279.57244                  24968436.0764
  -5177223.06744  -4034197.49544  23904278.7254   23904280.2454
  -7828603.81644  -6100207.78344  22848954.7274   22848955.2224
 96  2 29  2 55 30.0000000  0  8G20G 5G24G 4G 9G 7G 6G16
 -18422883.33644 -14355486.74844  21699758.8084   21699758.3234
 -18708096.09044 -14577731.11244  20372097.2764   20372096.2214
  -8849724.19344  -6895883.37544  20624276.7014   20624276.2944
  11136140.98044   8677515.19844  22891914.7814   22891913.8194
  10375074.26744   8084471.94244  23233838.9604   23233837.4364
   3839252.76544                  24982132.3454
  -5245826.26444  -4087654.50544  23891223.5034   23891225.0024
  -7915282.01344  -6167749.19444  22832460.2384   22832460.7834
 96  2 29  2 56  0.0000000  0  8G20G 5G24G 4G 9G 7G 6G16
 -18498894.13544 -14414715.92644  21685294.3534   21685293.9694
 -18734451.49544 -14598267.78944  20367081.7064   20367080.8784
  -8813409.65944  -6867586.33444  20631187.0464   20631186.6444
  11227239.92344   8748501.39044  22909249.9054   22909249.7564
  10464220.24444   8153936.34144  23250803.3854   23250802.4134
   3911266.93844                  24995836.0244
  -5314364.07044  -4141060.51044  23878182.1884   23878183.3564
  -8001720.38944  -6235103.73444  22816011.3734   22816011.6314
 96  2 29  2 56 30.0000000  0  8G20G 5G24G 4G 9G 7G 6G16
 -18574536.35644 -14473657.89844  21670900.0404   21670899.8334
 -18760284.99444 -14618397.78644  20362165.8964   20362164.5994
  -8776663.47944  -6838952.94044  20638179.6844   20638179.1604
  11318532.82344   8819638.70444  22926622.8744   22926621.3504
  10553544.02344   8223539.26944  23267800.4334   23267801.2784
   3983347.18244                  25009551.1794
  -5382800.36944  -4194387.44844  23865159.4044   23865160.3874
  -8087879.37244  -6302240.57544  22799616.1274   22799616.1874
 96  2 29  2 57  0.0000000  0  7G20G 5G24G 4G 9G 6G16
 -18649904.65544 -14532386.42644  21656558.2914   21656557.6634
 -18785698.44144 -14638200.46844  20357330.0084   20357328.9584
  -8739591.62244  -6810065.77344  20645234.1914   20645233.9074
  11409931.23944   8890858.26744  22944015.3154   22944013.1344
  10642952.81244   8293208.43344  23284814.5034   23284814.0604
  -5451224.86044  -4247705.18744  23852139.2354   23852139.2584
  -8173831.19344  -6369215.98544  22783260.3874   22783260.7374
 96  2 29  2 57 30.0000000  0  7G20G 5G24G 4G 9G 6G16
 -18724981.52844 -14590887.88244  21642272.0494   21642270.9834
 -18810693.22144 -14657676.91644  20352573.4534   20352572.4044
  -8702178.49444  -6780912.68444  20652353.6134   20652353.2184
  11501453.84944   8962174.58144  22961431.2824   22961429.4854
  10732466.04044   8362958.99044  23301848.2164   23301847.9754
  -5519628.26244  -4301006.51344  23839122.2914   23839122.2364
  -8259571.67844  -6436026.73844  22766944.0244   22766944.6534
 96  2 29  2 58  0.0000000  0  7G20G 5G24G 4G 9G 6G16
 -18799732.85644 -14649135.66444  21628047.0934   21628046.1904
 -18835243.19844 -14676806.77144  20347901.8994   20347900.7374
  -8664386.29044  -6751464.20544  20659545.2664   20659544.8334
  11593136.77144   9033615.82944  22978878.1914   22978876.3244
  10822109.18244   8432810.77044  23318906.7684   23318906.7504
  -5587984.92844  -4354271.39344  23826114.9334   23826115.0694
  -8345055.81344  -6502637.73044  22750677.1514   22750676.0694
 96  2 29  2 58 30.0000000  0  7G20G 5G24G 4G 9G 6G16
 -18874186.71244 -14707151.64344  21613878.7344   21613878.2324
 -18859364.47144 -14695602.56344  20343311.8634   20343310.7614
  -8626237.71544  -6721738.03744  20666804.7694   20666804.4024
  11684953.70444   9105161.49444  22996350.7464   22996348.4014
  10911851.39644   8502739.76744  23335983.8924   23335984.4144
  -5656335.36244  -4407531.44544  23813107.5114   23813108.1024
  -8430302.76644  -6569063.89344  22734455.3044   22734454.8754
 96  2 29  2 59  0.0000000  0  7G20G 5G24G 4G 9G 6G16
 -18948353.48344 -14764943.91144  21599765.0534   21599764.4204
 -18883044.40244 -14714054.45644  20338805.5664   20338804.4004
  -8587720.77144  -6691724.83244  20674134.2934   20674133.7794
  11776908.02744   9176814.21544  23013848.5314   23013846.5034
  11001694.59644   8572747.43944  23353080.9264   23353082.0664
  -5724692.83644  -4460796.96744  23800099.5304   23800099.6444
  -8515338.02044  -6635325.09144  22718273.3124   22718273.2834
 96  2 29  2 59 30.0000000  0  7G20G 5G24G 4G 9G 6G16
 -19022201.79844 -14822488.04844  21585712.1524   21585711.7084
 -18906232.88444 -14732123.39944  20334393.0004   20334391.9024
  -8548790.24344  -6661389.35044  20681542.5294   20681542.1184
  11869018.67144   9248588.73244  23031376.6744   23031374.5774
  11091667.56144   8642856.21644  23370201.7074   23370202.2954
  -5793017.52144  -4514036.94144  23787098.5544   23787097.6644
  -8600142.92844  -6701406.81644  22702135.3494   22702135.3494
 96  2 29  3  0  0.0000000  0  7G20G 5G24G 4G 9G 6G16
 -19095743.63044 -14879793.36444  21571717.5434   21571717.1304
 -18928939.98644 -14749817.24644  20330071.9994   20330070.7004
  -8509475.29744  -6630754.32444  20689023.9724   20689023.4814
  11961255.88544   9320461.90344  23048928.4714   23048926.8544
  11181751.88944   8713051.79244  23387345.0494   23387344.0174
  -5861322.71144  -4567261.71944  23774100.0144   23774101.0004
  -8684740.38244  -6767326.87544  22686037.6724   22686038.2174
 96  2 29  3  0 30.0000000  0  7G20G 5G24G 4G 9G 6G16
 -19168966.26144 -14936849.95544  21557784.2254   21557783.6274
 -18951153.46444 -14767126.44844  20325844.6464   20325843.7714
  -8469769.74544  -6599814.92844  20696579.6124   20696579.1884
  12053624.23144   9392437.23044  23066505.8114   23066505.4234
  11271963.40544   8783346.45144  23404512.0514   23404512.1854
  -5929602.10144  -4620466.39944  23761106.8404   23761106.9544
  -8769123.73744  -6833080.10944  22669979.5834   22669979.4394
 96  2 29  3  1  0.0000000  0  7G20G 5G24G 4G 9G 6G16
 -19241889.72144 -14993673.41144  21543907.0454   21543906.4304
 -18972916.44744 -14784084.61544  20321703.2774   20321702.0974
  -8429709.10344  -6568598.84144  20704202.9664   20704202.5064
  12146084.67044   9464484.31944  23084100.4474   23084100.0904
  11362263.55844   8853710.19944  23421695.6834   23421695.2714
  -5997885.33844  -4673674.07544  23748112.6354   23748113.8044
  -8853321.04544  -6898688.37644  22653956.9174   22653956.9374
 96  2 29  3  1 30.0000000  0  7G20G 5G24G 4G 9G 6G16
 -19314474.87944 -15050233.26244  21530094.9224   21530094.2504
 -18994213.87344 -14800680.01344  20317650.4884   20317649.5064
  -8389284.87344  -6537099.43444  20711895.3274   20711894.9324
  12238647.44944   9536611.16244  23101714.1474   23101713.3684
  11452646.33944   8924138.32744  23438894.6184   23438894.4244
  -6066151.68044  -4726868.59144  23735122.3624   23735122.7254
  -8937300.40844  -6964126.80544  22637976.2944   22637976.7384
 96  2 29  3  2  0.0000000  0  7G20G 5G24G 4G 9G 6G16
 -19386694.71344 -15106508.46244  21516351.8064   21516351.4404
 -19015023.00344 -14816894.91844  20313690.8934   20313689.8854
  -8348474.44944  -6505299.10444  20719661.3564   20719660.9774
  12331336.93844   9608836.73744  23119353.0694   23119351.5934
  11543132.61544   8994647.10444  23456113.0784   23456112.0484
  -6134391.14344  -4780042.18544  23722136.6674   23722136.9784
  -9021026.16444  -7029367.61844  22622044.2624   22622044.2964
 96  2 29  3  2 30.0000000  0  7G20G 5G24G 4G 9G 6G16
 -19458557.90044 -15162505.74544  21502675.9704   21502675.7034
 -19035352.17944 -14832735.83344  20309822.3974   20309821.4424
  -8307276.93044  -6473197.13744  20727500.7894   20727500.3714
  12424149.53844   9681158.25644  23137014.3244   23137013.0574
  11633698.39544   9065217.82544  23473347.4994   23473348.3994
  -6202616.56844  -4833204.83544  23709153.6644   23709153.4524
  -9104496.44144  -7094409.36244  22606160.2444   22606160.2634
 96  2 29  3  3  0.0000000  0  7G 4G 5G24G 9G 6G16G20
  12517089.69744   9753579.16644  23154700.5924   23154699.1114
 -19055180.18544 -14848186.22944  20306049.2774   20306048.1834
  -8265687.96444  -6440790.14844  20735414.9134   20735414.4674
  11724331.60244   9135841.08244  23490594.4904   23490594.8454
  -6270808.05944  -4886341.01244  23696176.5574   23696175.9794
  -9187699.49044  -7159242.87444  22590326.8604   22590327.3164
 -19530050.19744 -15218214.01244  21489072.4054   21489071.8784
 96  2 29  3  3 30.0000000  0  7G 4G 5G24G 9G 6G16G20
  12610159.21344   9826100.85944  23172411.0824   23172409.3934
 -19074498.98344 -14863239.83844  20302372.9554   20302371.9624
  -8223707.24244  -6408077.89244  20743403.7634   20743403.3824
  11815042.41644   9206524.81444  23507856.1274   23507855.4474
  -6338953.21044  -4939441.08744  23683210.2474   23683211.0144
  -9270627.81844  -7223862.32744  22574546.3114   22574546.7354
 -19601182.66544 -15273641.91044  21475536.3404   21475535.3444
 96  2 29  3  4  0.0000000  0  7G 4G 5G24G 9G 6G16G20
  12703356.81344   9898722.37044  23190146.1194   23190145.0814
 -19093304.16044 -14877893.21944  20298794.4214   20298793.2614
  -8181321.05144  -6375049.69044  20751469.5454   20751469.0954
  11905857.06644   9277289.47544  23525137.9814   23525136.7594
  -6407039.01944  -4992494.90544  23670252.9114   23670253.0514
  -9353267.75144  -7288257.05144  22558820.2144   22558820.6844
 -19671962.56544 -15328795.07144  21462066.8474   21462066.2914
 96  2 29  3  4 30.0000000  0  7G20G 5G24G 4G 9G 6G16
 -19742389.28344 -15383673.02244  21448665.4584   21448665.0514
 -19111600.72244 -14892150.28044  20295312.7394   20295311.6414
  -8138550.46844  -6341721.95944  20759608.5904   20759608.2174
  12796669.55544   9971433.60744  23207903.0184   23207901.7574
  11996770.92144   9348131.44444  23542438.5604   23542438.2454
  -6475059.15444  -5045497.56044  23657309.3954   23657309.4624
  -9435623.75944  -7352430.52144  22543148.9854   22543148.4744
 96  2 29  3  5  0.0000000  0  7G20G 5G24G 4G 9G 6G16
 -19812471.64044 -15438282.64444  21435328.7484   21435328.3024
 -19129393.59144 -14906014.85444  20291926.6724   20291925.5534
  -8095411.95644  -6308107.53144  20767817.3614   20767817.1714
  12890068.04344  10044211.64544  23225675.7724   23225673.7274
  12087777.34944   9419045.55244  23559755.9044   23559755.4624
  -6543027.56244  -5098459.96344  23644375.9154   23644373.9914
  -9517703.16544  -7416388.46844  22527529.0474   22527529.5284
 96  2 29  3  5 30.0000000  0  7G20G 5G24G 4G 9G 6G16
 -19882211.52044 -15492625.40844  21422057.4924   21422057.5464
 -19146683.46044 -14919487.48144  20288636.6474   20288635.7694
  -8051909.14744  -6274209.23844  20776095.7644   20776095.4574
  12983547.46244  10117052.73144  23243464.7704   23243462.9004
  12178900.67644   9490050.71544  23577095.9174   23577095.3304
  -6610957.86844  -5151392.65044  23631448.6504   23631446.5114
  -9599498.09844  -7480124.74844  22511963.7714   22511964.7914
 96  2 29  3  6  0.0000000  0  7G20G 5G24G 4G 9G 6G16
 -19951593.16844 -15546689.02144  21408854.7684   21408854.3664
 -19163463.47344 -14932562.81844  20285443.5114   20285442.3674
  -8008045.91344  -6240030.08744  20784442.5994   20784442.1974
  13077106.75344  10189956.09044  23261268.5254   23261266.3154
  12270136.27144   9561143.37244  23594456.9884   23594458.8864
  -6678850.14644  -5204295.69644  23618529.1284   23618528.5784
  -9680994.47244  -7543628.39944  22496455.6154   22496455.8444
 96  2 29  3  6 30.0000000  0  7G20G 5G24G 4G 9G 6G16
 -20020609.83444 -15600468.23744  21395721.9224   21395721.4794
 -19179731.08544 -14945238.87844  20282348.0364   20282347.0194
  -7963838.18844  -6205582.50744  20792854.9494   20792854.6524
  13170749.43244  10262924.41344  23279087.7124   23279086.1204
  12361465.13744   9632308.71044  23611836.7484   23611836.9714
  -6746711.07144  -5257174.27144  23605615.0834   23605615.4174
  -9762189.40144  -7606897.14544  22481005.3224   22481005.2424
 96  2 29  3  7  0.0000000  0  7G20G 4G 5G24G 9G 6G16
 -20089256.07244 -15653958.80344  21382659.0104   21382658.7984
  13264498.96544  10335976.00244  23296927.2244   23296925.7844
 -19195479.53744 -14957510.39644  20279351.2464   20279349.9894
  -7919270.40844  -6170854.36544  20801336.0604   20801335.8664
  12452895.01344   9703552.75344  23629235.9704   23629235.4854
  -6814532.10544  -5310021.77844  23592709.3754   23592709.5664
  -9843075.50244  -7669925.25244  22465612.8644   22465613.4104
 96  2 29  3  7 30.0000000  0  7G 4G 9G 5G24G 6G16G20
  13358371.16344  10409123.17044  23314791.4414   23314789.5314
  12544416.33544   9774868.06944  23646651.6314   23646651.9434
 -19210724.74844 -14969389.78344  20276450.0474   20276449.1574
  -7874355.06044  -6135855.38844  20809883.2284   20809882.7564
  -6882307.93644  -5362834.05444  23579812.1534   23579813.4554
  -9923658.20244  -7732716.93644  22450278.8854   22450279.0484
 -20157539.78844 -15707166.88344  21369664.1994   21369664.2834
 96  2 29  3  8  0.0000000  0  7G 4G 9G 5G24G 6G16G20
  13452369.55944  10482368.67044  23332678.1694   23332676.3604
  12635991.40944   9846225.24244  23664077.5364   23664076.8234
 -19225475.55544 -14980883.91544  20273643.1124   20273642.0744
  -7829093.61044  -6100586.72444  20818496.2154   20818495.7274
  -6950042.69344  -5415613.88844  23566922.1034   23566921.4724
 -10003955.35244  -7795286.12344  22434998.7164   22434998.5644
 -20225461.39744 -15760092.81344  21356739.6774   21356739.1124
 96  2 29  3  8 30.0000000  0  7G 4G 9G 5G24G 6G16G20
  13546500.84544  10555717.73044  23350590.5104   23350589.1134
  12727607.39344   9917614.32144  23681511.5634   23681510.9794
 -19239734.10944 -14991994.47944  20270929.7904   20270928.6354
  -7783492.91744  -6065053.71644  20827173.8014   20827173.3904
  -7017763.91844  -5468384.24144  23554035.0524   23554035.2444
 -10083986.48644  -7857648.01844  22419768.8824   22419768.7354
 -20293032.82144 -15812745.86744  21343881.3814   21343881.2484
 96  2 29  3  9  0.0000000  0  7G16G 4G 5G24G 9G 6G20
 -10163750.45144  -7919801.73444  22404590.8004   22404590.6484
  13640762.71144  10629168.51844  23368528.1884   23368526.0964
 -19253496.35244 -15002718.30544  20268310.9774   20268309.6794
  -7737541.75244  -6029247.60844  20835917.9734   20835917.5364
  12819269.95544   9989039.69244  23698954.0594   23698955.3304
  -7085470.58644  -5521142.62544  23541150.8764   23541151.0014
 -20360240.10644 -15865115.16544  21331091.8654   21331091.3794
 96  2 29  3  9 30.0000000  0  7G20G 4G 5G24G 9G 6G16
 -20427057.79044 -15917180.89244  21318377.1164   21318376.4794
  13735143.35244  10702711.85944  23386488.1834   23386487.9304
 -19266752.83044 -15013048.03444  20265788.3094   20265787.1244
  -7691230.51144  -5993160.92144  20844730.9634   20844730.5524
  12910975.31044  10060498.38344  23716405.4724   23716404.8794
  -7153162.95844  -5573889.90544  23528270.2364   23528269.7154
 -10243219.22744  -7981725.43844  22389467.8884   22389467.8064
 96  2 29  3 10  0.0000000  0  7G16G 4G 5G24G 9G 6G20
 -10322406.78544  -8043429.99544  22374398.9644   22374398.8254
  13829605.21944  10776318.50244  23404463.1584   23404460.1634
 -19279518.29144 -15022995.14544  20263358.8994   20263357.8044
  -7644576.14344  -5956806.86444  20853608.7614   20853608.4024
  13002696.67844  10131969.56444  23733859.7384   23733859.1014
  -7220869.66744  -5626648.33444  23515386.1524   23515386.2714
 -20493497.35444 -15968951.97744  21305733.8624   21305733.2644
 96  2 29  3 10 30.0000000  0  7G16G 4G 5G24G 9G 6G20
 -10401290.00844  -8104897.41544  22359388.2404   22359387.9324
  13924141.68844  10849983.26644  23422453.4504   23422450.5644
 -19291783.41144 -15032552.38444  20261025.1574   20261023.9034
  -7597570.11444  -5920178.79044  20862553.4654   20862553.2344
  13094462.47144  10203475.37744  23751322.5794   23751322.5834
  -7288567.15644  -5679399.59544  23502503.1524   23502504.8714
 -20559540.68244 -16020414.29944  21293166.4634   21293165.9244
 96  2 29  3 11  0.0000000  0  7G16G 4G 5G24G 9G 6G20
 -10479850.00044  -8166112.97644  22344439.1194   22344439.0394
  14018736.88244  10923693.81644  23440454.8674   23440452.2814
 -19303548.17444 -15041719.73044  20258786.3614   20258785.5514
  -7550204.60544  -5883270.59944  20871567.2444   20871566.7574
  13186282.96544  10275023.80944  23768794.5804   23768794.4974
  -7356224.91344  -5732119.91544  23489628.2714   23489628.7734
 -20625169.07644 -16071553.30244  21280677.9004   21280677.2874
 96  2 29  3 11 30.0000000  0  7G16G 4G 5G24G 9G 6G20
 -10558098.11544  -8227085.49944  22329548.2394   22329548.0914
  14113386.47344  10997446.72244  23458465.8954   23458462.5484
 -19314822.24744 -15050504.72544  20256640.8464   20256639.7654
  -7502495.05144  -5846094.31544  20880645.6594   20880645.2054
  13278144.58744  10346604.28444  23786275.5014   23786273.3514
  -7423852.46544  -5784816.65044  23476759.5274   23476759.1664
 -20690400.95644 -16122383.34244  21268264.5414   21268263.8254
 96  2 29  3 12  0.0000000  0  7G20G 4G 5G24G 9G 6G16
 -20755241.82644 -16172908.68844  21255926.2874   21255925.3454
  14208100.95044  11071250.20644  23476488.8394   23476488.2784
 -19325591.77844 -15058896.56744  20254591.6694   20254590.5644
  -7454447.86244  -5808654.94844  20889788.8544   20889788.5214
  13370059.63444  10418226.37644  23803767.3904   23803765.2364
  -7491436.55944  -5837479.57144  23463899.1774   23463897.4524
 -10636040.36344  -8287819.69944  22314716.6764   22314716.8064
 96  2 29  3 12 30.0000000  0  7G20G 4G 5G24G 9G 6G16
 -20819693.45844 -16223130.73944  21243661.0164   21243660.4044
  14302878.11344  11145102.52644  23494524.7604   23494524.1724
 -19335856.66344 -15066895.17944  20252638.2604   20252637.1884
  -7406076.75944  -5770963.17544  20898993.6994   20898993.2444
  13462025.75044  10489888.29344  23821267.5894   23821268.6424
  -7558973.08744  -5890105.43644  23451047.0704   23451045.7504
 -10713671.77744  -8348311.68644  22299943.6474   22299943.7694
 96  2 29  3 13  0.0000000  0  7G16G 4G 5G24G 9G 6G20
 -10790968.39544  -8408542.79044  22285234.8914   22285234.8284
  14397747.12644  11219026.43944  23512577.7464   23512576.1674
 -19345599.42544 -15074486.94444  20250784.1464   20250783.0684
  -7357373.64244  -5733012.69244  20908261.7094   20908261.2144
  13554036.03144  10561584.60744  23838775.0864   23838775.2834
  -7626454.64444  -5942688.44144  23438206.5564   23438204.2564
 -20883742.76044 -16273039.27844  21231472.4324   21231471.9954
 96  2 29  3 13 30.0000000  0  7G16G 4G 5G24G 9G 6G20
 -10867923.51944  -8468507.80244  22270590.3294   22270589.8804
  14492711.13744  11293024.36844  23530648.5464   23530648.1984
 -19354817.98544 -15081670.24044  20249029.9664   20249028.7724
  -7308348.89844  -5694811.59144  20917590.6724   20917590.2304
  13646068.51644  10633298.22244  23856289.0944   23856288.6954
  -7693885.45544  -5995231.91044  23425374.3254   23425372.2274
 -20947398.59744 -16322641.22544  21219359.5344   21219358.9944
 96  2 29  3 14  0.0000000  0  7G20G 4G 5G24G 9G 6G16
 -21010664.19444 -16371939.09144  21207320.7184   21207319.9884
  14587745.48244  11367077.09144  23548733.7834   23548731.0274
 -19363515.22944 -15088447.31944  20247375.0814   20247374.0814
  -7259017.53944  -5656371.56644  20926978.1134   20926977.5784
  13738109.83244  10705018.70844  23873804.3714   23873803.7364
  -7761270.69944  -6047739.83744  23412550.8504   23412551.3654
 -10944534.47644  -8528204.62644  22256011.7364   22256012.3224
 96  2 29  3 14 30.0000000  0  7G16G 4G 5G24G 9G 6G20
 -11020798.17044  -8587630.86044  22241499.7894   22241499.5574
  14682849.44444  11441184.09644  23566830.8744   23566829.5264
 -19371697.31144 -15094822.97244  20245817.9584   20245816.8114
  -7209366.03944  -5617682.08644  20936425.9534   20936425.5954
  13830154.40844  10776741.73044  23891319.1784   23891319.3444
  -7828618.70244  -6100218.78144  23399735.4524   23399734.1254
 -21073527.47244 -16420923.46144  21195358.1554   21195357.5674
 96  2 29  3 15  0.0000000  0  7G20G 4G 5G24G 9G 6G16
 -21135983.30944 -16469590.34544  21183472.9674   21183472.5874
  14778015.22344  11515339.25444  23584940.2894   23584939.9624
 -19379352.68944 -15100788.20544  20244361.2214   20244360.1754
  -7159373.94644  -5578727.20644  20945939.4644   20945938.9154
  13922212.37844  10848475.22344  23908837.5904   23908837.6764
  -7895943.19544  -6152679.42244  23386924.2834   23386923.2554
 -11096721.65444  -8646791.99244  22227051.9444   22227051.8664
 96  2 29  3 15 30.0000000  0  7G20G 4G 9G 5G24G 6G16
 -21198038.85444 -16517945.30844  21171664.2874   21171663.2754
  14873217.35344  11589522.71344  23603056.2494   23603054.8534
  14014297.67744  10920229.99244  23926361.0364   23926362.2244
 -19386487.27344 -15106347.62344  20243003.5144   20243002.4734
  -7109042.91544  -5539508.21644  20955517.2924   20955516.3934
  -7963251.57244  -6205127.48844  23374115.0124   23374113.8724
 -11172315.97944  -8705696.63744  22212667.0774   22212666.9274
 96  2 29  3 16  0.0000000  0  7G16G 4G 5G24G 9G 6G20
 -11247584.49944  -8764347.42944  22198342.9514   22198343.1314
  14968471.19144  11663746.46844  23621183.2444   23621182.8914
 -19393097.34244 -15111498.32744  20241745.8074   20241744.5764
  -7058354.77444  -5500010.96244  20965162.8914   20965162.3954
  14106431.38944  10992022.46644  23943893.1954   23943893.1304
  -8030540.37444  -6257560.28944  23361310.3324   23361309.0394
 -21259685.12244 -16565981.36644  21159933.2364   21159932.6004
 96  2 29  3 16 30.0000000  0  7G16G 4G 5G24G 9G 6G20
 -11322519.50744  -8822738.32244  22184083.5814   22184083.6344
  15063800.48044  11738029.03244  23639324.0894   23639322.5764
 -19399183.73944 -15116240.97644  20240587.5524   20240586.4144
  -7007295.74044  -5460224.69844  20974878.9744   20974878.5084
  14198621.01844  11063858.52744  23961437.1194   23961437.8964
  -8097803.49244  -6309973.07044  23348510.5954   23348510.4114
 -21320913.56444 -16613691.83044  21148281.9074   21148281.4894
 96  2 29  3 17  0.0000000  0  7G 5G24G 4G 9G 6G16G20
 -19404740.97644 -15120571.29244  20239530.0574   20239528.8264
  -6955887.77944  -5420166.54244  20984661.6764   20984661.1804
  15159204.72244  11812370.02844  23657477.7864   23657477.6304
  14290853.67844  11135728.14044  23978988.3224   23978988.8724
  -8165026.46844  -6362354.58444  23335718.1764   23335718.2634
 -11397105.60744  -8880857.33644  22169890.5244   22169889.9504
 -21381732.86944 -16661083.49344  21136708.5234   21136707.9414
 96  2 29  3 17 30.0000000  0  7G 5G24G 4G 9G 6G16G20
 -19409779.11244 -15124497.11244  20238571.3544   20238570.1904
  -6904152.69344  -5379853.48944  20994506.6544   20994506.2644
  15254699.35444  11886781.41644  23675650.3734   23675649.1054
  14383109.04144  11207615.40844  23996543.0084   23996544.7424
  -8232198.45944  -6414696.38644  23322935.7324   23322935.1574
 -11471343.34744  -8938704.90844  22155763.3384   22155763.5844
 -21442152.04344 -16708163.37144  21125210.7314   21125210.3704
 96  2 29  3 18  0.0000000  0  7G 5G24G 4G 9G 6G16G20
 -19414292.50544 -15128014.04444  20237712.4724   20237711.2884
  -6852104.32344  -5339296.31944  21004411.0704   21004410.6884
  15350299.99744  11961275.42644  23693843.5444   23693838.9504
  14475378.46544  11279513.67744  24014102.6344   24014102.6294
  -8299325.88944  -6467003.44144  23310161.8994   23310161.6594
 -11545229.47344  -8996278.49444  22141703.3084   22141702.9144
 -21502164.06544 -16754925.97944  21113790.5844   21113790.1714
 96  2 29  3 18 30.0000000  0  7G 5G24G 4G 9G 6G16G20
 -19418284.82744 -15131124.94544  20236952.8154   20236951.7374
  -6799785.83144  -5298528.66244  21014367.0244   21014366.4754
  15445962.09544  12035817.31544  23712047.0944   23712045.5064
  14567635.98344  11351402.63544  24031658.0694   24031658.7304
  -8366435.87244  -6519296.89944  23297391.1084   23297391.4344
 -11618770.59644  -9053583.24444  22127708.9424   22127709.0554
 -21561780.19544 -16801380.09944  21102446.3154   21102446.1824
 96  2 29  3 19  0.0000000  0  7G 5G24G 4G 9G 6G16G20
 -19421745.56944 -15133821.63244  20236294.1364   20236293.0774
  -6747205.83044  -5257557.22644  21024372.6244   21024371.7264
  15541658.56444  12110385.99844  23730255.9054   23730256.5344
  14659879.72044  11423280.83844  24049210.9774   24049208.9984
  -8433535.08544  -6571581.96144  23284622.2524   23284621.6344
 -11691982.52144  -9110631.47344  22113776.9624   22113777.0094
 -21620992.87344 -16847519.84744  21091178.9834   21091177.9274
 96  2 29  3 19 30.0000000  0  7G 5G24G 4G 9G 6G16G20
 -19424651.21744 -15136085.77844  20235741.2604   20235740.0004
  -6694332.12544  -5216356.93744  21034433.9484   21034433.3824
  15637412.81344  12184999.69544  23748478.7344   23748477.2284
  14752135.79344  11495168.68644  24066767.9164   24066767.7834
  -8500607.07644  -6623845.83644  23271858.8494   23271858.6684
 -11764845.30644  -9167407.64844  22099911.9244   22099911.3644
 -21679770.08444 -16893320.27744  21079993.9694   21079993.4024
 96  2 29  3 20  0.0000000  0  7G 5G24G 4G 9G 6G16G20
 -19427006.65344 -15137921.19044  20235293.1104   20235291.8944
  -6641176.00244  -5174936.58144  21044549.2154   21044548.7244
  15733200.04744  12259639.10144  23766706.0654   23766706.5214
  14844397.64744  11567061.04544  24084325.3104   24084325.6904
  -8567663.94444  -6676097.91044  23259098.4824   23259099.0874
 -11837345.77244  -9223901.49744  22086115.3924   22086115.1444
 -21738102.59444 -16938774.17244  21068893.4484   21068893.0594
 96  2 29  3 20 30.0000000  0  7G 5G24G 4G 9G 6G16G20
 -19428828.27244 -15139340.64144  20234946.4554   20234945.1844
  -6587737.70544  -5133296.34944  21054718.4194   21054717.9064
  15828999.17544  12334287.74844  23784935.7584   23784934.4054
  14936651.51844  11638947.15544  24101878.3954   24101877.6384
  -8634704.58944  -6728337.37244  23246340.9114   23246341.1504
 -11909487.97744  -9280116.18544  22072387.0654   22072387.3984
 -21796003.07744 -16983891.42944  21057875.2674   21057874.7034
 96  2 29  3 21  0.0000000  0  7G 5G24G 4G 9G 6G16G20
 -19430114.81744 -15140343.14844  20234701.5464   20234700.3414
  -6533988.63444  -5091413.94944  21064946.1914   21064945.6104
  15924855.70244  12408981.16044  23803177.0954   23803175.1514
  15028910.29144  11710837.08744  24119435.3364   24119436.6384
  -8701699.81244  -6780541.40744  23233592.3974   23233591.7014
 -11981254.00944  -9336037.74144  22058730.6784   22058731.1364
 -21853460.53444 -17028663.48044  21046941.4354   21046941.0604
 96  2 29  3 21 30.0000000  0  7G 5G24G 4G 9G 6G16G20
 -19430885.38544 -15140943.59244  20234554.9454   20234553.7884
  -6479947.33544  -5049303.84644  21075229.8424   21075229.4414
  16020769.92944  12483719.50444  23821428.6214   23821425.5874
  15121153.97244  11782715.25444  24136989.0504   24136988.6514
  -8768654.80144  -6832714.09144  23220851.5104   23220850.1904
 -12052626.98944  -9391653.03244  22045148.3964   22045148.2044
 -21910497.08544 -17073107.53944  21036087.8464   21036087.4804
 96  2 29  3 22  0.0000000  0  7G 5G24G 4G 9G 6G16G20
 -19431146.41244 -15141146.99244  20234505.3104   20234504.2414
  -6425618.99444  -5006970.07544  21085568.2224   21085567.8414
  16116721.11544  12558486.66144  23839687.8994   23839686.3204
  15213382.90644  11854581.91644  24154539.7884   24154540.3204
  -8835567.61144  -6884853.91644  23208118.4514   23208117.4664
 -12123616.44544  -9446969.46744  22031639.9464   22031639.6804
 -21967114.67544 -17117225.14144  21025313.9914   21025313.2074
 96  2 29  3 22 30.0000000  0  7G 5G24G 4G 9G 6G16G20
 -19430885.48444 -15140943.66944  20234554.7384   20234553.8374
  -6370992.14844  -4964403.70244  21095963.3964   21095963.1034
  16212719.28944  12633290.42544  23857955.1874   23857954.2494
  15305592.41644  11926433.47244  24172086.4044   24172086.9864
  -8902424.93544  -6936950.49944  23195396.7354   23195396.2654
 -12194234.27144  -9501996.32244  22018201.9214   22018201.9804
 -22023315.30844 -17161017.84444  21014619.5234   21014618.8334
 96  2 29  3 23  0.0000000  0  7G 5G24G 4G 9G 6G16G20
 -19430098.53444 -15140330.46544  20234704.5584   20234703.6514
  -6316065.80544  -4921603.95044  21106415.8534   21106415.4084
  16308763.53344  12708130.08744  23876231.9944   23876230.5234
  15397769.52044  11998259.79044  24189626.6834   24189627.2524
  -8969236.52744  -6989011.46744  23182682.9544   23182682.6144
 -12264471.67644  -9556726.74944  22004836.0254   22004836.5264
 -22079086.78744 -17204476.13344  21004006.6034   21004006.1384
 96  2 29  3 23 30.0000000  0  7G 5G24G 4G 9G 6G16G20
 -19428781.99344 -15139304.59244  20234955.0694   20234953.9474
  -6260835.38944  -4878567.26544  21116925.6104   21116925.1294
  16404838.28644  12782993.50844  23894514.9674   23894513.9254
  15489914.90844  12070061.37744  24207161.6364   24207161.0134
  -9036009.20644  -7041042.09044  23169976.4084   23169975.5084
 -12334321.17244  -9611154.90644  21991543.9904   21991544.0584
 -22134414.14944 -17247588.36544  20993477.8224   20993477.2144
 96  2 29  3 24  0.0000000  0  7G24G 4G 9G 5G 6G16G20
  -6205292.05144  -4835286.73944  21127495.3054   21127494.8614
  16500936.99944  12857875.62344  23912801.0824   23912799.1914
  15582031.79244  12141840.72544  24224691.0534   24224690.2784
 -19426937.15144 -15137867.05844  20235306.2434   20235305.0774
  -9102751.93644  -7093049.38344  23157275.7974   23157275.8164
 -12403790.49844  -9665286.82244  21978324.3514   21978324.4424
 -22189283.51444 -17290343.71244  20983036.5804   20983035.9064
 96  2 29  3 24 30.0000000  0  7G24G 4G 9G 5G 6G16G20
  -6149446.80444  -4791770.96444  21138122.1624   21138121.7154
  16597057.74044  12932774.86744  23931092.7734   23931091.0984
  15674109.25944  12213589.44144  24242212.2144   24242212.4304
 -19424573.95044 -15136025.60744  20235755.7974   20235754.8214
  -9169487.78544  -7145051.30344  23144576.3464   23144574.8494
 -12472876.60144  -9719120.13444  21965177.3994   21965177.8264
 -22243704.61144 -17332749.75944  20972680.6234   20972679.7954
 96  2 29  3 25  0.0000000  0  7G24G 4G 9G 5G 6G16G20
  -6093308.63944  -4748026.93444  21148804.8984   21148804.3974
  16693192.07044  13007684.74444  23949385.8824   23949385.3714
  15766163.07544  12285319.67744  24259729.9064   24259729.5064
 -19421697.39844 -15133784.14244  20236303.4344   20236302.2804
  -9236215.01844  -7197046.54044  23131878.3854   23131876.3844
 -12541564.48244  -9772643.13844  21952106.5044   21952106.8684
 -22297665.48444 -17374797.19244  20962412.4104   20962411.8384
 96  2 29  3 25 30.0000000  0  7G24G 4G 5G 9G 6G16G20
  -6036881.71244  -4704057.90144  21159542.4464   21159541.8484
  16789339.35244  13082604.71544  23967682.8204   23967682.9654
 -19418289.95344 -15131128.99344  20236951.6504   20236950.5944
  15858206.76844  12357042.01944  24277244.8454   24277245.7614
  -9302907.05944  -7249014.34144  23119187.2074   23119186.1374
 -12609857.36944  -9825858.35544  21939110.9944   21939111.2684
 -22351156.67044 -17416478.63444  20952233.2544   20952232.8494
 96  2 29  3 26  0.0000000  0  7G24G 4G 5G 9G 6G16G20
  -5980179.56244  -4659874.41044  21170332.8574   21170332.3094
  16885499.26644  13157534.51144  23985981.8424   23985981.4124
 -19414335.81144 -15128047.85144  20237704.1444   20237703.2344
  15950243.92844  12428759.27244  24294759.5084   24294759.0834
  -9369557.90444  -7300950.02744  23106503.7934   23106502.9314
 -12677758.90944  -9878768.62844  21926189.7294   21926189.7124
 -22404183.56344 -17457798.29244  20942142.3474   20942141.8814
 96  2 29  3 26 30.0000000  0  7G24G 4G 9G 5G 6G16G20
  -5923230.67144  -4615498.64444  21181169.9014   21181169.2124
  16981676.61144  13232477.87944  24004282.5994   24004279.8744
  16042258.87744  12500459.24744  24312269.2544   24312267.8744
 -19409839.21344 -15124544.01144  20238559.8194   20238558.6284
  -9436164.02444  -7352850.86544  23093828.5374   23093828.2894
 -12745277.05844  -9931380.14844  21913341.3654   21913341.5704
 -22456758.98844 -17498766.15744  20932137.7394   20932137.1384
 96  2 29  3 27  0.0000000  0  7G24G 4G 9G 5G 6G16G20
  -5866043.73744  -4570937.39144  21192052.1684   21192051.5034
  17077874.96744  13307437.62444  24022588.8174   24022585.0944
  16134225.83244  12572121.78344  24329769.8484   24329770.7354
 -19404798.08744 -15120615.86744  20239519.2534   20239518.2344
  -9502719.23844  -7404712.03244  23081163.3634   23081163.2024
 -12812409.13644  -9983690.83944  21900566.6074   21900567.0844
 -22508882.73744 -17539382.06744  20922218.7844   20922218.1524
 96  2 29  3 27 30.0000000  0  7G24G 4G 9G 5G 6G16G20
  -5808588.90044  -4526167.39044  21202985.2944   21202984.8384
  17174124.17544  13382437.02044  24040904.3704   24040903.9204
  16226157.36044  12643756.71444  24347264.3094   24347263.5564
 -19399195.38144 -15116250.12544  20240585.4544   20240584.2404
  -9569214.83944  -7456526.74744  23068509.6834   23068509.2844
 -12879126.50444 -10035678.39244  21887871.0704   21887871.3104
 -22560543.80744 -17579637.44544  20912388.1544   20912387.5564
 96  2 29  3 28  0.0000000  0  7G24G 4G 5G 9G 6G16G20
  -5750865.50544  -4481188.12544  21213969.6874   21213969.3104
  17270438.04044  13457486.79344  24059231.8464   24059231.3604
 -19393038.99044 -15111452.94444  20241757.0054   20241755.9994
  16318056.19144  12715366.14244  24364752.2184   24364752.7004
  -9635661.68244  -7508303.50944  23055865.7144   23055865.0624
 -12945416.71444 -10087333.07144  21875256.1784   21875256.5104
 -22611748.23244 -17619536.99144  20902644.2324   20902643.9284
 96  2 29  3 28 30.0000000  0  7G24G 4G 5G 9G 6G16G20
  -5692884.63844  -4436008.22844  21225003.1244   21225002.5624
  17366792.48244  13532568.12644  24077568.0594   24077566.5854
 -19386352.21644 -15106242.47444  20243029.2414   20243028.2294
  16409878.55144  12786916.02544  24382224.6424   24382225.3534
  -9702080.49944  -7560058.39544  23043225.9104   23043224.7514
 -13011291.95844 -10138664.41544  21862720.6044   21862720.9424
 -22662506.65744 -17659089.01044  20892985.0114   20892984.5744
 96  2 29  3 29  0.0000000  0  7G24G 4G 5G 9G 6G16G20
  -5634641.58444  -4390624.02244  21236086.5324   21236085.9154
  17463154.97744  13607655.79544  24095904.2154   24095902.7864
 -19379148.77644 -15100629.40944  20244400.1464   20244399.3024
  16501613.35344  12858397.70144  24399681.0884   24399679.4264
  -9768489.56044  -7611805.69144  23030588.7304   23030588.8074
 -13076755.29744 -10189674.79944  21850263.3324   21850263.3424
 -22712826.39144 -17698299.19544  20883409.8344   20883409.1814
 96  2 29  3 29 30.0000000  0  7G24G 4G 5G 9G 6G16G20
  -5576119.15544  -4345022.13044  21247222.9294   21247222.4074
  17559532.24044  13682754.98444  24114244.8374   24114243.2014
 -19371403.68344 -15094594.27744  20245874.0534   20245872.7174
  16593300.09144  12929841.88744  24417129.1414   24417128.4464
  -9834876.75344  -7663535.93744  23017955.9694   23017955.5984
 -13141793.65644 -10240354.01844  21837886.6354   21837886.6604
 -22762682.73044 -17737148.29444  20873922.3834   20873921.8554
 96  2 29  3 30  0.0000000  0  7G24G 4G 5G 9G 6G16G20
  -5517323.73544  -4299207.51944  21258411.3114   21258410.5914
  17655917.30244  13757860.22144  24132586.2124   24132584.7634
 -19363110.58044 -15088132.12444  20247452.0114   20247451.0094
  16684926.71544  13001239.22844  24434564.7584   24434564.6634
  -9901231.60844  -7715240.99144  23005329.2254   23005329.2444
 -13206420.63544 -10290712.69144  21825588.9514   21825589.0664
 -22812059.12244 -17775623.40144  20864526.1834   20864525.5334
 96  2 29  3 30 30.0000000  0  7G24G 4G 5G 9G 6G16G20
  -5458260.18444  -4253183.96844  21269650.5954   21269650.0714
  17752275.33044  13832944.38044  24150923.7654   24150922.5964
 -19354282.26944 -15081252.92844  20249132.0404   20249130.8114
  16776477.38844  13072577.40344  24451986.1214   24451986.1204
  -9967563.76744  -7766928.36144  22992706.9174   22992705.9994
 -13270640.51144 -10340754.13444  21813368.1434   21813367.8394
 -22860958.31144 -17813726.66844  20855221.0274   20855220.6754
 96  2 29  3 31  0.0000000  0  7G24G 4G 5G 9G 6G16G20
  -5398920.89344  -4206945.56244  21280942.7274   21280942.3584
  17848618.98844  13908017.35944  24169256.8384   24169256.2954
 -19344914.37544 -15073953.27944  20250914.6244   20250913.6394
  16867976.55044  13143875.41744  24469399.4434   24469399.6454
 -10033864.40944  -7818591.16344  22980090.3044   22980089.1274
 -13334441.94144 -10390469.52444  21801227.3694   21801227.1924
 -22909366.58844 -17851447.39744  20846009.5204   20846008.9814
 96  2 29  3 31 30.0000000  0  7G24G 4G 5G 9G 6G16G20
  -5339310.04644  -4160495.55044  21292285.9064   21292285.4414
  17944958.86344  13983087.39344  24187590.0544   24187588.7424
 -19334993.97044 -15066223.10144  20252802.5634   20252801.4514
  16959421.56544  13215131.30244  24486798.7774   24486800.9134
 -10100125.60444  -7870223.25444  22967481.0444   22967479.6114
 -13397820.28944 -10439855.23244  21789166.9334   21789166.5194
 -22957270.30044 -17888774.96444  20836893.4384   20836892.9214
 96  2 29  3 32  0.0000000  0  7G24G 4G 5G 9G 6G16G20
  -5279424.72044  -4113831.65744  21303681.8414   21303681.5454
  18041297.06244  14058156.11144  24205922.6134   24205923.7704
 -19324524.59444 -15058065.14844  20254794.6844   20254793.7674
  17050798.54244  13286334.09244  24504187.9734   24504189.9644
 -10166334.40244  -7921814.49344  22954882.0154   22954881.0524
 -13460763.16444 -10488901.60844  21777188.8734   21777188.7424
 -23004664.86344 -17925705.79244  20827874.9744   20827874.2334
 96  2 29  3 32 30.0000000  0  7G24G 4G 5G 9G 6G16G20
  -5219269.28044  -4066957.29344  21315129.0384   21315128.5834
  18137639.20144  14133227.92144  24224256.6724   24224253.6104
 -19313503.66544 -15049477.41744  20256891.7794   20256890.9974
  17142111.10544  13357486.68644  24521563.6044   24521562.2624
 -10232502.69644  -7973374.18044  22942290.5094   22942289.7384
 -13523255.18644 -10537596.67244  21765297.5484   21765297.0824
 -23051559.66944 -17962247.19844  20818950.9454   20818950.4204
 96  2 29  3 33  0.0000000  0  7G24G 4G 5G 9G 6G16G20
  -5158860.15844  -4019885.24944  21326624.5574   21326623.7614
  18234014.74644  14208325.74744  24242595.0404   24242592.0364
 -19301925.41144 -15040455.40344  20259095.1694   20259094.1774
  17233356.52544  13428587.01544  24538928.6984   24538925.5104
 -10298625.90844  -8024898.73044  22929707.6524   22929707.3044
 -13585299.64444 -10585942.99344  21753490.4474   21753490.2544
 -23097948.15544 -17998394.07144  20810123.6284   20810122.9874
 96  2 29  3 33 30.0000000  0  7G24G 4G 5G 9G 6G16G20
  -5098212.53944  -3972627.36144  21338165.4734   21338164.9244
  18330413.37544  14283441.59444  24260938.7794   24260938.2484
 -19289795.96344 -15031003.89144  20261403.4754   20261402.2624
  17324530.56344  13499631.71944  24556277.9704   24556277.3554
 -10364708.79544  -8076391.86244  22917132.3724   22917131.0124
 -13646899.63144 -10633942.97144  21741768.0744   21741767.7654
 -23143841.08144 -18034154.79344  20801390.3144   20801389.7324
 96  2 29  3 34  0.0000000  0  7G24G 4G 5G 9G 6G16G20
  -5037322.66044  -3925180.70644  21349752.4844   21349751.9134
  18426844.57244  14358582.74744  24279288.5634   24279286.7434
 -19277117.64944 -15021124.69044  20263815.9314   20263814.6434
  17415647.32044  13570631.77344  24573616.4674   24573618.3264
 -10430744.15144  -8127847.95644  22904566.2084   22904565.7344
 -13708052.72544 -10681594.72044  21730131.4594   21730131.7464
 -23189236.04444 -18069527.49044  20792751.8004   20792751.2814
 96  2 29  3 34 30.0000000  0  7G24G 5G 4G 9G 6G16G20
  -4976202.98644  -3877554.98644  21361383.1314   21361382.5844
 -19263898.87744 -15010824.35644  20266331.6864   20266330.5894
  18523297.19344  14433740.62444  24297642.9174   24297641.7724
  17506709.10444  13641588.96044  24590945.5454   24590946.4144
 -10496737.77244  -8179271.52944  22892007.7334   22892007.2354
 -13768771.34244 -10728907.91444  21718577.0324   21718576.8984
 -23234147.62544 -18104523.53044  20784205.6494   20784205.0114
 96  2 29  3 35  0.0000000  0  7G24G 5G 4G 9G 6G16G20
  -4914858.06644  -3829753.74844  21373056.5624   21373056.0464
 -19250151.38444 -15000112.02944  20268947.4054   20268946.3914
  18619751.30444  14508899.65044  24315996.2924   24315995.8094
  17597706.70044  13712496.15344  24608261.8864   24608259.9754
 -10562685.95544  -8230659.70844  22879458.3684   22879457.7414
 -13829072.64544 -10775895.93244  21707101.9844   21707101.8334
 -23278586.88044 -18139151.52444  20775749.1164   20775748.5574
 96  2 29  3 35 30.0000000  0  7G24G 5G 4G 9G 6G16G20
  -4853265.33744  -3781759.41744  21384777.5654   21384776.9284
 -19235866.78644 -14988981.18244  20271665.7654   20271665.0384
  18716192.78344  14584048.86844  24334349.0784   24334345.9184
  17688644.64844  13783356.88444  24625567.6164   24625569.2954
 -10628588.63644  -8282012.42344  22866917.2824   22866916.6704
 -13888947.52744 -10822551.67644  21695708.1624   21695708.2154
 -23322552.97344 -18173410.81744  20767382.5684   20767381.9694
 96  2 29  3 36  0.0000000  0  7G24G 5G 4G 9G 6G16G20
  -4791421.90744  -3733569.73044  21396545.8564   21396545.2464
 -19221034.15244 -14977423.29044  20274488.5034   20274487.3734
  18812622.09344  14659188.66144  24352699.0534   24352698.1774
  17779515.83944  13854165.57844  24642858.3594   24642858.0074
 -10694434.52344  -8333320.88844  22854387.4404   22854386.8914
 -13948394.46544 -10868873.95244  21684396.0194   21684395.9564
 -23366043.92244 -18207299.86744  20759106.4414   20759106.0694
 96  2 29  3 36 30.0000000  0  7G24G 5G 4G 9G 6G16G20
  -4729334.06144  -3685189.59344  21408360.9284   21408360.3224
 -19205642.72944 -14965429.97744  20277417.1934   20277416.1694
  18909037.90444  14734317.79544  24371047.9064   24371051.0634
  17870312.02344  13924915.82144  24660135.4244   24660133.4634
 -10760230.65844  -8384590.58044  22841866.1354   22841865.5994
 -14007399.28144 -10914851.71244  21673167.7624   21673167.4674
 -23409061.19744 -18240819.82344  20750920.6954   20750919.9134
 96  2 29  3 37  0.0000000  0  7G24G 5G 4G 9G 6G16G20
  -4667031.37144  -3636642.04044  21420216.5224   21420216.0134
 -19189715.00444 -14953018.76944  20280448.3374   20280447.3504
  19005425.65444  14809425.09844  24389389.2434   24389386.0404
  17960989.02444  13995573.19444  24677391.9384   24677393.5464
 -10826017.88444  -8435853.32044  22829347.7904   22829347.1654
 -14065978.04744 -10960497.49044  21662020.5964   21662020.6664
 -23451619.51044 -18273982.14644  20742821.9764   20742821.4134
 96  2 29  3 37 30.0000000  0  7G 5G24G 4G 9G 6G16G20
 -19173246.90144 -14940186.48844  20283582.0134   20283581.1364
  -4604511.99144  -3587925.64244  21432113.4374   21432113.0304
  19101798.81844  14884521.07444  24407729.3734
  18051546.54244  14066137.48144  24694624.7984   24694625.9154
 -10891788.56644  -8487103.18244  22816832.3434   22816830.9294
 -14124103.21044 -11005789.80644  21650959.6114   21650959.3724
 -23493690.25944 -18306764.54644  20734816.4774   20734815.8214
 96  2 29  3 38  0.0000000  0  7G24G 5G 4G 9G 6G16G20
  -4541777.09644  -3539041.31044  21444051.6674   21444051.3654
 -19156220.99544 -14926919.55844  20286821.9714   20286821.0444
  19198176.37644  14959620.50444  24426069.4774   24426067.3534
  18141991.14544  14136613.76844  24711834.0594   24711833.5064
 -10957519.11944  -8538321.77444  22804323.9994   22804322.7934
 -14181754.26844 -11050712.70044  21639988.9424   21639988.6104
 -23535256.92744 -18339154.15944  20726906.6044   20726905.9634
 96  2 29  3 38 30.0000000  0  7G 5G24G 4G 9G 6G16G20
 -19138662.32944 -14913237.48944  20290163.2224   20290162.1324
  -4478831.86544  -3489993.08544  21456029.5284   21456029.0644
  19294546.49244  15034714.08444  24444407.5304   24444408.6044
  18232293.44844  14206979.18344  24729019.7394   24729017.3444
 -11023240.10044  -8589532.91144  22791817.6924   22791817.2494
 -14238936.16144 -11095270.00744  21629107.3614   21629107.4594
 -23576326.13044 -18371156.13444  20719091.1674   20719090.9804
 96  2 29  3 39  0.0000000  0  8G24G 5G 4G 9G17G 6G16G20
  -4415656.22144  -3440765.30744  21468051.2774   21468050.9764
 -19120573.38444 -14899142.21044  20293605.4514   20293604.3174
  19390904.52544  15109798.22744  24462743.8584   24462741.5694
  18322464.27144  14277242.17344  24746178.1744   24746180.2974
        -0.95654                  25507929.7034
 -11088927.37744  -8640717.78644  22779317.5424   22779317.5834
 -14295641.11844 -11139455.67244  21618316.7254   21618316.5974
 -23616870.68344 -18402749.29444  20711375.6414   20711375.2164
 96  2 29  3 39 30.0000000  0  8G24G 5G 4G 9G17G 6G16G20
  -4352256.22244  -3391362.70944  21480116.1174   21480115.7324
 -19101962.69244 -14884640.37744  20297147.0484   20297145.9264
  19487220.03044  15184849.29244  24481072.5594   24481072.1604
  18412507.67644  14347405.85144  24763313.1034   24763313.7504
    -98339.45344                  25489218.7894
 -11154569.40444  -8691867.40444  22766826.4024   22766826.0354
 -14351878.70144 -11183277.15244  21607615.4334   21607615.1434
 -23656894.19444 -18433936.45044  20703759.7884   20703759.2244
 96  2 29  3 40  0.0000000  0  7G24G 5G 4G 9G 6G16G20
  -4288629.61444  -3341783.54044  21492223.8944   21492223.4194
 -19082813.45644 -14869718.90044  20300790.9094   20300789.8824
  19583496.39544  15259869.79644  24499393.7414   24499392.0474
  18502440.16944  14417483.06644  24780426.5504   24780423.4474
 -11220160.40044  -8742977.25644  22754344.9644   22754345.0474
 -14407643.87144 -11226730.51844  21597003.7784   21597003.3804
 -23696395.04744 -18464716.33144  20696242.8054   20696242.3174
 96  2 29  3 40 30.0000000  0  7G24G 5G 4G 9G 6G16G20
  -4224772.18544  -3292024.50144  21504375.2434   21504374.8984
 -19063136.12644 -14854385.92144  20304535.2184   20304534.3744
  19679723.37744  15334851.88544  24517705.1574   24517702.8004
  18592270.95844  14487481.07644  24797521.5084   24797520.6704
 -11285706.73744  -8794052.30944  22741871.5894   22741871.0304
 -14462933.70144 -11269813.48844  21586481.9364   21586481.9384
 -23735363.04244 -18495081.00544  20688827.5674   20688826.7554
 96  2 29  3 41  0.0000000  0  7G 5G24G 4G 9G 6G16G20
 -19042903.95644 -14838620.59744  20308385.4894   20308384.6374
  -4160685.52844  -3242086.84544  21516570.5354   21516569.9744
  19775912.86644  15409804.74844  24536008.6844   24536007.7614
  18682033.15444  14557425.61644  24814601.1954   24814601.9444
 -11351171.26644  -8845063.61244  22729414.8964   22729414.3194
 -14517735.81944 -11312516.43444  21576053.4724   21576053.2534
 -23773774.90844 -18525012.32844  20681517.9874   20681517.5304
 96  2 29  3 41 30.0000000  0  7G24G 5G 4G 9G 6G16G20
  -4096382.14544  -3191980.31444  21528807.0704   21528806.6544
 -19022106.98544 -14822415.17144  20312343.0094   20312341.8934
  19872083.18444  15484742.64444  24554309.2834   24554307.8454
  18771714.10044  14627306.87044  24831669.0904   24831671.4134
 -11416559.40044  -8896015.39444  22716972.5204   22716971.4894
 -14572052.40644 -11354841.03744  21565717.5994   21565717.4524
 -23811654.03744 -18554528.53144  20674309.6214   20674309.1264
 96  2 29  3 42  0.0000000  0  8G24G 5G 4G 9G17G 6G16G20
  -4031868.48544  -3141709.93244  21541083.6254   21541083.4564
 -19000746.06044 -14805770.30144  20316407.8954   20316406.8604
  19968243.42444  15559672.71044  24572607.7604   24572607.1254
  18861298.45844  14697112.84744  24848714.3184   24848714.2054
        -0.03554         0.04554  25395958.1574
 -11481892.41844  -8946924.22344  22704539.4804   22704538.3204
 -14625887.63344 -11396790.55944  21555473.1184   21555473.0164
 -23849016.33444 -18583642.01344  20667199.9984   20667199.6294
 96  2 29  3 42 30.0000000  0  8G24G 5G 4G 9G17G 6G16G20
  -3967146.98344  -3091277.59544  21553399.8644   21553399.2604
 -18978827.33044 -14788690.77944  20320578.8634   20320577.9644
  20064391.70944  15634593.42044  24590903.9094   24590906.2234
  18950768.58344  14766829.77244  24865740.4974   24865735.8994
    -97641.56044                  25377378.5364
 -11547181.46044  -8997798.78844  22692115.4454   22692114.2964
 -14679248.75244 -11438370.63944  21545318.7544   21545318.7024
 -23885870.28444 -18612359.36944  20660186.8874   20660186.2754
 96  2 29  3 43  0.0000000  0  8G24G 5G 4G 9G17G 6G16G20
  -3902233.65344  -3040695.77944  21565752.8194   21565752.2684
 -18956352.05144 -14771177.58444  20324855.7274   20324854.6644
  20160520.64644  15709499.09444  24609197.2724   24609195.8094
  19040091.83644  14836432.34244  24882737.9404   24882740.2664
   -195181.41544                  25358818.6814
 -11612443.01744  -9048651.93444  22679696.0674   22679695.8764
 -14732148.38944 -11479591.13244  21535252.2594   21535252.1584
 -23922230.99944 -18640692.40044  20653267.7214   20653267.1584
 96  2 29  3 43 30.0000000  0  8G24G 6G 5G 4G 9G17G16G20
  -3837114.63144  -2989953.68244  21578144.2554   21578143.7644
 -11677682.64744  -9099488.00544  22667281.5554   22667281.2574
 -18933316.06044 -14753227.47044  20329239.4794   20329238.1564
  20256631.68844  15784390.82244  24627486.6414   24627483.8824
  19129266.94044  14905919.43544  24899707.3794
   -292619.04044                  25340277.7374
 -14784563.93844 -11520434.40844  21525277.4564   21525277.5654
 -23958102.36444 -18668644.10944  20646441.6104   20646441.2324
 96  2 29  3 44  0.0000000  0  8G24G 6G 5G 4G 9G17G16G20
  -3771756.13844  -2939024.99244  21590581.5964   21590581.2464
 -11742869.69544  -9150283.08444  22654876.5554   22654876.4054
 -18909690.37644 -14734817.85244  20333735.0264   20333733.8844
  20352742.78244  15859282.57144  24645775.8514   24645776.2464
  19218343.05044  14975329.33044  24916657.9654   24916658.6044
   -389917.05044   -303831.29844  25321762.5914   25321753.9044
 -14836448.38344 -11560863.83944  21515404.5194   21515404.5234
 -23993425.22844 -18696168.42444  20639719.8164   20639719.0374
 96  2 29  3 44 30.0000000  0  8G24G 5G 4G 9G17G 6G16G20
  -3706176.75844  -2887924.17544  21603061.1544   21603060.4634
 -18885499.33144 -14715967.69644  20338338.6584   20338337.5304
  20448838.12644  15934162.06144  24664063.1474   24664057.9634
  19307303.77044  15044649.36144  24933587.7634   24933587.1884
   -487079.58644   -379542.32944  25303272.8594
 -11807997.30844  -9201031.87544  22642482.9454   22642482.5624
 -14887806.11044 -11600882.83444  21505631.1684   21505631.2284
 -24028199.64244 -18723265.37144  20633102.6474   20633101.8994
 96  2 29  3 45  0.0000000  0  8G24G 5G 4G 9G17G 6G16G20
  -3640429.40744  -2836692.47044  21615572.3394   21615571.8044
 -18860809.71344 -14696729.03844  20343036.8844   20343035.9904
  20544863.00744  16008986.66744  24682334.1924   24682334.7964
  19396093.86444  15113836.39944  24950482.4814   24950481.1164
   -584170.94644                  25284792.6734
 -11873099.00044  -9251760.45644  22630094.9154   22630093.9764
 -14938689.81744 -11640532.46244  21495948.6004   21495948.8904
 -24062478.00244 -18749975.78344  20626579.2964   20626578.7224
 96  2 29  3 45 30.0000000  0  8G24G 6G 5G 4G 9G17G16G20
  -3574488.44444  -2785309.90844  21628120.5834   21628120.0774
 -11938134.90244  -9302437.78244  22617719.4084   22617717.9524
 -18835604.19544 -14677088.38044  20347833.3564   20347832.3864
  20640852.11944  16083783.41844  24700600.0124   24700596.1304
  19484762.32244  15182928.69644  24967357.4844   24967356.7104
   -681157.23244                  25266331.2104
 -14989066.43644 -11679786.95644  21486362.2224   21486361.8924
 -24096233.77244 -18776278.98444  20620156.0364   20620155.4934
 96  2 29  3 46  0.0000000  0  8G24G 6G 5G 4G 9G17G16G20
  -3508339.11244  -2733764.97544  21640708.0014   21640707.8084
 -12003095.62144  -9353056.50844  22605357.6564   22605356.6774
 -18809880.93044 -14657044.28544  20352728.2084   20352727.3254
  20736829.97144  16158571.31544  24718865.0174   24718862.5804
  19573313.68144  15251929.73044  24984207.2574   24984205.5364
   -778011.86344                  25247900.0564
 -15038931.16844 -11718642.58444  21476873.3254   21476872.9084
 -24129447.60344 -18802159.89644  20613835.6484   20613835.0264
 96  2 29  3 46 30.0000000  0  8G24G 6G 5G 4G 9G17G16G20
  -3442008.68144  -2682078.92944  21653330.5574   21653330.1584
 -12068006.48944  -9403636.38944  22593005.3644   22593003.8214
 -18783665.45644 -14636616.65244  20357716.9284   20357715.8904
  20832767.22444  16233327.57644  24737119.8004   24737116.6014
  19661700.97244  15320802.88344  25001026.7564   25001025.1194
   -874760.63544                  25229491.8534
 -15088321.04844 -11757128.19244  21467474.6454   21467474.4574
 -24162163.18144 -18827652.55844  20607610.2814   20607609.6564
 96  2 29  3 47  0.0000000  0  8G24G 6G 5G 4G 9G17G16G20
  -3375483.98644  -2630241.50544  21665990.0214   21665989.2174
 -12132876.79344  -9454184.67044  22580661.4644   22580659.6814
 -18756934.87944 -14615787.63944  20362803.6274   20362802.7154
  20928664.86444  16308052.98244  24755368.7954   24755366.7414
  19749941.19344  15389561.47944  25017819.0784   25017819.7234
   -971399.92144                  25211106.4374
 -15137229.42244 -11795238.60444  21458167.8104   21458167.4074
 -24194374.63344 -18852752.38944  20601480.2214   20601479.6994
 96  2 29  3 47 30.0000000  0  8G24G 6G16G 5G 4G 9G17G20
  -3308756.06944  -2578245.72844  21678687.7594   21678687.0644
 -12197716.98944  -9504709.48144  22568322.4844   22568321.2924
 -15185642.00244 -11832962.67744  21448955.3584   21448954.9154
 -18729660.84544 -14594535.15244  20367993.5744   20367992.4884
  21024524.58444  16382748.87044  24773610.1844
  19838047.10644  15458215.40144  25034584.4134   25034582.3304
  -1067898.00244   -832127.41644  25192746.2564   25192742.5764
 -24226063.19244 -18877444.77344  20595450.4044   20595449.8244
 96  2 29  3 48  0.0000000  0  8G24G 6G 5G 4G 9G17G16G20
  -3241831.01444  -2526096.33344  21691423.5094   21691422.8604
 -12262532.86644  -9555215.35644  22555988.2384   22555987.4694
 -18701827.36644 -14572846.73544  20373290.3864   20373289.2924
  21120333.91044  16457405.50644  24791842.7764
  19925997.80344  15526748.44044  25051322.6294   25051321.0174
  -1164262.14644   -907216.27744  25174409.2694   25174406.8284
 -15233562.94544 -11870303.66344  21439836.1034   21439836.3034
 -24257219.06044 -18901722.07544  20589521.6164   20589520.6194
 96  2 29  3 48 30.0000000  0  8G24G 6G16G 5G 4G 9G17G20
  -3174723.54344  -2473804.80244  21704193.1674   21704192.6164
 -12327328.29944  -9605705.29544  22543657.9984   22543656.8794
 -15281005.40944 -11907271.80744  21430808.0864   21430808.4924
 -18673428.82944 -14550718.01344  20378694.1984   20378693.0934
  21216072.72444  16532007.20644  24810062.7824   24810061.3734
  20013786.34344  15595155.05044  25068026.2044   25068023.7064
  -1260518.82244   -982221.38744  25156092.9584   25156088.6494
 -24287840.22444 -18925582.72644  20583694.8084   20583693.9014
 96  2 29  3 49  0.0000000  0  8G24G 6G16G 5G 4G 9G17G20
  -3107427.25744  -2421366.14844  21716999.3484   21716998.7354
 -12392088.31944  -9656167.63444  22531334.4214   22531332.9464
 -15327956.53644 -11943857.08944  21421873.5834   21421873.4914
 -18644456.47444 -14528142.16144  20384207.4544   20384206.4664
  21311757.47844  16606566.79344  24828270.6294   24828272.6384
  20101434.32344                  25084706.7674
  -1356665.06444  -1057140.48844  25137795.6434   25137793.2504
 -24317895.60644 -18949002.50744  20577975.0354   20577974.4294
 96  2 29  3 49 30.0000000  0  8G24G 6G16G 5G 4G 9G17G20
  -3039944.81244  -2368782.42344  21729840.4924   21729840.3594
 -12456797.45044  -9706590.32144  22519020.5334   22519019.6934
 -15374411.00844 -11980055.36644  21413033.4514   21413033.2704
 -18614913.66544 -14505121.80044  20389829.2494   20389828.2634
  21407399.33844  16681092.90844  24846470.4954   24846467.5184
  20188933.34844                  25101354.5224
  -1452689.39744  -1131964.60344  25119523.1924   25119520.9564
 -24347365.41744 -18971966.00144  20572367.1094   20572366.6384
 96  2 29  3 50  0.0000000  0  8G24G 6G16G 5G 4G 9G17G20
  -2972289.04644  -2316063.65044  21742714.8504   21742714.7944
 -12521440.24144  -9756961.30444  22506719.3984   22506717.9834
 -15420372.50244 -12015869.50344  21404287.4094   21404287.6534
 -18584822.69844 -14481674.30344  20395555.4994   20395554.5194
  21502995.34344  16755583.27844  24864662.7774
  20276270.76444                  25117976.6004
  -1548605.24444  -1206704.09344  25101267.3364
 -24376253.72844 -18994476.37344  20566870.1164   20566869.6614
 96  2 29  3 50 30.0000000  0  8G24G 6G16G 5G 4G 9G17G20
  -2904492.40544  -2263235.09944  21755616.3914   21755616.0574
 -12586040.41444  -9807299.09844  22494426.7604   22494425.9314
 -15465862.53444 -12051316.26944  21395630.8754   21395630.5534
 -18554233.85544 -14457838.85244  20401376.3634   20401375.1664
  21598520.24144  16830018.25644  24882840.5124   24882837.3844
  20363419.65444                  25134559.0544
  -1644427.12644                  25083024.9464
 -24404594.77244 -19016560.30944  20561476.8514   20561476.3504
 96  2 29  3 51  0.0000000  0  8G24G 6G16G 5G 4G 9G17G20
  -2836543.43744  -2210287.85644  21768546.7954   21768546.4704
 -12650572.68044  -9857583.96344  22482146.4684   22482144.8254
 -15510846.62244 -12086368.79844  21387070.7364   21387070.8694
 -18523135.09444 -14433606.05744  20407294.2414   20407292.9804
  21693995.76244  16904414.78844  24901007.9844
  20450398.26544  15935371.99544  25151111.1404
  -1740113.56744                  25064818.2784
 -24432378.13944 -19038209.68844  20556190.0774   20556189.5184
 96  2 29  3 51 30.0000000  0  8G24G 6G16G 5G 4G 9G17G20
  -2768362.33944  -2157159.73844  21781521.1784   21781520.7174
 -12714960.42444  -9907756.22244  22469894.1174   22469892.8774
 -15555236.39444 -12120958.22144  21378623.4714   21378623.4294
 -18491442.47944 -14408910.51944  20413325.1214   20413323.9654
  21789502.31944                  24919182.2584
  20537272.29344                  25167643.2494
  -1835578.18944  -1430319.04144  25046655.3354
 -24459543.78844 -19059377.72844  20551020.5834   20551019.9944
 96  2 29  3 52  0.0000000  0  8G24G 6G16G 5G 4G 9G17G20
  -2699997.52144  -2103888.45644  21794530.7624   21794530.2654
 -12779253.92444  -9957855.03344  22457659.6224   22457658.1974
 -15599065.40544 -12155110.68844  21370283.3814   21370283.0754
 -18459197.00144 -14383784.18044  20419461.3054   20419460.1764
  21884986.45144                  24937352.2494
  20624008.54244  16070652.66644  25184147.9014
  -1930867.62144  -1504570.44944  25028523.8534   25028527.2424
 -24486159.45244 -19080117.21044  20545955.5474   20545955.2344
 96  2 29  3 52 30.0000000  0  8G24G 6G16G 5G 4G 9G17G20
  -2631462.99744  -2050484.93044  21807572.1874   21807571.7024
 -12843487.09444 -10007906.84544  22445436.4894   22445434.8414
 -15642350.04844 -12188838.97144  21362046.8164   21362046.4224
 -18426396.84544 -14358225.62144  20425702.9284   20425701.8774
  21980426.98944                  24955514.0244
  20710601.05144  16138127.34144  25200626.6794   25200627.2324
  -2026003.29344  -1578702.07044  25010421.6304
 -24512248.00844 -19100445.95844  20540991.2884   20540990.6454
 96  2 29  3 53  0.0000000  0  8G24G 6G16G 5G 4G 9G17G20
  -2562781.40744  -1996966.80444  21820641.9954   21820641.0534
 -12907698.81544 -10057941.94144  22433217.1564   22433215.3914
 -15685127.13144 -12222171.75544  21353906.2824   21353905.9574
 -18393062.87844 -14332251.11044  20432046.1174   20432045.0154
  22075789.33844                  24973660.5104
  20797018.85144  16205465.86144  25217071.5094   25217072.7714
  -2121036.96544  -1652754.26344  24992339.0444   24992335.1934
 -24537845.12844 -19120391.76644  20536120.1094   20536119.7394
 96  2 29  3 53 30.0000000  0  8G24G 6G16G 5G 4G 9G17G20
  -2493929.28544  -1943315.79944  21833743.5334   21833743.0464
 -12971879.33944 -10107952.72744  22421003.9794   22421002.5244
 -15727389.63144 -12255103.56144  21345864.0094   21345864.1534
 -18359178.78744 -14305847.92944  20438493.9254   20438493.0734
  22171089.44444                  24991796.4014
  20883272.76744  16272676.68544  25233485.1474
  -2215966.86144  -1726725.55144  24974274.0704   24974270.7564
 -24562932.22544 -19139940.15244  20531346.1094   20531345.7424
 96  2 29  3 54  0.0000000  0  7G24G 6G16G 5G 9G17G20
  -2424891.01644  -1889519.74944  21846881.7104   21846880.9104
 -13036027.25944 -10157938.10944  22408796.8404   22408795.8264
 -15769125.43944 -12287624.95744  21337922.2224   21337921.9244
 -18324736.85944 -14279010.07144  20445048.0604   20445047.1964
  20969375.68844  16339769.83944  25249869.4244   25249871.4074
  -2310778.80144  -1800604.94444  24956231.0004   24956227.7034
 -24587477.97944 -19159066.71844  20526675.7354   20526675.1354
 96  2 29  3 54 30.0000000  0  8G24G 6G16G 5G25G 9G17G20
  -2355676.38644  -1835586.28144  21860053.1814   21860052.3144
 -13100160.85344 -10207912.32844  22396593.0574   22396592.2234
 -15810357.47944 -12319753.81244  21330075.6694   21330075.1614
 -18289761.21644 -14251756.33244  20451703.8364   20451702.8764
        -1.16154        -0.93954  25106305.0954   25106300.6874
  21055293.90144  16406719.10144  25266218.9734   25266221.9854
  -2405497.85144  -1874411.91944  24938205.2134   24938203.7334
 -24611473.57344 -19177764.58244  20522109.2714   20522108.6304
 96  2 29  3 55  0.0000000  0  8G24G 6G16G 5G25G 9G17G20
  -2286261.52844  -1781496.78244  21873261.8944   21873261.4664
 -13164250.19244 -10257852.05944  22384396.9914   22384396.2144
 -15851044.13044 -12351457.68544  21322333.3764   21322333.4844
 -18254255.61344 -14224089.63844  20458460.2804   20458459.2804
    -28720.42844                  25100841.4844
  21141029.25144  16473525.82144  25282533.4974   25282536.4364
  -2500088.50244  -1948118.83744  24920201.4884
 -24634885.74444 -19196007.83944  20517653.8784   20517653.2774
 96  2 29  3 55 30.0000000  0  8G24G 6G16G 5G25G 9G17G20
  -2216663.64544  -1727264.66644  21886506.1394   21886505.5884
 -13228303.27044 -10307763.54444  22372207.7774   22372206.8804
 -15891189.44444 -12382739.73544  21314693.7384   21314693.4234
 -18218234.51744 -14196021.26044  20465314.7764   20465313.7964
    -56956.92244                  25095468.7964
  21226567.06144  16540178.67644  25298811.9524
  -2594538.40444  -2021716.07844  24902226.8244
 -24657711.90644 -19213794.45944  20513310.4314   20513309.9824
 96  2 29  3 56  0.0000000  0  8G24G 6G16G 5G25G 9G17G20
  -2146900.82944  -1672904.02644  21899781.2204   21899781.0824
 -13292311.48444 -10357640.06844  22360027.4004   22360026.1104
 -15930783.43844 -12413592.18844  21307159.4474   21307158.9664
 -18181708.22644 -14167559.22244  20472265.7364   20472264.6274
    -84697.53444                  25090192.4894
  21311907.82644  16606677.91744  25315051.2164
  -2688845.54744                  24884281.6804
 -24679947.98544 -19231121.28144  20509078.7784   20509078.3734
 96  2 29  3 56 30.0000000  0  8G24G 6G16G 5G25G 9G17G20
  -2076938.76944  -1618388.13744  21913094.7424   21913094.3804
 -13356207.83144 -10407429.42344  22347868.1944   22347867.5394
 -15969785.10144 -12443983.08244  21299737.6694   21299737.3774
 -18144643.73944 -14138677.81344  20479318.7594   20479317.6994
   -111895.61944                  25085025.1214
  21397099.59444  16673061.10544  25331263.0834   25331262.9024
  -2782959.55844  -2168537.58344  24866374.9684
 -24701563.84344 -19247964.81044  20504965.4844   20504965.1084
 96  2 29  3 57  0.0000000  0  7G24G 6G16G 5G 9G17G20
  -2006841.54644  -1563766.92044  21926433.7964   21926433.2604
 -13420023.44344 -10457155.86244  22335724.5364   22335723.5734
 -16008237.98444 -12473946.35744  21292420.0744   21292419.8014
 -18107082.58644 -14109409.39144  20486466.6894   20486465.7214
  21482100.74144  16739295.72844  25347438.2394
  -2876904.37944  -2241741.35344  24848499.0184
 -24722626.83844 -19264377.53744  20500957.4724   20500956.8414
 96  2 29  3 57 30.0000000  0  7G24G 6G16G 5G 9G17G20
  -1936645.01844  -1509068.33344  21939791.9804   21939791.5344
 -13483775.84244 -10506833.05344  22323592.4884   22323591.0544
 -16046179.90844 -12503511.48244  21285200.3044   21285200.1554
 -18069027.06144 -14079755.74844  20493708.2074   20493707.1814
  21566900.89144  16805373.78644  25363574.8264
  -2970716.61344  -2314841.80144  24830647.9434
 -24743164.36344 -19280380.80444  20497049.6894   20497049.1504
 96  2 29  3 58  0.0000000  0  8G24G 6G16G 5G25G 9G17G20
  -1866168.82144  -1454151.82044  21953203.0794   21953202.4094
 -13547274.96944 -10556312.88244  22311509.5714   22311508.4804
 -16083419.32144 -12532529.19544  21278113.5034   21278113.4154
 -18030288.56944 -14049569.92344  20501079.7934   20501078.8664
        -0.72454                  25070089.9184
  21651681.04144  16871436.25044  25379707.8724
  -3064227.79244  -2387707.64844  24812853.6394   24812851.8154
 -24762998.48544 -19295835.96744  20493275.0264   20493274.4674
 96  2 29  3 58 30.0000000  0  8G24G 6G16G 5G25G 9G17G20
  -1795612.24544  -1399172.67744  21966629.4994   21966628.9674
 -13610741.79344 -10605767.53844  22299432.0504   22299431.5594
 -16120184.05944 -12561177.03044  21271117.5174   21271117.3314
 -17991065.01344 -14019006.12144  20508543.8454   20508542.9404
    -25138.56444                  25065306.4764
  21736221.31144  16937311.78444  25395795.6774
  -3157650.86044  -2460504.83844  24795075.6194   24795071.4514
 -24782344.28044 -19310910.61644  20489593.5704   20489593.0404
 96  2 29  3 59  0.0000000  0  8G24G 6G16G 5G25G 9G17G20
  -1725115.89944  -1344240.46444  21980044.5554   21980043.9544
 -13674335.15444 -10655320.79444  22287330.7204   22287329.6534
 -16156618.00944 -12589567.10944  21264184.4524   21264184.0824
 -17951483.42644 -13988163.33844  20516076.1724   20516075.3324
    -49989.86544                  25060573.6174
  21820365.23244                  25411806.1844
  -3251145.00844  -2533357.37144  24777283.9114   24777282.2794
 -24801330.69444 -19325705.23044  20485980.5144   20485979.9044
 96  2 29  3 59 30.0000000  0  8G24G 6G16G 5G25G 9G17G20
  -1654499.66844  -1289214.83144  21993482.0754   21993481.5924
 -13737908.11844 -10704858.16144  22275233.1794   22275231.9614
 -16192554.06744 -12617569.22444  21257346.0484   21257345.9054
 -17911379.01344 -13956913.15444  20523707.7334   20523706.7874
    -74396.80044                  25055920.4134
  21904268.36544                  25427773.5254
  -3344565.49944  -2606152.54144  24759505.9884   24759508.2454
 -24819777.83344 -19340079.63244  20482470.1934   20482469.6144
 96  2 29  4  0  0.0000000  0  8G24G 6G16G 5G25G 9G17G20
  -1583702.48844  -1234048.19944  22006954.4864   22006954.0904
 -13801418.71444 -10754346.92644  22263147.8884   22263146.6014
 -16227946.06444 -12645147.39044  21250611.0554   21250610.9874
 -17870710.62744 -13925223.51344  20531446.6764   20531445.6334
    -98337.00844                  25051362.4604
  21987973.27644                  25443702.3134
  -3437845.69444  -2678838.36144  24741754.5974   24741758.0344
 -24837626.16444 -19353987.43144  20479073.7264   20479073.2294
 96  2 29  4  0 30.0000000  0  8G24G 6G16G 5G25G 9G17G20
  -1512704.77044  -1178725.29644  22020465.3974   22020464.0674
 -13864854.99944 -10803777.78744  22251076.2364   22251075.0674
 -16262768.88844 -12672282.05044  21243984.3964   21243984.3584
 -17829457.25444 -13893078.03644  20539296.7274   20539295.7214
   -121791.34544                  25046900.4334
  22071506.03944                  25459597.4844
  -3530943.27444  -2751381.91044  24724038.8264   24724041.9784
 -24854844.06544 -19367403.98544  20475797.1094   20475796.6994
 96  2 29  4  1  0.0000000  0  8G24G 6G16G 5G25G 9G17G20
  -1441529.19244  -1123263.79544  22034009.6484   22034008.7674
 -13928226.91844 -10853158.49044  22239017.1254   22239015.9304
 -16297007.55444 -12698961.52244  21237468.8144   21237469.0254
 -17787637.50644 -13860491.22544  20547254.9514   20547253.9294
   -144766.20444   -112803.41544  25042529.0814   25042520.8904
  22154855.95244                  25475459.1204
  -3623853.99244  -2823779.83244  24706356.7154   24706359.9784
 -24871444.30044 -19380339.23744  20472638.4134   20472637.9624
 96  2 29  4  1 30.0000000  0  8G24G 6G16G 5G25G 9G17G20
  -1370190.14644  -1067674.93144  22047584.5584   22047584.0534
 -13991533.26144 -10902488.09544  22226970.0444   22226968.9294
 -16330652.79044 -12725178.58144  21231066.4204   21231066.2194
 -17745263.89044 -13827472.83444  20555318.3364   20555317.5774
   -167252.26744   -130325.00144  25038248.9214   25038238.7444
  22238022.84844                  25491286.3094
  -3716566.25444  -2896023.07044  24688714.6354   24688718.2384
 -24887447.15044 -19392808.99544  20469593.1744   20469592.6584
 96  2 29  4  2  0.0000000  0  7G24G 6G16G 5G25G17G20
  -1298713.68244  -1011978.99244  22061185.9274   22061185.4234
 -14054775.38244 -10951767.65844  22214935.5284   22214935.0134
 -16363713.74944 -12750940.35944  21224775.1754   21224775.1064
 -17702348.88844 -13794032.58144  20563484.9824   20563484.0704
   -189241.38844   -147459.35744  25034063.7514   25034063.5324
  -3809072.89644  -2968106.16544  24671112.1894   24671113.1924
 -24902865.00744 -19404822.91244  20466659.1934   20466658.8064
 96  2 29  4  2 30.0000000  0  7G24G 6G16G 5G25G17G20
  -1227118.61344   -956190.62744  22074809.7984   22074809.3324
 -14117943.86644 -11000989.84344  22202915.0764   22202914.3304
 -16396184.53144 -12776242.26044  21218596.1874   21218595.8804
 -17658898.07944 -13760174.81844  20571753.1794   20571752.3414
   -210707.96044   -164186.55744  25029976.0864   25029973.6534
  -3901380.67044  -3040034.27044  24653544.9224   24653542.3654
 -24917723.71044 -19416401.12944  20463831.7634   20463831.2394
 96  2 29  4  3  0.0000000  0  8G24G 6G16G 5G25G 4G17G20
  -1155388.02144   -900296.65944  22088459.9634   22088459.7524
 -14181011.50644 -11050133.45944  22190913.2054   22190912.4804
 -16428065.68944 -12801084.71744  21212529.3944   21212529.2544
 -17614921.37044 -13725907.26144  20580121.6124   20580120.7214
   -231647.98844   -180503.50344  25025990.6754   25025990.3184
        -1.08654                  25333998.1274
  -3993503.21344  -3111818.03644  24636014.5764   24636017.1834
 -24932029.20844 -19427548.27544  20461109.6304   20461109.1624
 96  2 29  4  3 30.0000000  0  8G24G 6G16G 5G25G 4G17G20
  -1083532.34244   -844305.22244  22102133.7654   22102133.6124
 -14243994.07444 -11099210.77844  22178928.1654   22178927.2134
 -16459388.36844 -12825491.98944  21206569.2664   21206568.9934
 -17570436.48944 -13691243.72444  20588586.8954   20588586.1184
   -252076.28444   -196421.61244  25022102.4254   25022103.7644
     93958.59944                  25351877.5374
  -4085471.10844  -3183481.30744  24618514.9554   24618514.3384
 -24945788.25544 -19438269.61544  20458491.5784   20458490.9854
 96  2 29  4  4  0.0000000  0  7G24G 6G16G 5G25G17G20
  -1011550.59144   -788215.54744  22115831.3854   22115830.9584
 -14306896.65944 -11148225.77544  22166958.4874   22166957.4114
 -16490168.09844 -12849476.18944  21200711.7914   21200711.6414
 -17525462.80144 -13656199.30244  20597145.3514   20597144.7434
   -272009.22644   -211953.69744  25018310.1544
  -4177301.94044  -3255037.79144  24601040.9484   24601039.5864
 -24958997.07544 -19448562.20744  20455977.7174   20455977.2134
 96  2 29  4  4 30.0000000  0  7G24G 6G16G 5G25G17G20
   -939465.42744   -732045.29744  22129548.8174   22129548.3784
 -14369749.84744 -11197202.28044  22154998.0884   22154997.0354
 -16520431.26644 -12873057.87144  21194952.6644   21194952.9204
 -17480039.49644 -13620804.52844  20605788.8254   20605787.8164
   -291482.33744   -227127.57344  25014605.6264   25014606.7874
  -4269044.60244  -3326525.52644  24583582.7574   24583579.9594
 -24971688.20244 -19458451.40144  20453562.5564   20453562.0504
 96  2 29  4  5  0.0000000  0  7G24G 6G16G 5G25G17G20
   -867225.96344   -675754.80144  22143294.9924   22143294.7114
 -14432518.78344 -11246113.13144  22143053.1604   22143052.4054
 -16550142.02444 -12896209.10144  21189299.0514   21189298.7364
 -17434113.48444 -13585018.03544  20614528.5924   20614527.8264
   -310465.13744   -241919.45544  25010995.4224   25010990.8074
  -4360665.85644  -3397918.70844  24566149.3524   24566145.8864
 -24983796.08244 -19467886.11644  20451258.4574   20451258.0784
 96  2 29  4  5 30.0000000  0  7G24G 6G16G 5G25G17G20
   -794880.21644   -619381.48644  22157061.8934   22157061.8564
 -14495237.27744 -11294984.67744  22131118.3694   22131117.6054
 -16579333.03644 -12918955.34144  21183744.4504   21183744.3034
 -17387684.52544 -13548839.63444  20623363.6264   20623362.8104
   -328979.54144   -256346.31244  25007472.8434
  -4452182.87544  -3469230.66544  24548734.7814   24548731.1964
 -24995329.27044 -19476873.01544  20449063.9864   20449063.4744
 96  2 29  4  6  0.0000000  0  7G24G 6G16G 5G25G17G20
   -722431.69644   -562928.09944  22170848.4544   22170848.5874
 -14557893.00944 -11343807.31444  22119195.1934   22119193.8494
 -16607995.15344 -12941289.45044  21178290.0924   21178290.0344
 -17340754.50944 -13512270.80244  20632293.6454   20632292.8494
   -347026.18244                  25004040.6384
  -4543583.19544  -3540451.70144  24531341.0614   24531338.4174
 -25006282.82844 -19485408.25844  20446979.5924   20446979.0224
 96  2 29  4  6 30.0000000  0  7G24G 6G16G 5G25G17G20
   -649880.83344   -506394.96344  22184654.8024   22184654.5864
 -14620479.17544 -11392575.74044  22107285.3194   22107284.5524
 -16636115.94844 -12963201.74844  21172938.9884   21172938.9744
 -17293298.58444 -13475292.17044  20641324.4244   20641323.8184
   -364603.92144                  25000695.6884
  -4634847.73544  -3611566.87244  24513972.7674   24513970.6274
 -25016642.11244 -19493480.43244  20445008.0744   20445007.6844
 96  2 29  4  7  0.0000000  0  7G24G 6G16G 5G25G17G20
   -577229.09044   -449783.21444  22198479.9014   22198478.9984
 -14682989.07644 -11441284.74644  22095390.0024   22095388.7034
 -16663687.38444 -12984685.97444  21167692.1464   21167691.8264
 -17245306.85344 -13437896.02944  20650457.0154   20650456.1514
   -381711.16044                  24997443.5534
  -4725949.99344  -3682555.59644  24496635.9894   24496634.9454
 -25026396.16744 -19501080.99544  20443152.0214   20443151.7164
 96  2 29  4  7 30.0000000  0  7G24G 6G16G25G 5G17G20
   -504458.18344   -393078.61744  22212327.5824   22212327.1624
 -14745396.38544 -11489913.81344  22083514.1814   22083513.6654
 -16690667.87844 -13005709.72844  21162558.0234   21162557.6854
   -398319.65244                  24994276.2764
 -17196775.17944 -13400079.15044  20659692.2354   20659691.4144
  -4816851.29644  -3753387.75044  24479338.1554   24479338.5964
 -25035526.70144 -19508195.70244  20441414.6404   20441414.1434
 96  2 29  4  8  0.0000000  0  7G24G 6G25G17G 5G16G20
   -431531.77244   -336252.84644  22226205.3634   22226204.7674
 -14807687.18444 -11538452.09544  22071660.6424   22071660.1724
   -414409.86544                  24991213.5434
  -4907519.39744  -3824038.18944  24462083.2714   24462085.5134
 -17147705.26744 -13361842.86744  20669030.0544   20669029.3074
 -16717018.89644 -13026242.97944  21157543.5104   21157543.1144
 -25044030.02644 -19514821.67244  20439796.4314   20439795.8384
 96  2 29  4  8 30.0000000  0  7G24G 6G25G17G 5G16G20
   -358450.57844   -279306.45944  22240112.2074   22240111.5654
 -14869877.32744 -11586911.94144  22059826.5394   22059825.6754
   -429984.37644                  24988250.1734
  -4997960.60344  -3894511.82444  24444872.8674   24444877.0604
 -17098088.97644 -13323180.83244  20678471.6464   20678471.0264
 -16742738.91744 -13046284.54544  21152648.9194   21152648.4954
 -25051916.15244 -19520966.71044  20438295.7934   20438295.3254
 96  2 29  4  9  0.0000000  0  7G24G 6G25G17G 5G16G20
   -285206.96144   -222233.51044  22254050.0124   22254049.9554
 -14931961.74344 -11635289.40044  22048012.5834   22048011.3014
   -445031.48544                  24985385.4874
  -5088177.22344  -3964810.45644  24427704.6364   24427710.9044
 -17047927.73644 -13284094.16544  20688017.2214   20688016.6924
 -16767824.34544 -13065831.62344  21147875.5774   21147875.2814
 -25059184.89444 -19526630.66944  20436912.6354   20436912.0754
 96  2 29  4  9 30.0000000  0  7G24G 6G25G 5G17G16G20
   -211878.85744   -165094.72944  22268004.0394   22268002.9364
 -14994022.17344 -11683648.17044  22036202.8844   22036201.4514
   -459630.17344                  24982610.4264
 -16997295.79944 -13244640.71844  20697651.9884   20697651.2934
  -5178255.87444  -4035001.58444  24410564.3704   24410567.5484
 -16792354.25144 -13084945.82444  21143207.7974   21143207.5204
 -25065911.74444 -19531872.38044  20435632.7444   20435632.2494
 96  2 29  4 10  0.0000000  0  7G24G 6G25G 5G17G16G20
   -138461.47144   -107886.37444  22281974.7384   22281975.1494
 -15056053.79744 -11731984.48844  22024398.6064   22024397.3454
   -473773.83444                  24979920.3364
 -16946173.15244 -13204804.89944  20707380.4304   20707379.4614
  -5268200.42344  -4105088.21944  24393449.1334   24393450.7674
 -16816328.85344 -13103627.32344  21138645.5244   21138645.5114
 -25072084.28744 -19536682.16044  20434458.0904   20434457.5154
 96  2 29  4 10 30.0000000  0  7G24G 6G25G 5G17G16G20
    -64939.50044    -50596.53844  22295966.0214   22295964.9904
 -15118026.97744 -11780275.26944  22012605.1324   22012604.4754
   -487431.25844                  24977324.2324
 -16894530.80244 -13164564.11444  20717207.8024   20717206.8654
  -5358002.03244  -4175063.44444  24376359.7864   24376360.6654
 -16839732.42744 -13121863.87144  21134191.5864   21134191.3334
 -25077661.29544 -19541027.88844  20433396.5434   20433396.1694
 96  2 29  4 11  0.0000000  0  7G24G 6G25G 5G17G16G20
      8668.26744      6760.16744  22309972.4154   22309971.9234
 -15179944.41544 -11828522.61944  22000822.6384   22000821.8134
   -500614.98344                  24974815.3074
 -16842405.93944 -13123947.34544  20727126.6014   20727125.9744
  -5447670.73744  -4244935.12544  24359297.0664   24359299.7154
 -16862585.74044 -13139671.63944  21129842.8024   21129842.6694
 -25082658.19444 -19544921.58244  20432445.8874   20432445.3934
 96  2 29  4 11 30.0000000  0  7G24G 6G25G 5G17G16G20
     82368.71144     64189.08444  22323997.6434   22323996.8714
 -15241797.66144 -11876719.94244  21989053.0184   21989051.8554
   -513310.48244   -399981.09444  24972397.4614
 -16789797.77944 -13082953.98344  20737137.8404   20737137.0924
  -5537184.34244  -4314685.97044  24342263.5354   24342263.4124
 -16884881.18744 -13157044.70644  21125600.1944   21125600.0914
 -25087071.30544 -19548360.37544  20431606.0784   20431605.5174
 96  2 29  4 12  0.0000000  0  7G24G 6G25G 5G17G16G20
    156179.76744    121704.19444  22338043.3134   22338042.9814
 -15303560.63544 -11924846.92744  21977300.0254   21977298.5344
   -525498.37544   -409478.11644  24970075.8794   24970071.2544
 -16736704.06544 -13041582.26844  20747241.0244   20747240.4454
  -5626524.78144  -4384301.92044  24325262.1194   24325260.7284
 -16906607.23244 -13173974.08544  21121465.8334   21121465.5244
 -25090895.09344 -19551339.95744  20430878.2444   20430877.5774
 96  2 29  4 12 30.0000000  0  7G24G 6G25G17G 5G16G20
    230107.43644    179310.16744  22352111.3094   22352110.6904
 -15365208.06944 -11972883.88244  21965568.7094   21965567.3804
   -537182.84544   -418582.98344  24967852.2174
  -5715679.47644  -4453773.06544  24308296.5764   24308296.4424
 -16683130.45244 -12999836.60644  20757435.5174   20757435.0234
 -16927763.13444 -13190459.19044  21117440.0254   21117439.7054
 -25094126.87344 -19553858.23044  20430263.4834   20430263.0624
 96  2 29  4 13  0.0000000  0  7G24G 6G25G17G 5G16G20
    304148.78644    237004.72344  22366200.5744   22366199.4504
 -15426733.03144 -12020825.41044  21953860.5134   21953859.5634
   -548378.71844   -427307.03444  24965718.9674   24965711.6074
  -5804640.73644  -4523093.46244  24291369.3094   24291368.8904
 -16629080.94844 -12957720.12044  20767721.0104   20767720.1464
 -16948349.95444 -13206500.86244  21113522.7534   21113522.3664
 -25096775.16744 -19555921.84144  20429759.4174   20429758.7724
 96  2 29  4 13 30.0000000  0  7G24G 6G25G17G 5G16G20
    378301.53944    294786.08644  22380311.8264   22380310.9694
 -15488133.69744 -12068670.08244  21942176.0984   21942175.4674
   -559081.10844                  24963684.5234
  -5893409.85444  -4592264.21244  24274476.7734   24274475.9694
 -16574534.69244 -12915216.55344  20778100.7244   20778100.1404
 -16968362.64344 -13222095.15244  21109714.1764   21109714.1454
 -25098828.52044 -19557521.86044  20429368.9694   20429368.3194
 96  2 29  4 14  0.0000000  0  7G24G 6G25G17G 5G16G20
    452538.45644    352633.03344  22394438.5914   22394438.0524
 -15549425.33744 -12116429.79944  21930512.8314   21930511.4554
   -569321.20744   -443625.86644  24961734.5534
  -5982023.12444  -4661313.52144  24257613.3154   24257612.4254
 -16519505.81444 -12872336.92244  20788572.2524   20788571.6034
 -16987805.34244 -13237245.30144  21106014.5504   21106014.3874
 -25100295.78144 -19558665.18444  20429089.4554   20429088.8824
 96  2 29  4 14 30.0000000  0  7G24G25G17G 6G 5G16G20
    526860.85144    410546.59544  22408581.5674   22408580.8644
   -579087.57944                  24959872.7814
  -6070473.63344  -4730235.94344  24240782.0644   24240782.5364
 -15610611.23644 -12164107.11944  21918869.2164   21918868.5624
 -16463973.83344 -12829065.25844  20799139.6804   20799139.0504
 -17006654.37444 -13251932.85544  21102427.7354   21102427.5184
 -25101166.90644 -19559343.99144  20428923.7404   20428923.3034
 96  2 29  4 15  0.0000000  0  7G24G25G17G 6G 5G16G20
    601278.34244    468534.25244  22422742.1284   22422742.0494
   -588371.79144   -458470.55944  24958105.5204   24958107.4494
  -6158761.77644  -4799031.87244  24223982.0964   24223979.7994
 -15671722.80544 -12211726.51444  21907240.2474   21907239.1944
 -16407927.91044 -12785393.11744  20809805.1234   20809804.3404
 -17024903.48944 -13266152.93844  21098954.6374   21098954.4774
 -25101440.78444 -19559557.40844  20428871.6774   20428871.2494
 96  2 29  4 15 30.0000000  0  7G24G 6G25G17G 5G16G20
    675799.21944    526602.47044  22436923.0004   22436922.3074
 -15732765.92644 -12259292.57644  21895623.7054   21895622.7974
   -597156.87444   -465316.13844  24956431.1324   24956430.8624
  -6246884.56044  -4867698.91644  24207210.1054   24207214.7054
 -16351357.81644 -12741312.53644  20820570.1264   20820569.0734
 -17042540.50644 -13279896.06344  21095598.6814   21095598.5664
 -25101110.29644 -19559299.88844  20428934.7904   20428934.3354
 96  2 29  4 16  0.0000000  0  7G24G25G17G 6G 5G16G20
    750428.23444    584754.94444  22451124.6774   22451124.3314
   -605447.35644   -471776.24944  24954853.7304
  -6334840.98544  -4936236.34244  24190472.6614   24190474.3044
 -15793742.89444 -12306807.08744  21884020.6204   21884019.4854
 -16294264.59344 -12696824.31844  20831434.6374   20831433.8124
 -17059555.67044 -13293154.62844  21092360.8274   21092360.4514
 -25100172.24544 -19558568.94444  20429113.2174   20429112.6064
 96  2 29  4 16 30.0000000  0  7G24G25G17G 6G 5G16G20
    825160.23244    642987.66044  22465345.9534   22465345.0574
   -612963.58344                  24953373.2424
  -6422632.32744  -5004645.16844  24173767.2284   24173768.1604
 -15854662.63044 -12354277.00644  21872428.2014   21872427.0134
 -16236658.63344 -12651936.56944  20842396.5784   20842395.9624
 -17075970.10444 -13305945.08744  21089237.2424   21089236.9164
 -25098634.88444 -19557371.00544  20429405.6394   20429405.1604
 96  2 29  4 17  0.0000000  0  7G24G25G17G 6G 5G16G20
    899965.49844    701277.47644  22479580.4804   22479580.1054
   -619579.79744                  24951975.1554
  -6510281.96744  -5072943.55444  24157088.8154   24157088.4504
 -15915541.19444 -12401714.84644  21860843.5064   21860842.2604
 -16178576.96044 -12606678.13544  20853448.8094   20853448.2274
 -17091824.95144 -13318299.50644  21086220.1794   21086219.9144
 -25096513.32444 -19555717.85344  20429809.3554   20429808.8634
 96  2 29  4 17 30.0000000  0  6G24G17G 6G16G 5G20
    974823.36944    759608.27444  22493825.6204   22493825.1824
  -6597772.94844  -5141118.32644  24140438.7714   24140438.8264
 -15976347.29244 -12449096.21444  21849272.3854   21849271.4524
 -17107105.07544 -13330206.09044  21083312.7584   21083312.3504
 -16120028.55344 -12561056.01044  20864590.2274   20864589.7804
 -25093812.17744 -19553613.07144  20430323.6584   20430323.0564
 96  2 29  4 18  0.0000000  0  7G24G25G17G 6G16G 5G20
   1049774.60944    818011.84444  22508088.7974   22508088.7204
        -0.83954         0.46054  24949425.3974   24949423.7854
  -6685049.96544  -5209126.35444  24123831.2334   24123831.6574
 -16037021.64844 -12496374.92044  21837726.4494   21837725.6654
 -17121765.93744 -13341630.13344  21080522.4174   21080522.1274
 -16060968.23744 -12515034.99844  20875829.1934   20875828.5614
 -25090488.03444 -19551022.83744  20430955.9364   20430955.3884
 96  2 29  4 18 30.0000000  0  7G24G25G17G 6G 5G16G20
   1124824.13444    876491.99144  22522370.3134   22522369.6904
     -5989.85944     -4666.31844  24948286.3464   24948286.6224
  -6772106.40744  -5276962.53444  24107266.0224   24107265.3544
 -16097556.47544 -12543544.90544  21826206.7224   21826206.1064
 -16001414.85944 -12468629.77644  20887162.0274   20887161.0624
 -17135813.71544 -13352576.45344  21077849.4954   21077849.1324
 -25086544.01344 -19547949.58344  20431706.3994   20431705.9134
 96  2 29  4 19  0.0000000  0  7G24G25G17G 6G 5G16G20
   1199939.10644    935023.13644  22536664.0044   22536663.3294
    -11530.33144     -8983.55444  24947231.4464   24947228.0204
  -6858964.81144  -5344644.36344  24090736.9474   24090736.1994
 -16157984.85844 -12590631.94944  21814707.5374   21814706.7244
 -15941414.80444 -12421876.49344  20898579.8934   20898579.0374
 -17149283.55244 -13363072.43144  21075286.4374   21075286.4284
 -25082022.72544 -19544426.51144  20432566.7184   20432566.2754
 96  2 29  4 19 30.0000000  0  7G24G25G17G 6G 5G16G20
   1275141.11344    993622.10144  22550974.4074   22550974.0244
    -16585.53044    -12922.75244  24946268.8794   24946266.7004
  -6945606.77344  -5412157.53044  24074248.3854   24074248.8914
 -16218281.85044 -12637616.61044  21803233.3714   21803232.5454
 -15880953.83544 -12374764.05844  20910084.9154   20910084.3034
 -17162156.51644 -13373103.31144  21072836.5674   21072836.3244
 -25076909.39844 -19540442.11044  20433540.0054   20433539.4154
 96  2 29  4 20  0.0000000  0  7G24G25G17G 6G16G 5G20
   1350444.42244   1052300.01244  22565303.8814   22565303.4674
    -21133.68344    -16466.73944  24945404.4444   24945401.2764
  -7032049.49744  -5479515.48744  24057798.9574   24057796.1064
 -16278444.93544 -12684496.93644  21791784.8924   21791783.6554
 -17174444.92344 -13382678.69544  21070498.2884   21070497.9744
 -15820019.54244 -12327282.80144  20921680.6314   20921679.9884
 -25071183.77144 -19535980.59144  20434629.4234   20434628.9204
 96  2 29  4 20 30.0000000  0  7G24G25G17G 6G16G 5G20
   1425844.52444   1111053.34544  22579651.4614   22579651.0804
    -25167.29044    -19609.79644  24944634.9454   24944632.9544
  -7118305.62844  -5546728.06144  24041385.7564   24041385.4474
 -16338485.44444 -12731281.74544  21780359.5464   21780358.1954
 -17186161.58144 -13391808.54944  21068268.8664   21068268.3774
 -15758622.05144 -12279440.61244  20933363.8724   20933363.0774
 -25064848.98744 -19531044.40244  20435834.7464   20435834.4474
 96  2 29  4 21  0.0000000  0  7G24G25G17G 6G 5G16G20
   1501320.65944   1169865.91244  22594014.3634   22594014.0254
    -28697.74044    -22360.77744  24943963.6074
  -7204385.39044  -5613803.15244  24025005.7634   24025006.8224
 -16398420.97544 -12777984.75444  21768954.4364   21768953.0254
 -15696749.95144 -12231228.59644  20945137.8174   20945137.1964
 -17197309.17644 -13400494.98144  21066147.2434   21066146.8034
 -25057922.77044 -19525647.35944  20437152.7284   20437152.2934
 96  2 29  4 21 30.0000000  0  7G24G25G17G 6G16G 5G20
   1576863.86944   1228730.75644  22608389.9684   22608389.5554
    -31732.78744    -24725.77844  24943385.5614   24943383.6494
  -7290305.72844  -5680754.05144  24008655.6644   24008655.0444
 -16458258.13144 -12824611.10844  21757567.7134   21757566.3984
 -17207870.98344 -13408724.95144  21064137.4704   21064136.9154
 -15634383.31744 -12182631.22744  20957005.5784   20957004.9864
 -25050403.91044 -19519788.51244  20438583.7284   20438583.2774
 96  2 29  4 22  0.0000000  0  7G24G25G17G 6G16G 5G20
   1652468.03644   1287643.09444  22622777.2674   22622776.9654
    -34291.34944    -26719.52144  24942898.6834   24942899.0654
  -7376075.21744  -5747587.38444  23992333.6994   23992334.2554
 -16518018.90444 -12871177.93644  21746195.2874   21746194.3614
 -17217836.17244 -13416490.02844  21062241.2564   21062240.6564
 -15571513.86744 -12133642.05444  20968969.4754   20968968.7134
 -25042300.44444 -19513474.13344  20440125.6524   20440125.1044
 96  2 29  4 22 30.0000000  0  7G 5G24G25G17G 6G16G20
 -15508135.22944 -12084256.11144  20981029.7894   20981029.3864
   1728165.15144   1346627.86644  22637181.9114   22637181.3894
    -36359.71944    -28331.26744  24942503.7614
  -7461649.98744  -5814269.02044  23976048.6874   23976049.0614
 -16577691.32744 -12917675.92844  21734840.2344   21734839.4694
 -17227167.16444 -13423760.92644  21060465.3984   21060464.9664
 -25033594.69744 -19506690.44344  20441782.2794   20441781.7424
 96  2 29  4 23  0.0000000  0  7G 5G24G25G17G 6G16G20
 -15444265.74644 -12034487.69244  20993184.0894   20993183.4464
   1803930.75144   1405666.00544  22651600.2594   22651599.3104
    -37957.19844    -29576.05344  24942198.3734
  -7547035.70744  -5880803.30544  23959800.3824   23959799.4824
 -16637285.80744 -12964113.18744  21723499.7224   21723498.6614
 -17235874.59944 -13430545.93544  21058808.5994   21058808.1304
 -25024302.29544 -19499449.62044  20443550.7394   20443550.2374
 96  2 29  4 23 30.0000000  0  7G 5G24G25G17G 6G16G20
 -15379931.94444 -11984357.46644  21005426.3374   21005425.7394
   1879746.54344   1464743.24444  22666027.5684   22666026.4164
    -39091.68844    -30460.09544  24941982.3284   24941980.6964
  -7632257.42044  -5947209.81944  23943583.7814   23943584.7654
 -16696796.37244 -13010485.04344  21712175.3494   21712174.3174
 -17243986.67244 -13436867.02744  21057264.7744   21057264.3384
 -25014435.92744 -19491761.54944  20445428.4344   20445427.9424
 96  2 29  4 24  0.0000000  0  7G 5G24G25G17G 6G16G20
 -15315145.00044 -11933874.14744  21017754.9294   21017754.2794
   1955640.03144   1523881.02444  22680469.1504   22680468.3074
    -39747.92744    -30971.39044  24941858.1854   24941858.4584
  -7717278.17044  -6013459.76244  23927404.2314   23927405.8444
 -16756194.84344 -13056769.55544  21700872.4424   21700871.6854
 -17251502.88244 -13442723.81044  21055834.5114   21055834.0684
 -25003981.68144 -19483615.38944  20447417.6214   20447417.1384
 96  2 29  4 24 30.0000000  0  7G 5G24G25G17G 6G16G20
 -15249929.13344 -11883056.60344  21030165.1394   21030164.2774
   2031602.19944   1583072.31644  22694923.6444   22694923.1484
    -39928.68744    -31112.44044  24941824.1544
  -7802099.03544  -6079553.91944  23911263.3914   23911264.8314
 -16815467.65544 -13102956.15944  21689592.7834   21689591.4574
 -17258438.59844 -13448128.25944  21054514.4724   21054514.3304
 -24992949.89644 -19475019.19844  20449516.8454   20449516.4644
 96  2 29  4 25  0.0000000  0  7G 5G24G25G17G 6G16G20
 -15184268.96344 -11831892.84244  21042659.8594   21042658.8824
   2107630.18644   1642314.91144  22709391.2564   22709390.8944
    -39640.65644                  24941877.6614
  -7886729.37844  -6145499.61744  23895157.8834   23895159.6754
 -16874604.98944 -13149037.19944  21678339.6614   21678338.5254
 -17264796.15644 -13453082.19644  21053304.6414   21053304.3604
 -24981342.20744 -19465974.25444  20451725.7624   20451725.2934
 96  2 29  4 25 30.0000000  0  7G 5G24G25G17G 6G16G20
 -15118169.38744 -11780386.69344  21055237.9864   21055237.4424
   2183746.02644   1701625.95044  22723876.5674   22723875.4164
    -38899.24844    -30310.27044  24942019.8174   24942017.9304
  -7971170.98244  -6211298.25244  23879089.8624   23879091.3734
 -16933614.03544 -13195018.27344  21667110.0274   21667109.3084
 -17270565.51444 -13457577.79544  21052207.2134   21052206.9704
 -24969147.09644 -19456471.57644  20454046.3394   20454045.6874
 96  2 29  4 26  0.0000000  0  7G 5G24G25G17G 6G16G20
 -15051668.10744 -11728567.52644  21067892.6844   21067892.0324
   2259925.62144   1760986.67944  22738372.8174   22738371.8414
    -37742.50144    -29408.91744  24942236.9704   24942236.4644
  -8055440.73644  -6276962.95444  23863053.0844   23863054.8974
 -16992548.11444 -13240940.92444  21655895.4844   21655894.8514
 -17275758.09444 -13461623.95844  21051218.5404   21051218.1924
 -24956380.23744 -19446523.37844  20456476.0044   20456475.3834
 96  2 29  4 26 30.0000000  0  7G 5G24G25G17G 6G16G20
 -14984754.22944 -11676426.86044  21080625.7994   21080625.3364
   2336152.70844   1820384.40344  22752878.0484   22752877.4004
    -36164.11744                  24942538.0464
  -8139555.82844  -6342507.16744  23847047.3494   23847047.8074
 -17051410.35344 -13286807.60244  21644694.5504   21644693.7084
 -17280371.07044 -13465218.48044  21050341.1274   21050340.7654
 -24943028.09044 -19436119.11644  20459016.6374   20459016.0944
 96  2 29  4 27  0.0000000  0  7G 5G24G25G17G 6G16G20
 -14917399.05044 -11623942.31744  21093443.6144   21093443.2314
   2412436.75344   1879826.51244  22767394.4474   22767394.3944
    -34138.45244    -26600.56244  24942926.1604
  -8223490.58244  -6407910.85344  23831075.4184   23831076.3144
 -17110183.08744 -13332604.53744  21633510.3294   21633509.0814
 -17284388.42644 -13468348.88844  21049576.5724   21049576.2964
 -24929061.50644 -19425236.07044  20461674.5834   20461673.9904
 96  2 29  4 27 30.0000000  0  7G 5G24G25G17G 6G16G20
 -14849615.14544 -11571123.71244  21106342.2104   21106341.8144
   2488759.19744   1939298.54444  22781918.3824   22781917.6194
    -31650.34744    -24661.81244  24943399.1024
  -8307245.30144  -6473174.22344  23815137.9244   23815138.4534
 -17168862.69444 -13378328.89544  21622343.7404   21622342.8714
 -17287807.96544 -13471013.45844  21048925.9674   21048925.5414
 -24914482.99844 -19413876.20144  20464448.7354   20464448.3034
 96  2 29  4 28  0.0000000  0  7G 5G24G25G17G 6G16G20
 -14781384.61044 -11517957.07544  21119326.1794   21119325.4114
   2565100.25444   1998785.06544  22796445.4884   22796445.4204
    -28676.38544    -22344.47744  24943964.2934   24943967.4434
  -8390819.50144  -6538296.98244  23799234.4874   23799234.9484
 -17227428.54644 -13423964.61944  21611199.3344   21611198.0664
 -17290631.78844 -13473213.83444  21048388.3644   21048388.0204
 -24899302.74744 -19402047.44644  20467337.2924   20467336.8824
 96  2 29  4 28 30.0000000  0  7G 5G24G25G17G 6G16G20
 -14712678.95044 -11464420.21144  21132400.6804   21132399.6684
   2641471.17644   2058294.87744  22810978.0914   22810978.2734
    -25208.70644    -19642.44344  24944626.2794
  -8474199.83244  -6603268.63844  23783367.6244   23783368.0914
 -17285851.76344 -13469489.20544  21600081.8284   21600080.7834
 -17292862.80544 -13474952.28344  21047963.8704   21047963.4694
 -24883523.05244 -19389751.58644  20470340.0714   20470339.4994
 96  2 29  4 29  0.0000000  0  7G 5G24G25G17G 6G16G20
 -14643478.92744 -11410498.12544  21145569.1254   21145568.2304
   2717903.50344   2117852.53044  22825522.9064   22825522.5534
    -21239.97944    -16549.98944  24945381.7704
  -8557361.37744  -6668069.79744  23767542.5354   23767542.1904
 -17344108.76244 -13514884.26544  21588995.9064   21588994.8784
 -17294484.24344 -13476215.73644  21047654.8394   21047654.7554
 -24867138.14644 -19376984.13744  20473458.0554   20473457.7054
 96  2 29  4 29 30.0000000  0  7G 5G24G25G17G 6G16G20
 -14573804.24444 -11356206.17644  21158827.5244   21158826.4294
   2794390.57644   2177452.84744  22840077.9104   22840077.6094
    -16802.86944                  24946225.8414
  -8640322.22944  -6732714.60644  23751755.0734   23751755.3184
 -17402221.03644 -13560166.54544  21577937.3914   21577936.1374
 -17295504.49744 -13477010.73644  21047461.2174   21047460.9254
 -24850172.34144 -19363764.03944  20476686.6884   20476686.0734
 96  2 29  4 30  0.0000000  0  7G 5G24G25G17G 6G16G20
 -14503645.69844 -11301537.19144  21172178.0594   21172177.4634
   2870952.09044   2237111.15544  22854646.8024   22854645.9934
    -11910.12744     -9279.97144  24947156.6114   24947153.8134
  -8723066.44644  -6797190.59544  23736009.4334   23736008.9694
 -17460181.21944 -13605330.32344  21566907.8844   21566906.7324
 -17295918.37744 -13477333.23944  21047382.2434   21047381.9954
 -24832609.61444 -19350078.80444  20480028.6194   20480028.3194
 96  2 29  4 30 30.0000000  0  7G 5G24G25G17G 6G16G20
 -14433033.10544 -11246514.40244  21185614.9924   21185614.4554
   2947594.40944   2296832.44344  22869231.5204   22869230.2624
     -6572.31144                  24948171.9004
  -8805594.47744  -6861498.09744  23720303.4744   23720305.1094
 -17518009.38744 -13650391.22844  21555903.4464   21555902.6974
 -17295716.03544 -13477175.56344  21047420.8374   21047420.2674
 -24814448.10044 -19335926.98444  20483484.7234   20483484.2144
 96  2 29  4 31  0.0000000  0  7G 5G24G25G17G 6G16G20
 -14361993.89944 -11191159.19144  21199133.4294   21199132.9204
   3024303.24244   2356605.56844  22883828.8514   22883827.8924
      -795.60444                  24949274.0754
  -8887910.78644  -6925640.66144  23704640.2484   23704641.2154
 -17575726.37744 -13695365.50144  21544920.2544   21544919.6234
 -17294890.16144 -13476532.02444  21047578.1804   21047577.6324
 -24795692.49744 -19321312.23244  20487053.9024   20487053.6984
 96  2 29  4 31 30.0000000  0  7G 5G24G25G17G 6G16G20
 -14290556.61044 -11135493.78944  21212727.5134   21212726.8774
   3101056.49244   2416413.28844  22898434.5044   22898434.8664
      5411.53044      4217.34744  24950454.5534
  -8970027.06344  -6989627.31944  23689014.5214   23689015.3424
 -17633346.83044 -13740264.55644  21533955.7544   21533954.2874
 -17293447.51444 -13475407.88244  21047852.5934   21047852.0394
 -24776352.30244 -19306241.95944  20490733.9864   20490733.6034
 96  2 29  4 32  0.0000000  0  7G 5G24G25G17G 6G16G20
 -14218728.38244 -11079523.74944  21226396.3254   21226395.4604
   3177855.58844   2476256.72044  22913048.7904   22913048.4824
     12058.24644                  24951717.2344
  -9051950.57744  -7053463.78044  23673425.0314   23673426.6134
 -17690872.69444 -13785089.90344  21523008.6234   21523007.3624
 -17291401.42944 -13473813.52644  21048241.7994   21048241.3254
 -24756422.42744 -19290712.19444  20494526.6744   20494526.3144
 96  2 29  4 32 30.0000000  0  7G 5G24G25G17G 6G16G20
 -14146496.32644 -11023239.04344  21240141.8914   21240141.0154
   3254701.16844   2536136.40044  22927672.2574   22927670.8624
     19160.99944                  24953069.0984
  -9133683.42444  -7117151.65644  23657870.3414   23657872.5114
 -17748299.32944 -13829837.93544  21512081.0064   21512079.8784
 -17288755.68644 -13471751.90544  21048745.6164   21048745.3224
 -24735908.82144 -19274727.57344  20498430.2224   20498429.9214
 96  2 29  4 33  0.0000000  0  7G 5G24G25G17G 6G16G20
 -14073840.78144 -10966624.33944  21253967.4494   21253966.8614
   3331587.02044   2596047.45244  22942302.8174   22942301.7654
     26718.94944     20821.34544  24954510.4714   24954511.0364
  -9215224.86144  -7180690.40744  23642353.8674   23642355.0074
 -17805602.58544 -13874489.82444  21501176.3414   21501175.1294
 -17285530.79744 -13469239.00344  21049358.8044   21049358.7554
 -24714803.87544 -19258282.16944  20502446.5174   20502446.0304
 96  2 29  4 33 30.0000000  0  7G 5G24G25G17G 6G16G20
 -14000754.33644 -10909673.86944  21267875.1014   21267874.7504
   3408511.83044   2655988.86144  22956940.5734   22956940.2554
     34739.75244     27071.33344  24956036.6574
  -9296584.17044  -7244087.24244  23626872.3114   23626873.1684
 -17862768.21944 -13919034.47344  21490297.8524   21490297.1324
 -17281738.09544 -13466283.64544  21050080.9754   21050080.5684
 -24693102.19644 -19241371.78044  20506576.1844   20506575.7654
 96  2 29  4 34  0.0000000  0  7G 5G24G25G17G 6G16G20
 -13927210.84944 -10852367.26844  21281870.1904   21281869.6704
   3485480.03944   2715964.07644  22971587.8014   22971588.2204
     43229.24344     33686.49244  24957652.2404
  -9377759.19444  -7307340.49744  23611424.8494   23611425.6104
 -17919798.03444 -13963473.28244  21479446.0964   21479444.9734
 -17277380.31844 -13462887.97644  21050909.7814   21050909.4574
 -24670796.84844 -19223991.00044  20510820.6084   20510820.0264
 96  2 29  4 34 30.0000000  0  7G 5G24G25G17G 6G16G20
 -13853242.80144 -10794729.83844  21295945.8244   21295945.3144
   3562448.90944   2775939.79044  22986235.1114   22986234.0484
     52150.60544     40638.22544  24959349.0324   24959349.9174
  -9458778.36444  -7370472.24144  23596006.4844   23596008.9964
 -17976712.02744 -14007821.84844  21468615.5354   21468614.4734
 -17272464.83044 -13459057.72044  21051845.4294   21051845.0164
 -24647924.92044 -19206168.72644  20515173.1274   20515172.7864
 96  2 29  4 35  0.0000000  0  7G 5G24G25G17G 6G16G20
 -13778827.36644 -10736743.79644  21310106.5634   21310106.1984
   3639447.98444   2835939.06844  23000887.1764   23000885.6434
     61529.49144     47946.47944  24961133.9754
  -9539602.31444  -7433451.90244  23580626.2394   23580626.0304
 -18033470.05944 -14052048.88544  21457814.5054   21457813.6334
 -17266945.95944 -13454757.29944  21052895.5014   21052895.0814
 -24624453.81544 -19187879.56744  20519639.4974   20519639.0624
 96  2 29  4 35 30.0000000  0  7G 5G24G25G17G 6G16G20
 -13703955.84144 -10678402.35544  21324354.3054   21324353.8214
   3716498.97144   2895978.78444  23015548.9984   23015548.7984
     71391.03444     55630.78144  24963009.2564   24963005.2064
  -9620205.24844  -7496259.38944  23565289.3134   23565288.8274
 -18090062.31244 -14096146.74244  21447045.5314   21447044.3794
 -17260796.02644 -13449965.13844  21054065.7964   21054065.4744
 -24600381.49944 -19169121.92544  20524220.2324   20524219.8954
 96  2 29  4 36  0.0000000  0  7G 5G24G25G17G 6G16G20
 -13628645.33144 -10619718.86244  21338684.9274   21338684.3894
   3793587.74644   2956047.95444  23030219.4184   23030218.9594
     81710.33144     63671.74844  24964971.5104
  -9700588.48744  -7558895.64244  23549992.8524   23549992.7664
 -18146502.44444 -14140126.06944  21436304.9424   21436304.3334
 -17254019.32244 -13444684.58444  21055355.4664   21055355.0554
 -24575738.97844 -19149919.96544  20528909.5724   20528909.1144
 96  2 29  4 36 30.0000000  0  7G 5G24G25G17G 6G16G20
 -13552914.83444 -10560708.10044  21353096.0814   21353095.6684
   3870721.27244   3016151.98844  23044896.9624   23044895.8954
     92492.12444     72073.07244  24967024.6244   24967020.3694
  -9780727.75544  -7621341.79444  23534742.4524   23534743.5004
 -18202763.50944 -14183965.85844  21425598.8484   21425597.7764
 -17246606.05844 -13438908.00944  21056766.1314   21056765.7324
 -24550520.55944 -19130269.25344  20533708.4284   20533707.9904
 96  2 29  4 37  0.0000000  0  7G 5G24G25G17G 6G16G20
 -13476797.39644 -10501395.82544  21367581.0474   21367580.4694
   3947874.30144   3076271.22844  23059578.6814   23059577.3814
    103714.05344     80817.48644  24969160.2124   24969158.3204
  -9860646.54244  -7683616.13444  23519534.7144   23519535.0584
 -18258885.14644 -14227697.00244  21414919.7784   21414918.6724
 -17238612.69244 -13432679.40844  21058287.4584   21058286.9654
 -24524739.56844 -19110180.17644  20538614.2984   20538613.9164
 96  2 29  4 37 30.0000000  0  7G 5G24G25G17G 6G16G20
 -13400296.48544 -10441784.73344  21382138.6524   21382138.2414
   4025057.96844   3136414.34444  23074266.1824   23074265.4384
    115378.75844     89906.75344  24971378.3434   24971379.2854
  -9940342.37044  -7745716.75244  23504369.8654   23504367.9524
 -18314871.02644 -14271322.35544  21404266.0424   21404264.8484
 -17230039.03244 -13425998.63144  21059918.9714   21059918.5814
 -24498385.17544 -19089644.29844  20543629.7604   20543629.3414
 96  2 29  4 38  0.0000000  0  7G 5G24G25G17G 6G16G20
 -13323409.88444 -10381873.11244  21396769.7794   21396769.4074
   4102270.31644   3196579.92944  23088959.1604   23088959.5424
    127476.66944     99333.68044  24973679.5054   24973679.7734
 -10019827.59844  -7807653.27544  23489243.9844   23489241.3504
 -18370714.77544 -14314836.96244  21393638.8774   21393637.8954
 -17220876.18144 -13418858.74444  21061662.3074   21061662.0324
 -24471434.08744 -19068643.46244  20548758.3164   20548757.8704
 96  2 29  4 38 30.0000000  0  7G 5G24G25G17G 6G16G20
 -13246150.54344 -10321671.03344  21411471.6124   21411471.2264
   4179503.90444   3256761.72044  23103656.0964   23103655.0434
    139998.29344    109090.72044  24976062.5484   24976063.9894
 -10099126.90644  -7869444.96144  23474153.2184   23474152.5844
 -18426427.78744 -14358249.69344  21383037.3354   21383036.2244
 -17211138.80244 -13411271.16844  21063515.4394   21063515.0484
 -24443879.51044 -19047172.37944  20554001.5404   20554001.0724
 96  2 29  4 39  0.0000000  0  7G 5G24G25G17G 6G16G20
 -13168487.04044 -10261154.02744  21426250.3674   21426249.6464
   4256768.93344   3316968.28944  23118359.9094   23118359.3224
    152948.83244                  24978526.5174
 -10178258.91444  -7931106.22944  23459095.1984   23459095.6674
 -18482011.42044 -14401561.62344  21372459.7854   21372458.8484
 -17200817.64644 -13403228.70744  21065479.0004   21065478.9794
 -24415720.78944 -19025230.52744  20559359.9774   20559359.7284
 96  2 29  4 39 30.0000000  0  7G 5G24G25G17G 6G16G20
 -13090411.06844 -10200315.60844  21441108.0934   21441107.3014
   4334073.96844   3377205.98044  23133069.9954   23133069.6754
    166325.14844                  24981072.1324
 -10257233.26544  -7992644.66644  23444066.6894   23444067.6544
 -18537457.98244 -14444766.73544  21361908.8144   21361907.8364
 -17189893.89544 -13394716.68744  21067558.1094   21067557.8764
 -24386977.36944 -19002833.07244  20564829.8404   20564829.4674
 96  2 29  4 40  0.0000000  0  7G 5G24G25G17G 6G16G20
 -13011902.75544 -10139140.30944  21456047.7914   21456046.9624
   4411425.99744   3437480.27444  23147789.2744   23147789.1124
    180146.09244    140373.02544  24983701.9144
 -10336038.61644  -8054051.42244  23429070.2154   23429070.8314
 -18592752.59044 -14487853.43844  21351386.9464   21351385.7764
 -17178362.88244 -13385731.47844  21069752.4244   21069751.9954
 -24357636.14044 -18979969.78544  20570413.2314   20570412.8094
 96  2 29  4 40 30.0000000  0  7G 5G24G25G17G 6G16G20
 -12932964.89844 -10077630.30244  21471069.0754   21471068.1404
   4488844.47844   3497806.35844  23162521.8934   23162520.6654
    194420.48044                  24986420.3614
 -10414653.80644  -8115309.98144  23414109.2354   23414110.2704
 -18647894.71344 -14530821.32144  21340893.7164   21340892.1554
 -17166227.20644 -13376275.10444  21072061.5884   21072061.4554
 -24327701.07744 -18956643.77344  20576109.7384   20576109.3594
 96  2 29  4 41  0.0000000  0  7G 5G24G25G17G 6G16G20
 -12853602.93044 -10015789.81644  21486170.9704   21486170.5894
   4566336.31844   3558189.60244  23177267.9064   23177267.8084
    209159.40944                  24989223.8914
 -10493061.23244  -8176406.68744  23399189.7004   23399189.9314
 -18702884.50944 -14573670.50744  21330429.2344   21330428.1564
 -17153483.77444 -13366345.15544  21074487.1384   21074486.6664
 -24297171.30744 -18932854.35644  20581919.1514   20581918.8024
 96  2 29  4 41 30.0000000  0  7G 5G24G25G17G 6G16G20
 -12773847.02544  -9953642.36244  21501347.9534   21501347.5424
   4643885.36744   3618617.41744  23192024.5894   23192024.9134
    224368.70444                  24992117.7274
 -10571228.36444  -8237316.13844  23384315.0374   23384315.3334
 -18757721.29144 -14616400.46444  21319994.2694   21319993.0654
 -17140133.65244 -13355942.46144  21077026.9594   21077026.8294
 -24266036.82244 -18908593.72144  20587843.9824   20587843.6694
 96  2 29  4 42  0.0000000  0  7G 5G24G25G17G 6G16G20
 -12693721.31044  -9891206.75844  21516595.5034   21516595.1094
   4721469.13144   3679072.28044  23206788.8894   23206789.5434
    240035.33744    187035.45944  24995100.0434
 -10649146.80244  -8298031.78144  23369487.0894   23369490.1244
 -18812413.36244 -14659017.66044  21309586.8004   21309585.7184
 -17126190.31444 -13345077.51544  21079680.5464   21079680.1154
 -24234304.07544 -18883866.91244  20593882.5134   20593882.1714
 96  2 29  4 42 30.0000000  0  7G 5G24G25G17G 6G16G20
 -12613241.58744  -9828495.30044  21531910.4804   21531909.8974
   4799068.67044   3739539.45644  23221555.6294   23221554.5864
    256135.68044                  24998162.9124
 -10726823.24844  -8358558.85344  23354705.2864   23354708.8494
 -18866971.07544 -14701530.15744  21299204.5594   21299203.6384
 -17111649.88744 -13333747.31144  21082447.3324   21082446.6144
 -24201994.38544 -18858690.53444  20600031.0174   20600030.6644
 96  2 29  4 43  0.0000000  0  7G 5G24G25G17G 6G16G20
 -12532414.31144  -9765513.02244  21547291.2264   21547290.8874
   4876655.27444   3799996.54744  23236319.7824   23236319.2804
    272650.36344                  25001306.4524
 -10804265.74344  -8418903.65144  23339970.0324   23339968.8654
 -18921395.09544 -14743938.48444  21288848.1404   21288846.8414
 -17096524.05544 -13321960.94244  21085325.5384   21085325.1054
 -24169130.91844 -18833082.64544  20606284.5474   20606284.1384
 96  2 29  4 43 30.0000000  0  7G 5G24G25G17G 6G16G20
 -12451233.69944  -9702255.42444  21562739.0854   21562738.7824
   4954216.75144   3860434.05144  23251079.2884   23251078.8684
    289554.81944    225621.51044  25004523.3584
 -10881486.15744  -8479075.42144  23325275.7404   23325275.0584
 -18975679.71444 -14786238.18744  21278517.9324   21278516.7734
 -17080815.74544 -13309720.70144  21088314.8854   21088314.6794
 -24135738.22544 -18807062.37644  20612638.9644   20612638.3644
 96  2 29  4 44  0.0000000  0  7G 5G24G25G17G 6G16G20
 -12369682.03644  -9638708.68644  21578258.3864   21578257.7694
   5031768.84144   3920864.23944  23265836.9004   23265837.2294
    306836.86944    239089.06244  25007811.9694
 -10958505.42944  -8539090.44244  23310619.4094   23310619.9614
 -19029814.37344 -14828421.03844  21268216.4744   21268215.5224
 -17064520.83344 -13297023.35944  21091415.4914   21091415.2014
 -24101819.22244 -18780631.99844  20619093.5084   20619092.9754
 96  2 29  4 44 30.0000000  0  7G 5G24G25G17G 6G16G20
 -12287751.02044  -9574866.35744  21593849.3414   21593848.6044
   5109323.63044   3981296.51144  23280595.2564   23280595.1494
    324504.64144    252857.20844  25011172.6764   25011170.6864
 -11035320.24344  -8598946.13844  23296001.5584   23296001.3004
 -19083782.07644 -14870473.78944  21257946.9994   21257946.1034
 -17047638.25444 -13283868.09344  21094628.6194   21094627.9714
 -24067365.72244 -18753785.12444  20625649.6664   20625649.4254
 96  2 29  4 45  0.0000000  0  7G 5G24G25G17G 6G16G20
 -12205455.24244  -9510739.78944  21609509.5614   21609508.7564
   5186873.59644   4041725.03744  23295352.7534   23295350.9664
    342549.22544    266921.44544  25014607.2984   25014606.8674
 -11111946.50044  -8658654.89644  23281418.8184   23281421.3144
 -19137588.90044 -14912401.18344  21247708.1624   21247706.6654
 -17030200.21544 -13270280.01144  21097946.6484   21097946.1804
 -24032390.59144 -18726531.78544  20632305.4614   20632304.9464
 96  2 29  4 45 30.0000000  0  7G 5G24G25G17G 6G16G20
 -12122833.45444  -9446359.19144  21625231.9634   21625231.4084
   5264381.06644   4102120.46444  23310101.9374   23310102.1544
    360938.76444    281256.87844  25018108.6884   25018108.3284
 -11188438.08144  -8718258.71644  23266863.8374   23266863.5234
 -19191275.33544 -14954234.77244  21237491.7004   21237490.4634
 -17012249.12444 -13256292.13644  21101362.7584   21101362.1994
 -23996920.94644 -18698893.11044  20639055.2354   20639054.7164
 96  2 29  4 46  0.0000000  0  7G 5G24G25G17G 6G16G20
 -12039843.97944  -9381692.07944  21641024.4944   21641023.9544
   5341908.14244   4162531.16444  23324854.5064   23324853.8354
    379740.14044    295919.89744  25021686.4264   25021686.0834
 -11264737.37844  -8777712.73444  23252345.4574   23252344.7334
 -19244785.62444 -14995931.10144  21227308.8764   21227307.8354
 -16993741.06344 -13241870.26544  21104884.5804   21104884.3244
 -23960884.05444 -18670812.42344  20645912.7574   20645912.3014
 96  2 29  4 46 30.0000000  0  7G 5G24G25G17G 6G16G20
 -11956452.28144  -9316711.55644  21656893.4054   21656892.7994
   5419493.84844   4222987.54244  23339619.0194   23339618.5844
    398994.97144    310945.90644  25025350.1974   25025349.6184
 -11340804.88644  -8836986.14044  23237869.8824   23237869.3564
 -19298082.34544 -15037461.00044  21217166.8434   21217166.1194
 -16974647.24544 -13226991.95844  21108518.3374   21108517.7294
 -23924249.32244 -18642265.89044  20652883.9614   20652883.5264
 96  2 29  4 47  0.0000000  0  7G 5G24G25G17G 6G16G20
 -11872657.79944  -9251417.16444  21672838.2384   21672837.7674
   5497133.44044   4283485.92244  23354392.6994   23354393.7794
    418690.15744    326296.45144  25029098.1534   25029097.7464
 -11416663.35044  -8896096.62244  23223434.5324   23223434.0424
 -19351181.76344 -15078837.16444  21207062.5834   21207061.2714
 -16954968.41644 -13211657.79744  21112262.8914   21112262.4104
 -23887020.08744 -18613256.10744  20659968.2994   20659968.3054
 96  2 29  4 47 30.0000000  0  7G 5G24G25G17G 6G16G20
 -11788485.89044  -9185828.66844  21688856.0374   21688855.4094
   5574816.78044   4344018.41444  23369175.8094   23369175.7064
    438813.48644    341957.17944  25032926.9594   25032926.6284
 -11492328.19944  -8955056.25244  23209035.9194   23209035.5704
 -19404101.93344 -15120073.65544  21196992.3044   21196990.9104
 -16934709.63044 -13195871.72244  21116117.8694   21116117.6694
 -23849202.09644 -18583787.55044  20667164.9584   20667164.7064
 96  2 29  4 48  0.0000000  0  7G 5G24G25G17G 6G16G20
 -11703953.14644  -9119959.01144  21704941.9634   21704941.5754
   5652530.42444   4404574.50944  23383964.0414   23383963.4444
    459356.45544    357957.32844  25036836.3234   25036835.9654
 -11567796.32344  -9013862.58144  23194674.3874   23194674.9674
 -19456855.59044 -15161180.39744  21186953.4084   21186951.9264
 -16913872.17044 -13179634.73444  21120083.2234   21120082.9514
 -23810806.19144 -18553868.67144  20674471.5404   20674471.1514
 96  2 29  4 48 30.0000000  0  7G 5G24G25G17G 6G16G20
 -11619069.23644  -9053815.71444  21721094.8344   21721094.1674
   5730249.62144   4465134.91844  23398753.6774   23398753.3054
    480303.20444    374274.80244  25040821.9594   25040821.5294
 -11643084.81944  -9072528.93344  23180347.1784   23180347.8484
 -19509463.92244 -15202173.90244  21176942.3664   21176940.8844
 -16892451.39644 -13162943.21844  21124159.2964   21124159.2524
 -23771849.73044 -18523512.99544  20681884.7704   20681884.4914
 96  2 29  4 49  0.0000000  0  7G 5G24G25G17G 6G16G20
 -11533830.93644  -8987396.27644  21737315.3694   21737314.9754
   5807967.72844   4525694.46044  23413542.6554   23413542.4974
    501662.48544                  25044887.8234
 -11718165.75144  -9131033.55944  23166059.3564   23166059.3474
 -19561922.20644 -15243050.48944  21166959.3684   21166958.6364
 -16870429.99644 -13145783.67644  21128349.9964   21128349.4314
 -23732320.15544 -18492710.74244  20689406.8954   20689406.4254
 96  2 29  4 49 30.0000000  0  7G 5G24G25G17G 6G16G20
 -11448270.07244  -8920725.48344  21753597.4174   21753596.8574
   5885647.25244   4586223.93144  23428324.4544   23428323.5944
    523414.47244                  25049027.0734
 -11793041.81844  -9189378.54644  23151811.3164   23151812.1454
 -19614242.03244 -15283819.18544  21157003.7134   21157002.4604
 -16847827.21644 -13128171.11744  21132651.1674   21132650.9084
 -23692245.48244 -18461483.74044  20697032.8924   20697032.4304
 96  2 29  4 50  0.0000000  0  7G 5G24G25G17G 6G16G20
 -11362373.26844  -8853792.92044  21769942.5644   21769942.2334
   5963270.95244   4646709.90744  23443095.5424   23443094.5854
    545557.63744                  25053241.9004
 -11867710.48444  -9247561.91144  23137602.0184   23137604.1824
 -19666414.84144 -15324473.32044  21147075.6294   21147074.5704
 -16824626.48244 -13110092.61344  21137066.2844   21137066.0054
 -23651639.20844 -18429842.49844  20704760.1294   20704759.6624
 96  2 29  4 50 30.0000000  0  7G 5G24G25G17G 6G16G20
 -11276102.37544  -8786568.85244  21786359.5584   21786359.2304
   6040872.70844   4707178.81044  23457863.6934   23457863.2674
    568111.32344                  25057534.4224
 -11942131.14144  -9305552.01744  23123440.7584   23123440.7444
 -19718390.89644 -15364974.13644  21137184.7664   21137184.1134
 -16800807.42744 -13091532.30644  21141598.4054   21141598.3724
 -23610478.42944 -18397769.17144  20712592.9784   20712592.4764
 96  2 29  4 51  0.0000000  0  7G 5G24G25G17G 6G16G20
 -11189461.04244  -8719056.13344  21802846.7964   21802846.0234
   6118466.12544   4767641.21944  23472629.2034   23472628.6544
    591082.87944    460596.20444  25061906.5464   25061906.7004
 -12016293.69744  -9363341.01944  23109327.8354   23109328.4394
 -19770159.46244 -15405313.27144  21127333.7484   21127332.6054
 -16776377.31844 -13072495.85044  21146247.4164   21146247.2324
 -23568763.03844 -18365263.68444  20720530.7494   20720530.3504
 96  2 29  4 51 30.0000000  0  7G 5G24G25G17G 6G16G20
 -11102457.41144  -8651261.09744  21819403.5514   21819403.0464
   6196058.03544   4828102.43444  23487394.3294   23487393.8854
    614459.14044                  25066355.0224
 -12090228.90644  -9420952.85044  23095258.4734   23095258.4624
 -19821719.61444 -15445490.00844  21117521.8204   21117520.7114
 -16751352.88344 -13052996.28444  21151009.5514   21151009.1074
 -23526505.13344 -18332335.45844  20728572.3494   20728571.9854
 96  2 29  4 52  0.0000000  0  7G 5G24G25G17G 6G16G20
 -11015093.23844  -8583185.12044  21836028.0874   21836027.4504
   6273673.01644   4888581.62644  23502163.9344   23502164.4794
    638236.94844                  25070878.6304
 -12163949.00144  -9478397.06944  23081230.3874   23081231.0154
 -19873074.30844 -15485506.64744  21107749.7494   21107748.5234
 -16725752.62644 -13033048.03144  21155881.1774   21155880.8114
 -23483706.04044 -18298985.52744  20736716.5424   20736716.4034
 96  2 29  4 52 30.0000000  0  6G 5G24G17G 6G16G20
 -10927366.31344  -8514826.47844  21852721.8794   21852721.2484
   6351348.12144   4949107.65844  23516944.4194   23516943.4064
 -12237433.43744  -9535657.65244  23067247.0204   23067246.6934
 -19924219.03044 -15525359.67744  21098017.1434   21098015.6194
 -16699586.77344 -13012659.05044  21160860.1354   21160859.6384
 -23440332.26944 -18265187.79144  20744970.3504   20744969.9964
 96  2 29  4 53  0.0000000  0  7G 5G24G23G17G 6G16G20
 -10839288.01644  -8446194.05044  21869482.9664   21869482.6014
   6429093.35944   5009688.35644  23531739.5004   23531737.7664
        -0.34154                  25278191.0444
 -12310695.94944  -9592745.32444  23053305.8274   23053306.4954
 -19975168.03744 -15565060.20644  21088321.5884   21088320.1454
 -16672845.10644 -12991821.38444  21165949.1044   21165948.9174
 -23396370.06644 -18230931.54244  20753336.3664   20753336.0914
 96  2 29  4 53 30.0000000  0  7G 5G24G23G17G 6G16G20
 -10750878.88344  -8377303.81544  21886306.3504   21886305.7584
   6506873.72844   5070296.46444  23546539.8004   23546539.3044
   -107261.20244    -83579.90144  25257779.0014
 -12383753.73944  -9649673.45944  23039402.9424   23039403.9614
 -20025939.29644 -15604622.22944  21078660.0284   21078659.0584
 -16645545.96044 -12970549.32044  21171143.9764   21171143.3504
 -23351842.35144 -18196234.62944  20761809.7244   20761809.3674
 96  2 29  4 54  0.0000000  0  7G 5G24G23G17G 6G16G20
 -10662178.23044  -8308186.43344  21903185.4764   21903184.8244
   6584655.48744   5130905.61144  23561340.8464   23561340.6214
   -214557.26144                  25237361.2484
 -12456614.66244  -9706448.18444  23025537.8914   23025538.9054
 -20076568.42544 -15644073.49344  21069025.9574   21069024.9024
 -16617705.24044 -12948855.25044  21176441.8244   21176441.4964
 -23306769.12444 -18161112.64044  20770386.8824   20770386.5234
 96  2 29  4 54 30.0000000  0  7G 5G24G23G17G 6G16G20
 -10573189.04244  -8238844.21044  21920119.2244   21920118.7664
   6662425.37344   5191505.50144  23576140.5874   23576139.6354
   -321876.72944   -250812.73244  25216940.0844
 -12529265.31044  -9763059.05544  23011713.7374   23011713.7914
 -20127058.21944 -15683416.18944  21059418.2814   21059417.0344
 -16589306.37644 -12926726.26644  21181845.9124   21181845.4384
 -23261142.05144 -18125559.08444  20779069.1924   20779068.8264
 96  2 29  4 55  0.0000000  0  7G 5G24G23G17G 6G16G20
 -10483915.28744  -8169280.25644  21937107.6124   21937107.1774
   6740165.29244   5252082.04744  23590934.2494   23590933.7604
   -429225.51244   -334461.10344  25196512.5934
 -12601719.37144  -9819516.75044  22997925.1204   22997924.4744
 -20177397.25244 -15722641.40844  21049838.4494   21049837.8284
 -16560343.15144 -12904157.51044  21187357.3144   21187356.8494
 -23214988.29444 -18089595.12444  20787852.1334   20787851.7694
 96  2 29  4 55 30.0000000  0  7G 5G24G23G17G 6G16G20
 -10394347.75944  -8099487.38744  21954152.3234   21954151.8234
   6817878.69444   5312637.93644  23605722.8954   23605721.0394
   -536605.14744   -418133.54744  25176078.8674
 -12673972.28444  -9875817.71744  22984175.7134   22984175.2064
 -20227560.50144 -15761729.65444  21040292.9124   21040291.4744
 -16530828.48444 -12881159.07144  21192973.9194   21192973.5944
 -23168317.31944 -18053228.13744  20796733.0334   20796732.9474
 96  2 29  4 56  0.0000000  0  7G 5G24G23G17G 6G16G20
 -10304481.48744  -8029461.72944  21971252.8794   21971251.7184
   6895585.30544   5373188.54444  23620509.4644   23620508.8144
   -643988.34244   -501808.72844  25155644.2914
 -12746020.35344  -9931959.05644  22970465.2104   22970466.0474
 -20277527.00544 -15800664.59144  21030784.8624   21030783.7054
 -16500763.14244 -12857731.52844  21198695.4264   21198695.0404
 -23121114.01644 -18016446.35344  20805715.8294   20805715.4814
 96  2 29  4 56 30.0000000  0  7G 5G24G23G17G 6G16G20
 -10214306.58044  -7959195.57444  21988412.5094   21988411.8794
   6973289.23444   5433737.07744  23635296.3984   23635296.6734
   -751360.52044                  25135212.3044
 -12817866.05344  -9987942.69844  22956793.4664   22956794.6004
 -20327276.22944 -15839430.21944  21021317.5294   21021316.5554
 -16470142.78844 -12833871.51344  21204522.2834   21204521.9374
 -23073389.74544 -17979258.61544  20814797.3974   20814797.0654
 96  2 29  4 57  0.0000000  0  7G 5G24G23G17G 6G16G20
 -10123812.05544  -7888680.37444  22005633.2714   22005632.6884
   7050999.89944   5494290.83744  23650084.1184   23650084.1604
   -858723.43544   -669134.75944  25114781.3314
 -12889515.64844 -10043773.51644  22943159.3094   22943159.9144
 -20376787.89344 -15878010.72944  21011895.7864   21011894.8384
 -16438962.03244 -12809574.81544  21210455.6594   21210455.2504
 -23025155.83144 -17941673.75744  20823976.1344   20823975.7814
 96  2 29  4 57 30.0000000  0  7G 5G24G23G17G 6G16G20
 -10032999.70744  -7817917.50944  22022913.9784   22022912.4384
   7128717.24644   5554849.79944  23664873.2794   23664872.0884
   -966062.66144   -752775.81744  25094354.3414
 -12960945.88544 -10099433.42844  22929567.2034   22929568.2104
 -20426071.61344 -15916413.63144  21002517.5604   21002516.1584
 -16407210.86744 -12784833.64644  21216497.5004   21216497.1534
 -22976396.51144 -17903679.48844  20833254.6214   20833254.2594
 96  2 29  4 58  0.0000000  0  7G 5G24G23G17G 6G16G20
  -9941874.78544  -7746911.08544  22040254.4274   22040254.2544
   7206419.32444   5615396.88444  23679658.4864   23679657.4524
  -1073370.03544                  25073933.4934
 -13032158.01944 -10154923.39344  22916015.9554   22916015.4714
 -20475155.68344 -15954660.95244  20993177.4644   20993176.1134
 -16374878.43544 -12759639.53744  21222649.9624   21222649.5464
 -22927119.29044 -17865281.66544  20842631.8194   20842631.7424
 96  2 29  4 58 30.0000000  0  7G 5G24G23G17G16G 6G20
  -9850423.73244  -7675650.54744  22057657.4734   22057657.0544
   7284097.19744   5675925.09644  23694441.1154   23694441.2844
  -1180649.41444   -919986.28744  25053519.3054
 -13103155.07844 -10210245.76144  22902505.2744   22902504.4314
 -16341957.48844 -12733986.84944  21228914.7424   21228914.4084
 -20524060.12644 -15992768.31444  20983871.0874   20983869.8254
 -22877327.69944 -17826483.03544  20852106.7844   20852106.4864
 96  2 29  4 59  0.0000000  0  7G 5G24G23G17G16G 6G20
  -9758645.45444  -7604135.02344  22075121.5934   22075121.2354
   7361741.89644   5736427.43544  23709217.1074   23709215.0264
  -1287899.53144  -1003557.72644  25033110.0564
 -13173937.26044 -10265400.69544  22889035.8424   22889035.6454
 -16308465.64544 -12707889.30644  21235288.4434   21235287.9064
 -20572790.67044 -16030740.16044  20974597.6004   20974596.5794
 -22827001.22644 -17787267.60844  20861683.6854   20861683.4034
 96  2 29  4 59 30.0000000  0  7G 5G24G23G17G16G 6G20
  -9666543.58444  -7532367.34844  22092648.7064   22092648.4644
   7439348.87444   5796900.39244  23723984.8344   23723982.9564
  -1395105.42544                  25012711.6624
 -13244499.71144 -10320384.40844  22875608.4144   22875608.2534
 -16274416.85544 -12681357.77844  21241767.3404   21241767.0104
 -20621341.38144 -16068571.88444  20965358.8574   20965357.8484
 -22776127.17744 -17747625.50044  20871364.7624   20871364.3944
 96  2 29  5  0  0.0000000  0  7G 5G24G23G17G16G 6G20
  -9574111.39144  -7460342.28944  22110238.1674   22110237.7514
   7516932.00044   5857354.75744  23738747.6164   23738745.7914
  -1502274.75844  -1170603.43644  24992318.8664   24992320.2574
 -13314857.63144 -10375208.75044  22862219.5884   22862219.6564
 -16239825.83744 -12654403.73744  21248349.9004   21248349.7734
 -20669692.43444 -16106248.02744  20956157.9764   20956156.9684
 -22724712.68944 -17707562.27144  20881148.2854   20881147.9884
 96  2 29  5  0 30.0000000  0  7G 5G24G23G17G16G 6G20
  -9481356.21344  -7388065.53844  22127888.9534   22127888.2674
   7594507.25544   5917803.02444  23753509.5004   23753508.8344
  -1609420.30444  -1254093.49644  24971930.2864   24971932.1644
 -13384994.13044 -10429860.56144  22848872.9124   22848873.0084
 -16204692.79744 -12627027.33644  21255035.3424   21255035.1154
 -20717814.21544 -16143745.51744  20947000.9604   20946999.6354
 -22672746.03944 -17667068.78744  20891037.3224   20891036.9904
 96  2 29  5  1  0.0000000  0  7G 5G24G23G17G16G 6G20
  -9388305.37544  -7315558.40944  22145595.5684   22145595.1854
   7672082.37544   5978251.17844  23768271.9494   23768271.6454
  -1716567.36544  -1337584.71744  24951540.9114   24951538.0794
 -13454909.10044 -10484339.76044  22835568.0914   22835568.1114
 -16169025.93844 -12599234.97744  21261822.3964   21261822.1164
 -20765683.35244 -16181046.14344  20937891.6754   20937890.7034
 -22620242.59144 -17626157.01744  20901028.3014   20901028.2274
 96  2 29  5  1 30.0000000  0  7G 5G24G23G17G16G 6G20
  -9294960.43544  -7242822.11344  22163358.3454   22163357.8454
   7749670.58444   6038709.53444  23783035.6954   23783035.8474
  -1823727.00444  -1421085.75644  24931147.1724   24931148.9354
 -13524592.24744 -10538638.31744  22822308.0154   22822307.8904
 -16132807.91244 -12571013.13544  21268714.6694   21268714.2024
 -20813303.52244 -16218152.77044  20928829.7164   20928828.5514
 -22567224.21044 -17584844.00244  20911117.4014   20911117.3284
 96  2 29  5  2  0.0000000  0  7G 5G24G23G17G16G 6G20
  -9201332.26644  -7169865.11144  22181175.4324   22181174.4524
   7827275.40044   6099180.82244  23797803.6984   23797803.0864
  -1930904.35344  -1504600.55244  24910751.6404   24910753.7274
 -13594028.55644 -10592744.51244  22809094.7934   22809095.3204
 -16096014.09744 -12542342.62044  21275716.4284   21275716.1334
 -20860679.61444 -16255069.20844  20919814.5564   20919813.5914
 -22513686.27944 -17543126.13944  20921305.5274   20921305.3914
 96  2 29  5  2 30.0000000  0  7G 5G24G23G17G16G 6G20
  -9107431.61844  -7096695.79244  22199043.9484   22199043.4434
   7904897.77044   6159665.75044  23812575.2864   23812574.2024
  -2038079.60044  -1588113.72744  24890358.3134   24890357.5914
 -13663213.50944 -10646654.84644  22795929.5264   22795930.1084
 -16058633.99144 -12513215.26244  21282829.4184   21282829.1494
 -20907812.43644 -16291796.08144  20910845.6064   20910844.5394
 -22459621.48544 -17500997.73544  20931593.6654   20931593.4324
 96  2 29  5  3  0.0000000  0  7G 5G24G23G17G 6G16G20
  -9013269.35544  -7023322.63344  22216963.0074   22216962.9704
   7982526.41544   6220155.59544  23827347.7864   23827347.2944
  -2145243.82644  -1671618.30944  24869966.0574   24869969.4434
 -13732176.24144 -10700392.02444  22782806.0244   22782808.1364
 -20954736.84244 -16328360.55744  20901915.7174   20901914.4804
 -16020692.24644 -12483650.25744  21290049.5894   21290049.3694
 -22405056.51644 -17458479.58944  20941977.0244   20941976.8354
 96  2 29  5  3 30.0000000  0  7G 5G24G23G17G16G 6G20
  -8918831.54244  -6949734.74544  22234933.4654   22234933.6534
   8060162.50344   6280651.26344  23842120.8914   23842120.5684
  -2252337.51144  -1755067.91444  24849586.6914   24849588.8974
 -13800906.63344 -10753948.14344  22769727.1674   22769728.5834
 -15982175.33044 -12453637.07144  21297378.7784   21297378.5244
 -21001454.32144 -16364763.79244  20893025.9774   20893024.6934
 -22349969.89944 -17415554.95944  20952459.8874   20952459.5034
 96  2 29  5  4  0.0000000  0  7G 5G24G23G17G16G 6G20
  -8824135.57844  -6875945.70944  22252953.8064   22252953.8604
   8137788.55044   6341139.11744  23856893.0774   23856893.5734
  -2359356.59644  -1838459.41244  24829220.8144   24829223.3454
 -13869424.83444 -10807338.91644  22756688.3174   22756688.5254
 -15943101.95844 -12423190.28444  21304814.1874   21304813.7464
 -21047956.92044 -16400999.59144  20884176.7574   20884175.4874
 -22294360.76744 -17372223.18144  20963041.8214   20963041.7014
 96  2 29  5  4 30.0000000  0  6G 5G24G17G16G 6G20
  -8729169.62544  -6801946.29244  22271025.1454   22271024.5214
   8215400.17744   6401615.70044  23871662.3104   23871661.3824
 -13937750.69944 -10860579.82844  22743686.9454   22743686.5264
 -15903502.19644 -12392333.31944  21312349.9494   21312349.5944
 -21094255.48944 -16437076.40044  20875366.3904   20875365.3894
 -22238249.10944 -17328499.82744  20973719.5714   20973719.4354
 96  2 29  5  5  0.0000000  0  7G 5G24G23G17G 6G16G20
  -8633951.16844  -6727750.10744  22289144.6854   22289144.3214
   8292971.82644   6462061.16644  23886423.7584   23886424.1464
         0.11254         0.33054  24788526.5374   24788529.6374
 -14005901.07844 -10913683.98944  22730717.7674   22730718.4764
 -21140363.04844 -16473004.36544  20866592.7444   20866591.5594
 -15863400.53944 -12361085.26544  21319981.5144   21319981.0854
 -22181651.44044 -17284397.75844  20984489.6274   20984489.6334
 96  2 29  5  5 30.0000000  0  7G 5G24G23G17G 6G16G20
  -8538471.13044  -6653350.09144  22307313.8334   22307312.9164
   8370510.01444   6522480.51344  23901178.1314   23901178.1424
   -106846.03744    -83256.39744  24768195.5154   24768200.7644
 -14073852.10244 -10966632.81244  22717787.6324   22717787.8144
 -21186240.62044 -16508753.12344  20857862.3074   20857861.1944
 -15822775.44144 -12329429.34444  21327711.9204   21327711.5654
 -22124547.25144 -17239900.99844  20995356.0594   20995355.9704
 96  2 29  5  6  0.0000000  0  7G 5G24G23G17G 6G16G20
  -8442719.01144  -6578738.06144  22325534.7964   22325534.5004
   8448033.13244   6582888.12244  23915930.0854   23915929.4864
   -213665.92344   -166492.61444  24747868.5524   24747870.1774
 -14141582.12044 -11019409.41744  22704898.7424   22704899.3554
 -21231879.31544 -16544315.74444  20849177.6934   20849176.4134
 -15781619.95344 -12297360.12344  21335543.6224   21335543.2124
 -22066935.48444 -17195008.72344  21006319.3664   21006319.1854
 96  2 29  5  6 30.0000000  0  7G 5G24G23G17G 6G16G20
  -8346699.61244  -6503917.77244  22343806.4034   22343806.1404
   8525544.77144   6643286.84244  23930680.8114   23930680.1994
   -320469.05144   -249715.76844  24727544.2714   24727544.2924
 -14209089.60644 -11072012.62144  22692052.3134   22692052.4324
 -21277294.71444 -16579704.37344  20840535.1674   20840534.2064
 -15739948.00344 -12264888.46644  21343473.0754   21343472.7234
 -22008828.26644 -17149730.37844  21017376.9154   21017376.8354
 96  2 29  5  7  0.0000000  0  7G 5G24G23G17G 6G16G20
  -8250430.22744  -6428902.66444  22362126.1664   22362125.8104
   8603031.08844   6703665.80344  23945425.9604   23945426.3974
   -427261.49644   -332930.59944  24707221.9084   24707231.3404
 -14276372.68644 -11124440.95244  22679249.4094   22679249.7634
 -21322475.45044 -16614910.13944  20831937.4764   20831936.1864
 -15697748.09344 -12232005.41444  21351503.9284   21351503.1284
 -21950221.73944 -17104062.96044  21028529.2224   21028529.0084
 96  2 29  5  7 30.0000000  0  7G 5G24G23G17G 6G16G20
  -8153886.81744  -6353674.05244  22380497.4274   22380496.7264
   8680503.44244   6764033.84144  23960168.5484   23960166.8404
   -534031.97544   -416128.33744  24686904.2174   24686910.7114
 -14343413.26044 -11176680.32844  22666492.3534   22666492.1974
 -21367427.36244 -16649937.59644  20823383.6054   20823382.5764
 -15655009.80844 -12198702.84644  21359636.5634   21359636.1764
 -21891117.50944 -17058007.71944  21039776.5534   21039776.2314
 96  2 29  5  8  0.0000000  0  7G 5G24G23G17G 6G16G20
  -8057052.66044  -6278218.88044  22398924.7284   22398923.8324
   8757972.71544   6824399.49244  23974909.9824   23974908.7514
   -640762.91144   -499295.22744  24666594.0944   24666599.6754
 -14410205.26844 -11228726.01044  22653782.2224   22653782.2454
 -21412156.88544 -16684791.76344  20814871.9244   20814870.7154
 -15611735.90844 -12164982.91844  21367871.3194   21367871.1504
 -21831507.56844 -17011558.41944  21051119.9284   21051119.6034
 96  2 29  5  8 30.0000000  0  7G 5G24G23G17G 6G16G20
  -7959950.96644  -6202555.22344  22417402.7074   22417401.8634
   8835393.01144   6884727.00244  23989642.4464   23989640.0984
   -747465.75444   -582440.28244  24646289.8694   24646292.1224
 -14476806.61944 -11280623.13644  22641107.9634   22641108.3214
 -21456686.02844 -16719489.79644  20806398.2774   20806397.1034
 -15567967.26544 -12130877.47844  21376200.4634   21376200.0614
 -21771425.27644 -16964741.05544  21062553.0994   21062552.7314
 96  2 29  5  9  0.0000000  0  7G 5G24G23G17G 6G16G20
  -7862574.22644  -6126677.25944  22435932.2584   22435932.2694
   8912771.00744   6945021.54144  24004368.0594   24004368.3774
   -854112.26544   -665541.40844  24625995.9404   24625997.9164
 -14543207.07144 -11332363.72544  22628472.3304   22628471.1354
 -21500995.63344 -16754016.76044  20797966.7244   20797965.2424
 -15523681.08944 -12096368.76644  21384627.7634   21384627.1674
 -21710859.79644 -16917547.18144  21074078.3284   21074078.1524
 96  2 29  5  9 30.0000000  0  7G 5G24G23G17G 6G16G20
  -7764912.92044  -6050577.56744  22454516.9994   22454517.0554
   8990139.61444   7005308.73944  24019090.1254   24019089.3704
   -960666.81944   -748570.92544  24605717.9464   24605722.5164
 -14609384.60844 -11383930.60244  22615879.1864   22615878.9944
 -21545066.60044 -16788357.77844  20789580.0084   20789578.6974
 -15478868.32944 -12061449.73144  21393155.0504   21393155.0994
 -21649797.06844 -16869965.83944  21085698.3854   21085698.1174
 96  2 29  5 10  0.0000000  0  7G 5G24G23G17G 6G16G20
  -7666997.85844  -5974280.11544  22473150.0314   22473149.6484
   9067492.51744   7065583.74044  24033810.7104   24033808.9674
  -1067122.62144   -831523.49144  24585461.7654   24585465.0994
 -14675358.69744 -11435338.95744  22603324.8844   22603325.1514
 -21588881.04844 -16822498.90644  20781242.3044   20781241.1004
 -15433535.42244 -12026125.38244  21401781.8954   21401781.2714
 -21588241.19144 -16822000.22844  21097411.7834   21097411.8114
 96  2 29  5 10 30.0000000  0  7G 5G24G23G17G 6G16G20
  -7568854.98044  -5897805.15444  22491825.7804   22491825.9704
   9144822.10244   7125840.53344  24048525.8094   24048525.0844
  -1173480.34444   -914399.62144  24565221.6694   24565226.6494
 -14741130.07544 -11486589.36444  22590808.4084   22590808.0504
 -21632433.77044 -16856436.08944  20772954.4814   20772953.2124
 -15387680.26044 -11990394.07944  21410507.5704   21410507.2334
 -21526206.88244 -16773661.81644  21109216.4644   21109216.3164
 96  2 29  5 11  0.0000000  0  7G 5G24G23G17G 6G16G20
  -7470511.80544  -5821174.12644  22510540.1104   22510539.4934
   9222132.91644   7186082.69844  24063237.0134   24063237.5844
  -1279749.08944   -997206.45244  24544998.9054   24545001.0324
 -14806671.17444 -11537660.32244  22578336.1564   22578336.1634
 -21675732.97444 -16890175.72344  20764714.9744   20764713.6904
 -15341305.23344 -11954257.69044  21419332.5124   21419332.1424
 -21463703.45244 -16724957.85744  21121110.5564   21121110.5044
 96  2 29  5 11 30.0000000  0  7G 5G24G23G17G 6G16G20
  -7371956.27344  -5744377.61344  22529294.4194   22529293.9604
   9299426.76244   7246311.70444  24077945.3484   24077944.6004
  -1385924.37344  -1079940.48144  24524795.4154   24524797.7054
 -14871971.00244 -11588543.29044  22565910.0284   22565910.0254
 -21718771.47144 -16923712.21044  20756525.0634   20756523.7774
 -15294414.51744 -11917719.46744  21428255.6674   21428255.0964
 -21400720.34744 -16675880.11944  21133095.9194   21133095.6944
 96  2 29  5 12  0.0000000  0  7G 5G24G23G17G 6G16G20
  -7273185.71644  -5667413.54344  22548090.0404   22548089.5194
   9376684.64044   7306512.62244  24092646.5234   24092648.7334
  -1492019.82744  -1162612.27044  24504605.3264   24504606.5904
 -14937040.80044 -11639247.00644  22553527.8404   22553528.3924
 -21761557.43644 -16957051.91744  20748383.2154   20748382.0144
 -15247006.73644 -11880778.33744  21437276.9484   21437276.9964
 -21337268.31744 -16626436.98544  21145170.5374   21145170.3144
 96  2 29  5 12 30.0000000  0  7G 5G24G23G17G 6G16G20
  -7174195.08444  -5590277.98644  22566927.0114   22566926.6604
   9453898.07944   7366678.88644  24107339.3094   24107340.6924
  -1598046.82244  -1245230.70844  24484428.4774   24484428.4454
 -15001878.16744 -11689769.60344  22541189.5964   22541189.7434
 -21804104.10744 -16990205.16844  20740287.0624   20740285.4854
 -15199083.97844 -11843435.92744  21446396.1754   21446395.8414
 -21273354.89444 -16576634.32344  21157332.8734   21157332.4004
 96  2 29  5 13  0.0000000  0  7G 5G24G23G17G 6G16G20
  -7074965.42144  -5512956.19344  22585809.4714   22585808.8564
   9531077.99344   7426819.04244  24122027.4104   24122028.1524
  -1703995.57944  -1327788.18344  24464268.0554   24464272.2314
 -15066494.39744 -11740119.88944  22528893.6964   22528893.8504
 -21846403.00344 -17023165.34644  20732237.6894   20732236.2744
 -15150635.55544 -11805683.90544  21455615.7414   21455615.4204
 -21208961.18444 -16526457.41244  21169586.4034   21169586.1884
 96  2 29  5 13 30.0000000  0  7G 5G24G23G17G 6G16G20
  -6975504.99444  -5435454.56744  22604736.1814   22604736.0414
   9608204.10544   7486917.26344  24136703.8764   24136701.0434
  -1809885.96044  -1410300.19944  24444118.0204   24444121.7674
 -15130930.33444 -11790329.69544  22516632.0124   22516631.6424
 -21888458.63244 -17055935.96144  20724234.7284   20724233.5604
 -15101671.28244 -11767529.91944  21464932.9764   21464932.9644
 -21144106.03644 -16475920.94944  21181928.1514   21181927.7464
 96  2 29  5 14  0.0000000  0  7G 5G24G23G17G 6G16G20
  -6875809.57244  -5357769.83344  22623707.6524   22623707.5894
   9685290.34044   7546984.53344  24151373.6654   24151371.4994
  -1915711.63944  -1492761.73444  24423980.6954   24423981.8184
 -15195177.79344 -11840392.63644  22504405.5254   22504405.6834
 -21930260.63444 -17088508.94944  20716280.0254   20716278.8884
 -15052179.32844 -11728964.75744  21474351.2444   21474350.9114
 -21078792.82044 -16425027.54644  21194356.7064   21194356.4494
 96  2 29  5 14 30.0000000  0  7G 5G24G23G17G 6G16G20
  -6775877.75244  -5279900.89344  22642724.4654   22642724.3144
   9762360.95044   7607039.54944  24166039.3474   24166038.9454
  -2021461.58144  -1575164.25144  24403857.6344   24403858.0784
 -15259218.77444 -11890294.66244  22492219.6204   22492219.5634
 -21971801.05844 -17120878.11344  20708375.0764   20708373.7294
 -15002171.03744 -11689997.25444  21483867.4974   21483867.1334
 -21013011.11244 -16373769.09544  21206874.6044   21206874.8904
 96  2 29  5 15  0.0000000  0  7G 5G24G23G17G 6G16G20
  -6675721.78144  -5201857.29744  22661783.3194   22661782.8244
   9839413.89444   7667080.84344  24180702.0864   24180701.8394
  -2127137.49644  -1657509.07144  24383746.7184   24383747.0554
 -15323048.72844 -11940032.27844  22480073.0374   22480072.6594
 -22013075.05244 -17153039.66444  20700520.8924   20700519.7604
 -14951656.67244 -11650635.40544  21493480.2084   21493479.7904
 -20946764.14944 -16322148.10844  21219480.6644   21219480.3524
 96  2 29  5 15 30.0000000  0  7G 5G24G23G17G 6G16G20
  -6575352.14444  -5123647.20244  22680882.9094   22680882.5524
   9916441.36544   7727102.21344  24195359.4464   24195358.0204
  -2232745.82044  -1739801.22044  24363651.6964   24363651.5594
 -15386650.79544 -11989592.31244  22467969.5704   22467969.1694
 -22054089.41644 -17184998.90444  20692716.3374   20692715.2784
 -14900644.35044 -11610885.54144  21503187.7154   21503187.4674
 -20880064.09444 -16270174.05944  21232173.5524   21232173.3914
 96  2 29  5 16  0.0000000  0  7G 5G24G23G17G 6G16G20
  -6474770.26744  -5045271.73144  22700023.3764   22700022.7274
   9993453.79344   7787111.92344  24210014.5634   24210011.4094
  -2338260.90644  -1822020.70044  24343572.7524   24343572.7224
 -15450009.10744 -12038962.40344  22455912.7674   22455912.4614
 -22094849.48444 -17216759.99644  20684959.7474   20684958.8544
 -14849139.08244 -11570751.56544  21512988.5304   21512988.2124
 -20812893.02944 -16217832.98444  21244955.8944   21244955.4494
 96  2 29  5 16 30.0000000  0  7G 5G24G23G17G 6G16G20
  -6373982.44144  -4966735.77344  22719202.0224   22719201.5634
  10070454.76644   7847112.68444  24224667.0634   24224666.6754
  -2443674.03644  -1904160.74644  24323513.4744   24323513.6454
 -15513125.14644 -12088143.70444  22443902.6584   22443902.6074
 -22135339.33744 -17248310.53444  20677254.6254   20677253.4764
 -14797141.45144 -11530233.92044  21522883.4464   21522883.0814
 -20745240.47044 -16165116.72144  21257829.3484   21257829.4904
 96  2 29  5 17  0.0000000  0  7G 5G24G23G17G 6G16G20
  -6272989.88044  -4888040.30244  22738420.2174   22738419.5994
  10147440.67144   7907101.70244  24239316.6894   24239318.0204
  -2548972.16244  -1986211.19644  24303475.3164   24303475.3174
 -15575992.59444 -12137131.29844  22431938.8774   22431938.7654
 -22175551.52344 -17279644.70244  20669602.4814   20669601.2764
 -14744631.28344 -11489316.90544  21532875.6094   21532875.3884
 -20677103.56844 -16112023.04044  21270795.7824   21270795.7734
 96  2 29  5 17 30.0000000  0  7G 5G24G23G17G 6G16G20
  -6171808.71644  -4809197.87244  22757675.0924   22757675.1864
  10224403.42244   7967072.65244  24253962.2094   24253962.1684
  -2654161.01244  -2068176.48044  24283458.4594   24283459.8284
 -15638621.47444 -12185932.99444  22420021.1294   22420021.6604
 -22215506.32244 -17310778.30544  20661999.5694   20661998.4314
 -14691630.04144 -11448017.23744  21542961.4034   21542961.3424
 -20608505.51444 -16058570.02944  21283849.5944   21283849.3824
 96  2 29  5 18  0.0000000  0  7G 5G24G23G17G 6G16G20
  -6070446.15344  -4730214.06544  22776963.8844   22776963.7184
  10301344.56044   8027026.74744  24268601.3404   24268602.8244
  -2759240.96944  -2150056.90144  24263462.0694   24263464.3114
 -15701016.51044 -12234552.47444  22408147.4574   22408148.2724
 -22255201.68944 -17341709.75044  20654445.5044   20654444.6824
 -14638153.16044 -11406346.93044  21553138.2154   21553137.3904
 -20539451.52544 -16004761.73744  21296990.0534   21296989.5194
 96  2 29  5 18 30.0000000  0  7G 5G24G23G17G 6G16G20
  -5968897.81044  -4651085.51344  22796287.2924   22796286.4444
  10378260.48044   8086961.20544  24283241.2674   24283241.0774
  -2864227.70244  -2231864.64344  24243483.2054   24243483.7324
 -15763184.53744 -12282995.06744  22396317.3624   22396317.7174
 -22294627.43144 -17372431.10144  20646943.1544   20646942.0544
 -14584196.25244 -11364302.58744  21563405.4124   21563404.8964
 -20469958.80644 -15950611.57344  21310214.3534   21310213.9374
 96  2 29  5 19  0.0000000  0  7G 5G24G23G17G 6G16G20
  -5867159.90944  -4571809.24244  22815647.9304   22815647.5074
  10455147.26044   8146872.97244  24297872.3304   24297874.3264
  -2969131.90744  -2313608.17944  24223521.1754   24223521.3094
 -15825129.25744 -12331263.65844  22384529.9034   22384530.0754
 -22333803.79544 -17402958.13544  20639488.5624   20639486.8434
 -14529762.44844 -11321886.63344  21573763.9244   21573763.4134
 -20400041.82444 -15896130.81044  21323519.0184   21323518.4414
 96  2 29  5 19 30.0000000  0  7G 5G24G23G17G 6G16G20
  -5765214.30344  -4492371.13744  22835047.1414   22835046.7534
  10532011.80844   8206767.46544  24312499.3624   24312496.1464
  -3073945.97744  -2395281.46944  24203575.6374   24203575.8124
 -15886860.12944 -12379365.61344  22372783.3054   22372783.4854
 -22372712.01844 -17433276.23344  20632084.1494   20632082.7494
 -14474846.48644 -11279094.97144  21584214.1854   21584213.6594
 -20329691.85844 -15841312.66244  21336906.4304   21336905.9464
 96  2 29  5 20  0.0000000  0  7G 5G24G23G17G 6G16G20
  -5663072.47244  -4412780.13644  22854484.4624   22854483.9264
  10608834.13944   8266629.03944  24327117.6844   24327118.6874
  -3178684.89044  -2476896.13444  24183644.5184   24183646.8864
 -15948415.12644 -12427330.52344  22361069.7474   22361069.9994
 -22411359.43044 -17463391.09544  20624729.8654   20624728.8694
 -14419457.88644 -11235935.02144  21594754.2764   21594754.1164
 -20258915.54544 -15786162.28944  21350374.5024   21350374.1704
 96  2 29  5 20 30.0000000  0  7G 5G24G23G17G 6G16G20
  -5560737.67544  -4333038.75544  22873958.2404   22873958.0964
  10685603.88044   8326449.62944  24341727.2734   24341722.8954
  -3283340.23544  -2558445.72644  24163729.2714   24163731.1824
 -16009798.75544 -12475161.89744  22349388.5824   22349388.8564
 -22449745.57744 -17493302.37344  20617425.1284   20617424.0064
 -14363602.20544 -11192411.11444  21605383.6024   21605383.1064
 -20187734.97044 -15730696.91744  21363919.2884   21363919.2744
 96  2 29  5 21  0.0000000  0  7G 5G24G23G17G 6G16G20
  -5458192.53344  -4253133.46844  22893471.3794   22893469.7814
  10762346.37444   8386249.04644  24356330.9014   24356328.6614
  -3387871.02044  -2639898.32544  24143836.1734   24143836.6264
 -16070967.84544 -12522826.10444  22337748.1724   22337748.3444
 -22487843.29944 -17522988.90744  20610175.5584   20610174.2394
 -14307256.32844 -11148505.23544  21616105.5384   21616105.0404
 -20116125.92744 -15674897.67444  21377546.0954   21377546.3704
 96  2 29  5 21 30.0000000  0  7G 5G24G23G17G 6G16G20
  -5355470.11344  -4173090.05544  22913018.8604   22913019.2524
  10839041.19044   8446011.27144  24370924.7434   24370925.0914
  -3492273.79944  -2721251.11144  24123969.0074   24123971.0384
 -16131944.32244 -12570340.22344  22326144.6694   22326144.7464
 -22525659.88144 -17552456.37944  20602979.2774   20602977.6064
 -14250449.58244 -11104240.24344  21626915.4664   21626915.1114
 -20044092.82444 -15618767.99544  21391253.3314   21391253.4144
 96  2 29  5 22  0.0000000  0  8G 5G24G23G26G17G 6G16G20
  -5252571.71844  -4092909.50844  22932599.2884   22932598.6664
  10915697.81344   8505743.69844  24385510.6594   24385511.7584
  -3596539.86544  -2802497.34744  24104128.3974   24104129.4824
        -0.61154                  24088340.1814
 -16192705.00644 -12617686.18044  22314582.2564   22314582.0584
 -22563188.48744 -17581699.45044  20595837.7884   20595836.6734
 -14193183.67344 -11059617.45644  21637813.1454   21637812.0724
 -19971639.61844 -15562310.96544  21405041.0164   21405040.8194
 96  2 29  5 22 30.0000000  0  7G 5G24G23G17G 6G16G20
  -5149477.01044  -4012575.99544  22952218.1744   22952217.9534
  10992345.74544   8565469.34144  24400096.2124   24400098.0464
  -3700648.60044  -2883621.06444  24084318.1314   24084317.7224
 -16253214.47644 -12664836.40044  22303067.9734   22303068.4984
 -22600409.54244 -17610702.86944  20588755.1204   20588753.7364
 -14135432.59744 -11014616.62044  21648802.5924   21648802.2494
 -19898758.81544 -15505520.74544  21418909.8834   21418910.0134
 96  2 29  5 23  0.0000000  0  7G 5G24G23G17G 6G16G20
  -5046224.96144  -3932119.88644  22971866.1414   22971865.8224
  11068953.93244   8625163.99344  24414675.6304   24414675.4544
  -3804645.21844  -2964657.39144  24064527.3724   24064528.7114
 -16313513.34044 -12711822.50844  22291593.3764   22291592.5064
 -22637362.52344 -17639497.40144  20581722.9854   20581721.6284
 -14077215.12644 -10969252.36244  21659880.8414   21659880.2654
 -19825468.54444 -15448411.46244  21432856.7264   21432856.7054
 96  2 29  5 23 30.0000000  0  7G 5G24G23G17G 6G16G20
  -4942803.39844  -3851531.67644  22991546.7254   22991545.9354
  11145527.47744   8684831.63144  24429246.6254   24429246.5894
  -3908536.27444  -3045611.46144  24044757.9894   24044757.5584
 -16373610.88244 -12758651.73744  22280157.3594   22280156.9374
 -22674046.35744 -17668082.20344  20574742.0164   20574740.8164
 -14018527.73244 -10923521.93144  21671048.6994   21671048.0854
 -19751760.78144 -15390976.85244  21446882.7404   21446882.4714
 96  2 29  5 24  0.0000000  0  7G 5G24G23G17G 6G16G20
  -4839216.89844  -3770814.94744  23011258.8674   23011258.9474
  11222051.20644   8744460.49844  24443810.6634   24443810.2684
  -4012349.57244  -3126504.94244  24025002.9494   24025003.9144
 -16433505.96944 -12805323.22744  22268760.0844   22268759.7004
 -22710476.45244 -17696469.29744  20567809.9494   20567808.3854
 -13959369.60944 -10877424.69944  21682305.7944   21682305.7294
 -19677676.77244 -15333249.06444  21460980.3264   21460980.0624
 96  2 29  5 24 30.0000000  0  7G 5G24G23G17G 6G16G20
  -4735445.54744  -3689954.18144  23031006.2554   23031006.0044
  11298549.89744   8804069.82744  24458367.0524   24458366.4834
  -4116055.52344  -3207314.75944  24005268.8174   24005268.9824
 -16493169.79544 -12851814.51244  22257405.6484   22257405.6504
 -22746631.56344 -17724642.11544  20560929.9904   20560928.5674
 -13899713.29944 -10830939.26644  21693658.0204   21693657.8634
 -19603182.31544 -15275201.44844  21475156.2044   21475155.9794
 96  2 29  5 25  0.0000000  0  7G 5G24G23G17G 6G16G20
  -4631500.15644  -3608957.78844  23050785.7444   23050785.6404
  11375014.97944   8863652.99044  24472918.2194   24472915.0034
  -4219642.81944  -3288032.17044  23985556.0924   23985555.6274
 -16552597.61244 -12898121.89444  22246097.1834   22246097.4824
 -22782498.99644 -17752590.76444  20554104.1554   20554102.9844
 -13839570.34144 -10784074.62544  21705103.3594   21705102.6214
 -19528250.13744 -15216812.75044  21489415.0474   21489415.0414
